Date StartTime U_cm/s V_cm/s W_cm/s Ustd_cm/s Vstd_cm/s Wstd_cm/s Uvar_(cm/s)^2 Vvar_(cm/s)^2 Wvar_(cm/s)^2 KE_(m/s)^2 TurbulentKE_(m/s)^2 HorizWindSpeed_cm/s FrictionSpeec_cm/s DragCoef SpeedOfSound_m/s SonicTemperature_C Pressure_mb 
11/03/2014  00:00:00      -61.122      -17.778       -3.348       17.801       18.140       11.456      316.868      329.074      131.238        0.242        0.039       63.655       10.025        0.025      332.596        1.361      867.344
11/03/2014  00:01:00      -77.140      -51.731       -3.136       28.307       25.698       17.108      801.308      660.364      292.692        0.520        0.088       92.879       15.501        0.028      332.576        1.329      867.340
11/03/2014  00:02:00      -80.485      -44.531       -9.467       10.403       16.335       11.396      108.221      266.836      129.880        0.453        0.025       91.983        8.199        0.008      332.605        1.377      867.345
11/03/2014  00:03:00      -62.436      -55.298       -6.957       26.879       18.136       12.279      722.457      328.917      150.781        0.410        0.060       83.403       11.532        0.019      332.611        1.386      867.346
11/03/2014  00:04:00      -84.353      -39.907        1.492       33.406       33.582       13.185     1115.970     1127.734      173.851        0.556        0.121       93.317       14.865        0.025      332.571        1.320      867.363
11/03/2014  00:05:00      -91.498      -46.174        0.031       27.406       21.915       20.690      751.065      480.266      428.091        0.608        0.083      102.489       18.535        0.033      332.465        1.146      867.371
11/03/2014  00:06:00     -103.348      -57.652       -2.161       35.803       26.681       18.438     1281.874      711.862      339.969        0.817        0.117      118.341       19.961        0.028      332.457        1.132      867.381
11/03/2014  00:07:00      -84.901      -49.179        1.456       48.860       25.466       19.674     2387.319      648.499      387.064        0.653        0.171       98.116       21.921        0.050      332.449        1.119      867.389
11/03/2014  00:08:00      -90.834      -20.900       -6.611       19.170       18.768       12.916      367.489      352.253      166.815        0.481        0.044       93.207        8.521        0.008      332.384        1.010      867.390
11/03/2014  00:09:00      -82.554        1.039       -3.236       22.781       17.540       15.840      518.978      307.639      250.906        0.395        0.054       82.560       14.111        0.029      332.320        0.906      867.402
11/03/2014  00:10:00      -88.246      -14.034       -3.374       18.973       15.991       10.306      359.957      255.698      106.206        0.436        0.036       89.355        9.143        0.010      332.310        0.890      867.411
11/03/2014  00:11:00      -89.648      -19.118       -7.735       18.076       10.936       10.345      326.738      119.588      107.015        0.451        0.028       91.664        9.248        0.010      332.398        1.034      867.421
11/03/2014  00:12:00      -86.931      -20.924       -3.792       22.086       18.713       14.358      487.810      350.164      206.150        0.453        0.052       89.414       11.266        0.016      332.381        1.006      867.440
11/03/2014  00:13:00      -65.812      -19.004       -1.402       18.824       19.391       11.893      354.357      376.023      141.441        0.278        0.044       68.501        9.581        0.020      332.319        0.903      867.454
11/03/2014  00:14:00      -65.990      -31.741       -1.221       17.378       15.176       10.546      301.999      230.321      111.227        0.300        0.032       73.227        7.912        0.012      332.402        1.041      867.469
11/03/2014  00:15:00      -53.361      -19.052       -0.494       16.599       18.314       12.563      275.520      335.397      157.840        0.199        0.038       56.660        9.687        0.029      332.424        1.078      867.479
11/03/2014  00:16:00      -55.307      -31.545        1.938       22.155       21.129       12.020      490.857      446.442      144.479        0.257        0.054       63.671        9.560        0.023      332.447        1.115      867.482
11/03/2014  00:17:00      -75.996      -42.034       -8.898       16.500       16.100        9.548      272.246      259.200       91.164        0.412        0.031       86.846        6.354        0.005      332.411        1.055      867.477
11/03/2014  00:18:00      -54.013      -32.243       -1.310       27.900       21.478       13.084      778.421      461.311      171.203        0.268        0.071       62.905       12.740        0.041      332.453        1.126      867.474
11/03/2014  00:19:00      -53.788      -10.247       -4.147       17.646       13.703        9.524      311.381      187.765       90.703        0.180        0.029       54.755        8.345        0.023      332.392        1.023      867.477
11/03/2014  00:20:00      -58.760      -14.294       -6.104       18.293       15.713       10.400      334.634      246.883      108.169        0.219        0.034       60.473        6.826        0.013      332.358        0.970      867.473
11/03/2014  00:21:00      -65.135       -2.148       -5.407       16.852        9.553        9.850      283.983       91.250       97.022        0.237        0.024       65.170        8.424        0.017      332.288        0.854      867.462
11/03/2014  00:22:00      -34.722      -14.761       -0.125       18.837       11.581        8.292      354.818      134.124       68.757        0.099        0.028       37.730        8.909        0.056      332.343        0.944      867.450
11/03/2014  00:23:00      -38.976      -19.701        2.866       17.894       15.840        9.966      320.179      250.911       99.314        0.129        0.034       43.673        8.839        0.041      332.410        1.054      867.441
11/03/2014  00:24:00      -48.779      -26.903       -1.975       13.696       16.600       11.410      187.584      275.546      130.180        0.185        0.030       55.706        8.551        0.024      332.430        1.087      867.436
11/03/2014  00:25:00      -58.380      -21.947      -10.695       16.532       11.222        9.813      273.323      125.933       96.300        0.225        0.025       62.369       10.105        0.026      332.429        1.085      867.427
11/03/2014  00:26:00      -71.177       -6.917       -7.232       17.650       14.609       10.955      311.507      213.411      120.008        0.291        0.032       71.512        7.201        0.010      332.417        1.066      867.422
11/03/2014  00:27:00      -92.182       -6.466       -8.122       14.882       15.868       10.879      221.464      251.798      118.343        0.460        0.030       92.409        7.126        0.006      332.318        0.903      867.408
11/03/2014  00:28:00      -77.216      -15.574       -2.818       27.107       20.153       14.394      734.775      406.151      207.200        0.378        0.067       78.771       15.281        0.038      332.256        0.800      867.393
11/03/2014  00:29:00      -75.057      -26.649       -0.838       27.004       16.374       12.322      729.199      268.120      151.834        0.375        0.057       79.647       10.631        0.018      332.230        0.758      867.387
11/03/2014  00:30:00      -60.358      -14.744        0.633       24.815       20.168       13.874      615.804      406.765      192.494        0.254        0.061       62.133       11.912        0.037      332.186        0.685      867.376
11/03/2014  00:31:00      -49.224      -24.739        2.418       24.463       21.264       14.446      598.441      452.139      208.678        0.215        0.063       55.091       10.265        0.035      332.187        0.687      867.366
11/03/2014  00:32:00      -64.258      -22.946       -3.302       14.924       16.952       11.243      222.728      287.385      126.403        0.265        0.032       68.232        5.779        0.007      332.299        0.870      867.349
11/03/2014  00:33:00      -55.457      -12.298        1.129       23.160       17.792       11.069      536.405      316.542      122.528        0.210        0.049       56.805       10.001        0.031      332.285        0.849      867.338
11/03/2014  00:34:00      -29.292       -7.224        2.206       25.843       16.133       10.333      667.875      260.284      106.777        0.097        0.052       30.169        9.676        0.103      332.248        0.787      867.330
11/03/2014  00:35:00      -74.719        5.852       -7.127       18.341       14.156       11.838      336.385      200.388      140.133        0.317        0.034       74.948       10.783        0.021      332.254        0.797      867.322
11/03/2014  00:36:00      -92.644       11.425      -16.260        6.524        7.192        5.955       42.563       51.725       35.459        0.455        0.006       93.346        2.172        0.001      332.332        0.925      867.302
11/03/2014  00:37:00      -85.388      -13.139      -14.793       15.286       14.197        9.009      233.673      201.551       81.169        0.410        0.026       86.393        5.350        0.004      332.420        1.071      867.265
11/03/2014  00:38:00      -89.933      -33.256      -14.957        8.424       10.474        8.025       70.964      109.712       64.394        0.483        0.012       95.885        3.482        0.001      332.375        0.995      867.228
11/03/2014  00:39:00      -75.533      -14.421       -5.565       13.282       16.397        8.760      176.402      268.848       76.735        0.323        0.026       76.897        6.871        0.008      332.340        0.938      867.201
11/03/2014  00:40:00      -49.469       -9.753       -4.017       14.216       10.751        7.576      202.101      115.577       57.393        0.147        0.019       50.421        3.858        0.006      332.302        0.877      867.199
11/03/2014  00:41:00       -4.879      -15.358       -2.361       14.038        8.454        9.654      197.072       71.470       93.202        0.031        0.018       16.114        5.384        0.112      332.406        1.048      867.205
11/03/2014  00:42:00        5.482       11.342        6.004       16.528        7.985       11.113      273.169       63.766      123.505        0.033        0.023       12.598       11.620        0.851      332.463        1.140      867.215
11/03/2014  00:43:00       19.594       14.519        1.335        9.042       11.088       11.764       81.763      122.951      138.401        0.047        0.017       24.387        3.434        0.020      332.473        1.160      867.224
11/03/2014  00:44:00        0.117       17.387       18.900        7.903        8.115        7.976       62.457       65.856       63.618        0.043        0.010       17.388        3.455        0.039      332.441        1.105      867.217
11/03/2014  00:45:00       -4.491        6.250       25.396        5.123       11.892        6.660       26.250      141.428       44.356        0.046        0.011        7.696        6.139        0.636      332.375        0.996      867.200
11/03/2014  00:46:00      -11.915       -3.633       10.301       15.358       12.720        9.985      235.859      161.789       99.698        0.038        0.025       12.456        9.125        0.537      332.241        0.774      867.173
11/03/2014  00:47:00      -38.929       -3.947       -3.346       12.866        8.828        6.058      165.546       77.939       36.703        0.091        0.014       39.128        4.056        0.011      332.183        0.680      867.159
11/03/2014  00:48:00      -25.076       -9.468       -0.205       13.007       10.909        7.980      169.194      119.013       63.678        0.054        0.018       26.804        4.338        0.026      332.234        0.765      867.140
11/03/2014  00:49:00      -53.839      -17.011       -2.283       10.880        9.890        7.360      118.364       97.809       54.175        0.173        0.014       56.463        3.993        0.005      332.144        0.617      867.125
11/03/2014  00:50:00      -65.425      -18.111       -4.745       13.044       10.822        6.007      170.148      117.109       36.088        0.248        0.016       67.886        4.234        0.004      332.173        0.665      867.117
11/03/2014  00:51:00      -75.697      -26.241       -4.394       16.203       14.609        7.886      262.549      213.435       62.183        0.349        0.027       80.116        7.211        0.008      332.200        0.707      867.107
11/03/2014  00:52:00      -79.744      -17.642       -6.199       20.291       18.610       14.273      411.731      346.335      203.712        0.384        0.048       81.672       13.386        0.027      332.188        0.689      867.104
11/03/2014  00:53:00     -118.325       -5.258      -13.735       22.485       15.822       13.238      505.573      250.346      175.250        0.757        0.047      118.442       11.983        0.010      332.052        0.463      867.112
11/03/2014  00:54:00     -118.925        7.552       -5.754       40.365       28.737       23.574     1629.333      825.822      555.732        0.862        0.151      119.164       23.834        0.040      331.917        0.242      867.127
11/03/2014  00:55:00     -111.757       -4.369       -3.624       36.730       24.699       21.670     1349.098      610.037      469.576        0.747        0.121      111.842       21.750        0.038      331.853        0.135      867.144
11/03/2014  00:56:00      -82.147       -4.409       -7.273       36.479       24.961       20.031     1330.733      623.055      401.223        0.459        0.118       82.265       19.499        0.056      331.845        0.122      867.153
11/03/2014  00:57:00      -87.813        5.400       -6.110       35.127       25.890       23.640     1233.905      670.291      558.872        0.512        0.123       87.979       19.288        0.048      331.936        0.273      867.153
11/03/2014  00:58:00      -76.106        4.585       -8.662       43.848       27.836       15.535     1922.622      774.859      241.329        0.441        0.147       76.244       15.746        0.043      332.051        0.463      867.138
11/03/2014  00:59:00      -43.431        1.561       -8.500       29.422       26.755       18.894      865.661      715.811      356.987        0.195        0.097       43.459       16.979        0.153      332.012        0.400      867.133
11/03/2014  01:00:00      -58.760        8.929      -15.471       26.721       22.078       15.435      714.016      487.417      238.242        0.261        0.072       59.434       10.954        0.034      332.047        0.455      867.122
11/03/2014  01:01:00      -44.511        1.254      -10.968       15.758       30.501       14.778      248.323      930.322      218.403        0.175        0.070       44.528       12.042        0.073      332.062        0.481      867.113
11/03/2014  01:02:00      -86.834      -26.682      -13.356       32.641       28.408       17.154     1065.423      807.029      294.270        0.530        0.108       90.841        9.704        0.011      332.081        0.512      867.103
11/03/2014  01:03:00        0.044      -47.186      -15.027       26.140       18.418       14.781      683.275      339.237      218.474        0.185        0.062       47.186        9.652        0.042      332.192        0.696      867.104
11/03/2014  01:04:00      -12.003      -40.651       -9.149       22.778       16.161       15.303      518.832      261.165      234.187        0.145        0.051       42.386       12.690        0.090      332.106        0.553      867.111
11/03/2014  01:05:00      -65.496      -23.629       -7.322       21.408       21.222       14.897      458.309      450.390      221.919        0.302        0.057       69.628        9.134        0.017      331.978        0.342      867.119
11/03/2014  01:06:00     -110.889      -10.338      -14.739       20.393       14.054       13.028      415.888      197.516      169.725        0.670        0.039      111.370        6.367        0.003      332.078        0.507      867.122
11/03/2014  01:07:00      -88.066      -16.841      -10.961       35.748       19.171       17.769     1277.941      367.528      315.748        0.506        0.098       89.661       21.589        0.058      332.039        0.443      867.120
11/03/2014  01:08:00      -92.438      -15.531       -6.677       48.853       20.364       17.662     2386.618      414.712      311.932        0.597        0.156       93.733       20.242        0.047      331.956        0.305      867.113
11/03/2014  01:09:00      -87.700      -33.752       -1.625       28.369       23.226       18.840      804.814      539.470      354.939        0.527        0.085       93.971       15.363        0.027      331.959        0.309      867.120
11/03/2014  01:10:00      -78.583      -40.125        4.238       28.359       24.269       16.653      804.218      588.967      277.326        0.474        0.084       88.235       13.838        0.025      332.068        0.490      867.120
11/03/2014  01:11:00      -63.626      -38.091        0.022       28.529       21.872       13.972      813.931      478.371      195.218        0.349        0.074       74.156       14.473        0.038      332.194        0.699      867.117
11/03/2014  01:12:00      -53.228      -39.192        5.551       41.434       22.670       19.523     1716.786      513.950      381.137        0.351        0.131       66.100       19.711        0.089      332.283        0.844      867.103
11/03/2014  01:13:00      -48.137      -51.006        5.356       41.896       30.921       18.716     1755.288      956.113      350.274        0.400        0.153       70.134       18.330        0.068      332.283        0.845      867.081
11/03/2014  01:14:00      -93.094      -67.165       -7.289       32.759       26.844       19.253     1073.144      720.623      370.696        0.770        0.108      114.794       18.921        0.027      332.308        0.886      867.048
11/03/2014  01:15:00     -101.505      -35.268       -4.821       32.788       26.078       19.045     1075.026      680.059      362.717        0.684        0.106      107.457       17.517        0.027      332.224        0.749      867.032
11/03/2014  01:16:00      -75.024      -28.422       -0.101       28.842       23.528       14.970      831.870      553.586      224.114        0.402        0.080       80.227        8.955        0.012      332.077        0.507      867.025
11/03/2014  01:17:00      -67.110      -39.425        1.538       22.442       19.211       11.437      503.656      369.080      130.815        0.353        0.050       77.833       11.082        0.020      332.125        0.584      867.030
11/03/2014  01:18:00      -83.980      -46.264       -5.385       15.387       20.679       11.581      236.760      427.636      134.128        0.501        0.040       95.880        6.833        0.005      332.179        0.674      867.033
11/03/2014  01:19:00     -104.163      -41.314      -11.499       19.408       22.213       16.095      376.684      493.419      259.064        0.691        0.056      112.057       13.685        0.015      332.137        0.605      867.046
11/03/2014  01:20:00     -128.532      -39.406       -6.854       24.999       12.577       14.534      624.928      158.182      211.231        0.956        0.050      134.437       14.518        0.012      331.972        0.332      867.073
11/03/2014  01:21:00      -96.930      -43.367       -5.210       38.233       23.516       22.802     1461.791      553.016      519.927        0.692        0.127      106.189       22.884        0.046      331.904        0.221      867.102
11/03/2014  01:22:00     -100.249      -42.426       -9.953       22.149       18.998       15.317      490.595      360.922      234.597        0.652        0.054      108.857        7.852        0.005      331.976        0.338      867.120
11/03/2014  01:23:00     -116.438      -24.188      -14.943       25.837       22.850       13.905      667.544      522.108      193.335        0.787        0.069      118.924       11.514        0.009      331.801        0.050      867.139
11/03/2014  01:24:00      -85.907      -10.079       -5.911       37.950       27.885       22.668     1440.197      777.568      513.835        0.512        0.137       86.496       21.894        0.064      331.746       -0.040      867.169
11/03/2014  01:25:00     -141.934       27.786      -11.561       42.730       28.927       17.353     1825.844      836.765      301.131        1.201        0.148      144.628       16.275        0.013      331.948        0.291      867.213
11/03/2014  01:26:00     -138.405      -17.808      -17.166       35.964       38.267       17.704     1293.407     1464.360      313.421        1.142        0.154      139.546       17.611        0.016      331.922        0.249      867.242
11/03/2014  01:27:00     -129.326      -16.121       -9.042       27.844       44.859       15.377      775.294     2012.304      236.450        1.004        0.151      130.327        9.717        0.006      331.913        0.235      867.255
11/03/2014  01:28:00     -128.577      -11.577      -15.056       27.524       28.982       19.334      757.561      839.978      373.805        0.943        0.099      129.097       14.783        0.013      331.909        0.228      867.258
11/03/2014  01:29:00     -139.137        3.845       -9.122       41.486       30.815       19.697     1721.099      949.591      387.983        1.126        0.153      139.190       19.513        0.020      331.921        0.247      867.270
11/03/2014  01:30:00     -136.035        3.270      -12.815       35.639       28.646       19.076     1270.169      820.573      363.894        1.057        0.123      136.074       18.199        0.018      331.859        0.148      867.280
11/03/2014  01:31:00      -87.768      -24.027       -3.765       25.960       33.948       19.316      673.936     1152.448      373.098        0.525        0.110       90.997        8.900        0.010      331.918        0.241      867.288
11/03/2014  01:32:00      -77.441       -0.805       -0.094       45.958       17.900       14.844     2112.130      320.410      220.346        0.432        0.133       77.445       19.330        0.062      331.924        0.253      867.306
11/03/2014  01:33:00      -22.290        4.793       -3.035       21.806       14.528       12.909      475.487      211.074      166.630        0.069        0.043       22.800       11.405        0.250      331.874        0.171      867.329
11/03/2014  01:34:00      -98.101       36.578      -12.890       29.274       25.925       16.007      856.944      672.099      256.213        0.646        0.089      104.699       13.306        0.016      331.976        0.338      867.346
11/03/2014  01:35:00      -56.331       14.213       -2.603       15.846       22.626       16.111      251.093      511.936      259.550        0.220        0.051       58.096       11.738        0.041      331.950        0.297      867.343
11/03/2014  01:36:00     -108.909       12.941      -15.480       26.625       18.442       15.267      708.912      340.109      233.094        0.677        0.064      109.675       10.879        0.010      332.043        0.450      867.345
11/03/2014  01:37:00      -98.830       23.118       -9.920       30.487       28.139       14.936      929.453      791.821      223.070        0.617        0.097      101.497       10.486        0.011      332.018        0.408      867.342
11/03/2014  01:38:00     -128.983       38.496      -11.767       34.315       26.555       15.321     1177.509      705.147      234.736        1.019        0.106      134.605       13.726        0.010      332.064        0.484      867.332
11/03/2014  01:39:00     -130.808        6.185      -17.786       26.934       30.728       16.004      725.449      944.223      256.132        0.970        0.096      130.954       13.798        0.011      332.040        0.444      867.335
11/03/2014  01:40:00     -100.773      -27.341       -8.975       42.022       31.078       20.495     1765.825      965.850      420.063        0.707        0.158      104.416       18.808        0.032      331.964        0.319      867.331
11/03/2014  01:41:00     -133.108       17.483       -7.039       35.303       29.267       16.785     1246.272      856.561      281.749        1.023        0.119      134.251       15.184        0.013      332.135        0.601      867.333
11/03/2014  01:42:00     -103.827        0.751       -6.867       30.583       26.873       11.616      935.290      722.179      134.926        0.631        0.090      103.830       11.519        0.012      332.079        0.509      867.344
11/03/2014  01:43:00     -102.772       13.894       -2.351       32.242       23.567       20.236     1039.547      555.382      409.482        0.638        0.100      103.707       17.173        0.027      332.072        0.497      867.365
11/03/2014  01:44:00     -113.858       14.241      -10.977       17.585       20.023       16.123      309.246      400.911      259.941        0.713        0.049      114.746       11.111        0.009      332.193        0.697      867.377
11/03/2014  01:45:00      -69.922      -34.578       -0.141       17.532       21.493       14.882      307.355      461.947      221.467        0.354        0.050       78.004        9.796        0.016      332.088        0.523      867.377
11/03/2014  01:46:00      -70.840      -42.549       -0.897       17.097       20.790       11.390      292.316      432.205      129.722        0.384        0.043       82.636        5.875        0.005      332.053        0.466      867.387
11/03/2014  01:47:00      -45.264      -20.633        0.388       31.800       36.301       14.379     1011.216     1317.769      206.767        0.250        0.127       49.745       12.537        0.064      332.081        0.512      867.394
11/03/2014  01:48:00      -47.837      -10.366       -0.757       29.029       33.309       16.544      842.659     1109.492      273.706        0.231        0.111       48.947       14.362        0.086      332.089        0.527      867.380
11/03/2014  01:49:00      -58.056      -18.500       -3.711       37.543       27.374       21.779     1409.507      749.355      474.322        0.318        0.132       60.932       17.258        0.080      332.009        0.393      867.376
11/03/2014  01:50:00      -61.456      -43.834       -4.051       31.573       19.328       16.504      996.853      373.575      272.378        0.368        0.082       75.487       16.962        0.050      332.058        0.475      867.393
11/03/2014  01:51:00      -82.055      -46.998      -13.814       14.041       15.620        8.754      197.136      243.987       76.626        0.483        0.026       94.561        8.690        0.008      331.936        0.272      867.408
11/03/2014  01:52:00      -64.664      -45.572       -0.155       29.044       26.129       13.664      843.574      682.708      186.695        0.399        0.086       79.109       12.846        0.026      332.026        0.420      867.412
11/03/2014  01:53:00     -108.538      -13.275      -11.634       20.171       19.455       12.108      406.886      378.489      146.606        0.651        0.047      109.347        6.516        0.004      331.927        0.258      867.420
11/03/2014  01:54:00     -101.034      -26.471      -11.976       20.545       20.986       14.854      422.113      440.413      220.638        0.607        0.054      104.444       10.902        0.011      331.933        0.267      867.425
11/03/2014  01:55:00     -110.328      -17.781      -11.257       27.692       22.959       19.252      766.857      527.104      370.634        0.714        0.083      111.752       11.959        0.011      331.907        0.225      867.436
11/03/2014  01:56:00     -124.977       -6.065       -9.228       35.075       27.481       21.233     1230.276      755.187      450.822        0.909        0.122      125.124       20.648        0.027      331.825        0.091      867.449
11/03/2014  01:57:00     -107.702      -10.672       -5.875       42.881       27.098       16.832     1838.756      734.295      283.305        0.730        0.143      108.230       16.808        0.024      331.841        0.116      867.453
11/03/2014  01:58:00     -112.356       -5.916       -9.198       39.423       31.644       24.800     1554.150     1001.313      615.030        0.796        0.159      112.512       22.943        0.042      331.995        0.370      867.451
11/03/2014  01:59:00     -129.870        2.798      -13.855       33.826       24.502       17.920     1144.212      600.330      321.111        0.957        0.103      129.900       17.212        0.018      332.028        0.423      867.437
11/03/2014  02:00:00     -142.166       -6.317      -13.083       29.710       18.831       17.289      882.689      354.621      298.909        1.098        0.077      142.306       13.618        0.009      332.046        0.454      867.416
11/03/2014  02:01:00     -127.526        0.202      -10.963       25.244       17.139       13.834      637.257      293.735      191.391        0.875        0.056      127.526       10.544        0.007      332.111        0.561      867.398
11/03/2014  02:02:00      -97.920      -12.794       -7.345       19.407       19.999       12.201      376.632      399.959      148.859        0.537        0.046       98.752       11.377        0.013      332.088        0.523      867.397
11/03/2014  02:03:00     -106.051      -35.556       -3.682       29.494       27.324       16.084      869.889      746.600      258.703        0.720        0.094      111.853       16.706        0.022      332.081        0.511      867.408
11/03/2014  02:04:00      -80.257      -35.691       -2.682       18.986       22.641       15.188      360.481      512.597      230.682        0.441        0.055       87.835        9.433        0.012      332.046        0.454      867.422
11/03/2014  02:05:00      -89.950      -18.536       -6.823       28.835       24.182       18.858      831.486      584.755      355.607        0.513        0.089       91.840       15.187        0.027      331.999        0.375      867.438
11/03/2014  02:06:00      -81.907      -26.947       -9.938       14.664       26.849       13.686      215.024      720.860      187.317        0.433        0.056       86.226        9.445        0.012      332.000        0.378      867.451
11/03/2014  02:07:00     -109.483      -12.863      -10.046       25.630       23.356       19.505      656.914      545.506      380.451        0.692        0.079      110.236       12.927        0.014      331.915        0.239      867.475
11/03/2014  02:08:00      -86.431      -21.144       -9.743       21.750       19.433       15.704      473.072      377.641      246.631        0.455        0.055       88.980       10.907        0.015      331.913        0.232      867.506
11/03/2014  02:09:00      -97.983      -40.410      -11.400       13.935       14.697       12.183      194.173      216.016      148.420        0.596        0.028      105.989        6.681        0.004      331.983        0.350      867.529
11/03/2014  02:10:00     -109.221      -49.243       -1.450       30.535       25.971       14.572      932.375      674.469      212.335        0.809        0.091      119.809       10.096        0.007      332.007        0.390      867.552
11/03/2014  02:11:00     -108.890      -25.127       -5.440       27.666       20.089       15.423      765.391      403.570      237.884        0.696        0.070      111.751       18.030        0.026      332.006        0.388      867.570
11/03/2014  02:12:00      -66.426      -43.235        3.649       45.276       26.355       19.757     2049.918      694.569      390.319        0.471        0.157       79.257       16.386        0.043      332.052        0.463      867.582
11/03/2014  02:13:00      -54.928      -51.462        5.028       37.115       33.331       24.490     1377.504     1110.966      599.777        0.439        0.154       75.269       19.889        0.070      332.060        0.477      867.588
11/03/2014  02:14:00      -75.657      -64.210       -1.040       35.825       33.064       19.625     1283.415     1093.222      385.151        0.630        0.138       99.232       11.572        0.014      332.055        0.468      867.603
11/03/2014  02:15:00      -77.737      -66.666        8.299       43.021       42.311       21.748     1850.792     1790.222      472.967        0.733        0.206      102.408       24.211        0.056      331.961        0.314      867.598
11/03/2014  02:16:00     -122.460      -60.325        0.794       44.480       26.883       23.832     1978.494      722.715      567.967        1.095        0.163      136.512       14.700        0.012      331.951        0.296      867.584
11/03/2014  02:17:00     -108.098      -38.326        7.341       45.458       29.975       23.821     2066.456      898.483      567.441        0.837        0.177      114.691       22.529        0.039      331.909        0.227      867.560
11/03/2014  02:18:00      -77.598      -69.545        0.116       59.246       31.554       23.127     3510.030      995.633      534.849        0.795        0.252      104.202       24.698        0.056      331.943        0.284      867.533
11/03/2014  02:19:00      -75.518      -54.601       10.273       45.743       32.643       26.910     2092.462     1065.538      724.135        0.634        0.194       93.189       25.590        0.075      331.938        0.276      867.510
11/03/2014  02:20:00      -92.334      -64.762        0.011       41.030       34.429       21.720     1683.488     1185.371      471.746        0.803        0.167      112.781       20.692        0.034      331.970        0.329      867.497
11/03/2014  02:21:00      -78.380      -65.237        8.967       46.950       31.069       19.377     2204.305      965.312      375.485        0.701        0.177      101.977       19.256        0.036      331.953        0.301      867.481
11/03/2014  02:22:00      -67.131      -83.853        3.391       38.396       41.136       17.960     1474.251     1692.209      322.549        0.752        0.174      107.414       22.494        0.044      331.896        0.206      867.470
11/03/2014  02:23:00      -81.386      -78.000       -4.275       30.740       36.386       19.301      944.976     1323.925      372.537        0.768        0.132      112.728       14.624        0.017      331.910        0.228      867.456
11/03/2014  02:24:00      -90.567      -96.153       -8.728       32.430       33.666       18.178     1051.710     1133.425      330.458        1.002        0.126      132.090       16.880        0.016      331.886        0.192      867.455
11/03/2014  02:25:00      -91.302      -67.042       -7.983       47.669       30.500       21.711     2272.321      930.238      471.386        0.828        0.184      113.272       17.247        0.023      331.879        0.179      867.455
11/03/2014  02:26:00      -98.555      -92.276       -5.246       24.898       26.633       21.810      619.897      709.335      475.665        1.003        0.090      135.011       15.729        0.014      331.899        0.211      867.468
11/03/2014  02:27:00      -82.433      -81.986      -11.129       29.896       29.438       21.108      893.792      866.574      445.564        0.792        0.110      116.263       17.146        0.022      331.947        0.290      867.467
11/03/2014  02:28:00      -76.743      -38.127       -3.833       26.469       21.665       15.636      700.630      469.390      244.477        0.439        0.071       85.692       11.191        0.017      331.904        0.220      867.472
11/03/2014  02:29:00      -23.026      -30.237       -9.547       23.962       17.550       12.363      574.182      307.996      152.836        0.129        0.052       38.006        9.050        0.057      332.008        0.392      867.475
11/03/2014  02:30:00      -22.057      -35.843        0.084       40.283       32.821       17.125     1622.681     1077.200      293.255        0.238        0.150       42.086       24.288        0.333      331.984        0.354      867.473
11/03/2014  02:31:00      -45.784      -42.927        1.312       32.528       24.618       18.216     1058.067      606.068      331.812        0.297        0.100       62.760       15.403        0.060      331.977        0.340      867.467
11/03/2014  02:32:00      -41.172      -35.786        6.052       33.563       24.286       14.791     1126.442      589.806      218.761        0.247        0.097       54.551       11.883        0.047      332.046        0.454      867.473
11/03/2014  02:33:00      -42.407      -35.716       10.076       39.057       25.115       20.426     1525.449      630.747      417.222        0.287        0.129       55.444       22.272        0.161      331.987        0.357      867.501
11/03/2014  02:34:00      -80.445      -50.471       -1.420       27.044       30.647       18.601      731.385      939.253      345.984        0.552        0.101       94.967       14.088        0.022      331.940        0.278      867.544
11/03/2014  02:35:00      -53.917      -32.596        8.872       45.678       26.216       20.043     2086.469      687.304      401.742        0.361        0.159       63.004       19.585        0.097      331.945        0.288      867.576
11/03/2014  02:36:00      -83.354      -45.880        3.514       33.611       20.709       16.054     1129.706      428.873      257.721        0.544        0.091       95.146       14.467        0.023      331.879        0.178      867.599
11/03/2014  02:37:00      -94.869      -32.994       -4.452       24.713       32.469       14.148      610.720     1054.207      200.161        0.599        0.093      100.442       14.590        0.021      331.892        0.199      867.613
11/03/2014  02:38:00     -117.617      -16.443      -10.497       18.122       17.623       15.817      328.402      310.556      250.192        0.755        0.044      118.761       12.111        0.010      331.767       -0.005      867.620
11/03/2014  02:39:00     -106.556       -1.300       -5.651       36.475       17.155       21.827     1330.414      294.310      476.433        0.674        0.105      106.563       22.744        0.046      331.654       -0.190      867.624
11/03/2014  02:40:00     -116.201        0.475       -8.295       28.201       22.672       21.645      795.276      514.026      468.485        0.767        0.089      116.202       18.663        0.026      331.565       -0.338      867.627
11/03/2014  02:41:00      -97.245      -16.598       -5.094       29.469       21.709       16.705      868.445      471.283      279.048        0.569        0.081       98.651       16.972        0.030      331.588       -0.300      867.633
11/03/2014  02:42:00      -72.419      -12.105        2.258       29.399       22.861       13.369      864.319      522.604      178.737        0.348        0.078       73.424       12.202        0.028      331.617       -0.252      867.631
11/03/2014  02:43:00      -84.489      -19.839       -7.014       20.391       15.229       13.437      415.805      231.938      180.540        0.420        0.041       86.787       13.101        0.023      331.633       -0.226      867.623
11/03/2014  02:44:00      -72.910      -16.752      -11.479       13.518       15.321       12.276      182.727      234.745      150.689        0.315        0.028       74.810        6.754        0.008      331.611       -0.263      867.607
11/03/2014  02:45:00      -82.147      -10.911      -10.468       20.021       11.138        9.792      400.824      124.053       95.884        0.380        0.031       82.869        8.452        0.010      331.674       -0.155      867.588
11/03/2014  02:46:00      -87.607      -24.690      -15.375       13.392       10.681        9.798      179.340      114.080       96.003        0.446        0.019       91.020        7.681        0.007      331.752       -0.033      867.560
11/03/2014  02:47:00      -67.586      -11.207       -5.326       20.862       14.057       11.148      435.203      197.591      124.287        0.274        0.038       68.509        9.640        0.020      331.691       -0.129      867.532
11/03/2014  02:48:00      -70.946       -9.018       -9.876       12.560       10.355        9.025      157.760      107.235       81.452        0.278        0.017       71.517        6.009        0.007      331.775        0.008      867.517
11/03/2014  02:49:00      -64.187      -12.130       -8.062       12.288       10.556        9.573      151.004      111.428       91.643        0.234        0.018       65.323        6.763        0.011      331.806        0.059      867.491
11/03/2014  02:50:00      -50.618      -19.047       -2.155       12.889       10.628        9.612      166.125      112.964       92.383        0.165        0.019       54.083        7.846        0.021      331.843        0.121      867.474
11/03/2014  02:51:00      -39.011      -19.218       -5.600       13.223       11.016        6.127      174.849      121.359       37.536        0.113        0.017       43.488        5.444        0.016      331.824        0.087      867.470
11/03/2014  02:52:00       -5.026      -12.203       -0.805       10.314       14.126       10.206      106.376      199.550      104.169        0.029        0.021       13.197       11.161        0.715      331.834        0.102      867.465
11/03/2014  02:53:00       14.903        4.897       13.223       10.283       14.302        7.919      105.742      204.556       62.710        0.040        0.019       15.687        9.069        0.334      331.756       -0.023      867.468
11/03/2014  02:54:00       10.819       33.299       -0.655        7.975        6.396        8.012       63.596       40.910       64.196        0.070        0.008       35.013        5.505        0.025      331.776        0.008      867.463
11/03/2014  02:55:00       -3.482       42.384       -4.708        4.493        6.130        3.837       20.191       37.582       14.723        0.095        0.004       42.527        1.494        0.001      331.742       -0.048      867.455
11/03/2014  02:56:00      -30.067       38.087      -10.059       16.120        7.492        5.811      259.867       56.131       33.772        0.140        0.017       48.524        2.538        0.003      331.740       -0.051      867.449
11/03/2014  02:57:00      -43.887       18.057       -6.775        8.159       10.462        5.364       66.570      109.451       28.776        0.125        0.010       47.457        2.915        0.004      331.772        0.004      867.441
11/03/2014  02:58:00      -53.194        1.611       -5.522        8.003        8.168        6.837       64.043       66.714       46.744        0.152        0.009       53.218        3.968        0.006      331.770       -0.001      867.431
11/03/2014  02:59:00      -67.501      -15.709      -14.143        9.622        6.639        7.803       92.587       44.070       60.883        0.260        0.010       69.305        3.277        0.002      331.674       -0.158      867.440
11/03/2014  03:00:00      -81.647       -5.017      -12.025       16.111       13.732       10.440      259.564      188.577      108.995        0.370        0.028       81.801        7.413        0.008      331.638       -0.218      867.443
11/03/2014  03:01:00      -64.370      -14.267       -9.801       11.037       12.397        7.263      121.810      153.697       52.749        0.239        0.016       65.932        5.287        0.006      331.574       -0.323      867.470
11/03/2014  03:02:00      -41.045      -36.620       -8.081       17.762       11.044       11.845      315.476      121.970      140.300        0.183        0.029       55.006        7.643        0.019      331.609       -0.265      867.491
11/03/2014  03:03:00      -53.436      -24.431      -13.553       17.939       14.724       14.437      321.806      216.791      208.432        0.219        0.037       58.756        7.055        0.014      331.636       -0.221      867.508
11/03/2014  03:04:00      -14.709      -21.521       -0.976       18.753       23.119       15.241      351.690      534.468      232.285        0.090        0.056       26.067       10.659        0.167      331.615       -0.257      867.519
11/03/2014  03:05:00      -16.343      -33.238        4.046       25.243       16.550       15.184      637.187      273.909      230.554        0.126        0.057       37.039       16.319        0.194      331.679       -0.151      867.516
11/03/2014  03:06:00      -14.334      -34.839        9.622       24.468       11.275       16.298      598.693      127.120      265.627        0.125        0.050       37.673       17.779        0.223      331.597       -0.285      867.513
11/03/2014  03:07:00      -27.506      -15.629        2.455       19.464       11.594       13.345      378.849      134.421      178.090        0.085        0.035       31.636        9.311        0.087      331.544       -0.372      867.514
11/03/2014  03:08:00      -36.369      -33.651       -5.651       19.148       12.453       14.512      366.659      155.070      210.592        0.161        0.037       49.549       13.307        0.072      331.588       -0.299      867.517
11/03/2014  03:09:00      -61.879      -45.547      -14.788       22.629       17.252       13.253      512.077      297.635      175.653        0.355        0.049       76.835       12.506        0.026      331.617       -0.253      867.523
11/03/2014  03:10:00      -76.836      -42.805      -12.224       25.459       14.503       16.773      648.137      210.333      281.338        0.451        0.057       87.955       12.932        0.022      331.534       -0.389      867.524
11/03/2014  03:11:00      -67.405      -39.654       -0.776       38.518       25.624       19.456     1483.620      656.604      378.525        0.432        0.126       78.204       18.545        0.056      331.512       -0.426      867.515
11/03/2014  03:12:00      -50.687      -34.574        0.557       34.968       28.152       20.410     1222.741      792.554      416.583        0.310        0.122       61.356       20.892        0.116      331.505       -0.437      867.506
11/03/2014  03:13:00      -44.741      -30.787        7.819       31.589       24.360       17.782      997.871      593.429      316.197        0.246        0.095       54.310       18.875        0.121      331.528       -0.399      867.492
11/03/2014  03:14:00      -64.076      -21.308       -5.662       25.708       31.119       15.745      660.907      968.423      247.907        0.323        0.094       67.526       17.362        0.066      331.519       -0.414      867.482
11/03/2014  03:15:00      -41.637       -4.321       -2.830       13.117       14.892       12.254      172.057      221.774      150.155        0.115        0.027       41.861       10.713        0.065      331.561       -0.344      867.461
11/03/2014  03:16:00      -33.568       -2.353       -8.848       15.854       21.473       12.986      251.341      461.080      168.648        0.105        0.044       33.650       10.618        0.100      331.614       -0.257      867.446
11/03/2014  03:17:00       -8.475        0.285       -0.564       13.228        8.300        5.656      174.988       68.891       31.985        0.017        0.014        8.480        4.050        0.228      331.646       -0.204      867.437
11/03/2014  03:18:00       19.352       28.980        5.907       16.635       10.288       10.084      276.727      105.848      101.692        0.087        0.024       34.847       10.205        0.086      331.881        0.181      867.431
11/03/2014  03:19:00       31.619       30.338        7.036        5.379        5.772        6.744       28.935       33.317       45.486        0.104        0.005       43.819        2.053        0.002      331.819        0.081      867.438
11/03/2014  03:20:00       26.554       24.443       -5.817        4.521        5.117        3.512       20.441       26.187       12.331        0.070        0.003       36.091        2.509        0.005      331.636       -0.222      867.440
11/03/2014  03:21:00       45.418       24.527        1.411       17.534       11.412       10.253      307.451      130.237      105.114        0.160        0.027       51.618        8.261        0.026      331.669       -0.165      867.433
11/03/2014  03:22:00       61.039       35.917        5.023        7.465        9.269       10.178       55.732       85.911      103.588        0.264        0.012       70.822        5.375        0.006      331.686       -0.138      867.428
11/03/2014  03:23:00       56.190       45.299       27.290       16.601       12.459       15.335      275.596      155.219      235.157        0.331        0.033       72.175        7.790        0.012      331.677       -0.154      867.414
11/03/2014  03:24:00       59.957       61.883       41.022       19.211       19.154       22.793      369.063      366.872      519.502        0.518        0.063       86.164       11.588        0.018      331.818        0.078      867.394
11/03/2014  03:25:00       52.671       56.629       40.379       28.934       25.307       27.931      837.177      640.435      780.131        0.493        0.113       77.338       17.206        0.049      331.712       -0.095      867.380
11/03/2014  03:26:00       51.215       46.710       51.063       29.888       33.610       23.864      893.279     1129.628      569.493        0.500        0.130       69.317       20.291        0.086      331.664       -0.175      867.349
11/03/2014  03:27:00       61.446       32.623       32.605       26.631       27.222       26.276      709.203      741.018      690.412        0.402        0.107       69.569       11.736        0.028      331.653       -0.192      867.328
11/03/2014  03:28:00       54.486       19.628       26.255       32.923       26.014       25.825     1083.939      676.716      666.916        0.323        0.121       57.913       19.093        0.109      331.698       -0.118      867.313
11/03/2014  03:29:00       43.020       40.085       43.747       18.429       20.722       19.119      339.618      429.396      365.538        0.325        0.057       58.801       10.934        0.035      331.635       -0.222      867.307
11/03/2014  03:30:00       52.345       51.875       27.442       21.715       19.775       18.632      471.522      391.055      347.164        0.370        0.060       73.695        9.461        0.016      331.585       -0.304      867.317
11/03/2014  03:31:00       19.144       19.117       23.252       15.666       17.705       16.919      245.430      313.453      286.256        0.106        0.042       27.054        8.157        0.091      331.519       -0.414      867.330
11/03/2014  03:32:00       42.718      -33.820        1.466       22.309       31.734       18.443      497.675     1007.064      340.154        0.241        0.092       54.485       19.436        0.127      331.603       -0.275      867.326
11/03/2014  03:33:00       29.599      -47.770       -4.653       33.075       37.497       19.356     1093.926     1406.062      374.647        0.303        0.144       56.197       24.230        0.186      331.694       -0.125      867.325
11/03/2014  03:34:00       14.056      -44.378       -0.978       29.434       19.101       20.631      866.372      364.852      425.639        0.191        0.083       46.551       20.025        0.185      331.705       -0.107      867.328
11/03/2014  03:35:00       10.680      -35.374        1.053       28.343       20.214       17.674      803.306      408.618      312.382        0.145        0.076       36.951       16.349        0.196      331.744       -0.044      867.320
11/03/2014  03:36:00        9.474      -41.025       -8.998       18.668       17.774       16.680      348.483      315.930      278.211        0.140        0.047       42.105       10.593        0.063      331.771        0.001      867.308
11/03/2014  03:37:00       -2.091      -27.082        5.076       20.550       14.679       18.126      422.298      215.485      328.561        0.086        0.048       27.162        7.969        0.086      331.749       -0.036      867.302
11/03/2014  03:38:00      -31.499       -6.773       -8.707       10.519        7.201        5.593      110.658       51.859       31.277        0.065        0.010       32.219        3.726        0.013      331.757       -0.024      867.302
11/03/2014  03:39:00       -8.955        5.734        3.057       10.771        7.781        9.301      116.010       60.549       86.501        0.019        0.013       10.633        8.038        0.571      331.682       -0.144      867.314
11/03/2014  03:40:00      -21.658        5.164       -4.866       18.915        5.609        5.318      357.796       31.465       28.282        0.047        0.021       22.265        2.493        0.013      331.611       -0.262      867.327
11/03/2014  03:41:00      -31.114       12.657        1.309        9.922        6.377        6.723       98.447       40.669       45.198        0.066        0.009       33.590        4.363        0.017      331.636       -0.219      867.352
11/03/2014  03:42:00      -25.401       -3.020       -0.646       14.003        9.804        6.799      196.072       96.119       46.220        0.050        0.017       25.580        6.692        0.068      331.607       -0.268      867.373
11/03/2014  03:43:00      -57.179       -9.644       -2.934       21.202       17.426       11.068      449.533      303.657      122.507        0.212        0.044       57.987       10.328        0.032      331.598       -0.284      867.392
11/03/2014  03:44:00      -93.017      -43.241       -3.912       23.041       17.643       10.984      530.902      311.261      120.656        0.575        0.048      102.576        8.851        0.007      331.602       -0.276      867.414
11/03/2014  03:45:00      -89.574      -21.722        0.044       30.482       24.789       16.040      929.136      614.490      257.290        0.515        0.090       92.170       13.114        0.020      331.591       -0.294      867.423
11/03/2014  03:46:00      -93.755      -13.700       -3.863       20.234       21.088       17.130      409.427      444.687      293.424        0.507        0.057       94.751        7.980        0.007      331.498       -0.449      867.425
11/03/2014  03:47:00     -117.196        6.486      -11.282       25.520       18.875       16.451      651.290      356.249      270.647        0.759        0.064      117.376       13.297        0.013      331.308       -0.760      867.434
11/03/2014  03:48:00     -105.897       -1.541       -5.929       34.575       21.890       16.034     1195.446      479.186      257.082        0.659        0.097      105.908       18.222        0.030      331.256       -0.846      867.442
11/03/2014  03:49:00      -98.975       -1.509       -6.328       43.029       24.177       23.344     1851.535      584.533      544.943        0.641        0.149       98.986       24.324        0.060      331.239       -0.874      867.451
11/03/2014  03:50:00     -100.390      -10.966       -5.842       35.007       24.407       19.242     1225.503      595.720      370.249        0.621        0.110      100.987       19.042        0.036      331.239       -0.875      867.459
11/03/2014  03:51:00      -96.353       -7.112       -1.775       40.476       22.248       19.752     1638.321      494.967      390.149        0.593        0.126       96.615       20.229        0.044      331.304       -0.767      867.463
11/03/2014  03:52:00      -88.524      -14.817       -9.782       30.602       26.569       17.928      936.503      705.931      321.399        0.506        0.098       89.755       16.829        0.035      331.315       -0.748      867.459
11/03/2014  03:53:00     -112.033       -3.575      -14.139       26.680       14.836       16.551      711.848      220.093      273.932        0.698        0.060      112.090       13.546        0.015      331.349       -0.695      867.462
11/03/2014  03:54:00      -94.492      -13.315       -7.479       16.218       15.757       14.360      263.021      248.297      206.221        0.494        0.036       95.426       10.095        0.011      331.388       -0.630      867.467
11/03/2014  03:55:00      -60.095      -11.154        1.079       21.823       18.055       13.762      476.242      325.987      189.386        0.236        0.050       61.121       10.854        0.032      331.502       -0.442      867.459
11/03/2014  03:56:00      -55.268      -21.343       -1.023       18.253       12.374        9.284      333.159      153.121       86.196        0.204        0.029       59.246        9.064        0.023      331.568       -0.334      867.457
11/03/2014  03:57:00      -43.661      -29.364       -4.436       15.897       11.418        9.006      252.712      130.371       81.115        0.163        0.023       52.617        8.738        0.028      331.607       -0.269      867.464
11/03/2014  03:58:00      -56.239      -13.966       -8.407        8.290       11.321        8.089       68.728      128.158       65.426        0.185        0.013       57.947        5.313        0.008      331.638       -0.218      867.476
11/03/2014  03:59:00      -65.841      -22.101       -5.824       11.265       12.802        9.369      126.896      163.879       87.779        0.262        0.019       69.451        4.954        0.005      331.596       -0.288      867.492
11/03/2014  04:00:00      -67.818      -34.581       -8.040       11.716       15.482        9.310      137.270      239.688       86.671        0.316        0.023       76.126        6.616        0.008      331.491       -0.460      867.510
11/03/2014  04:01:00      -64.961      -23.440       -8.738       22.592       16.122       11.981      510.384      259.927      143.535        0.288        0.046       69.060       11.884        0.030      331.408       -0.596      867.525
11/03/2014  04:02:00      -69.700       -9.646       -8.030       30.900       20.478       14.529      954.803      419.335      211.092        0.330        0.079       70.364       13.740        0.038      331.373       -0.655      867.530
11/03/2014  04:03:00      -34.585       -3.566       -8.533       27.601       20.489       13.110      761.799      419.781      171.864        0.132        0.068       34.768       13.476        0.150      331.314       -0.750      867.540
11/03/2014  04:04:00      -39.478      -21.621       -9.766       15.892       13.150        6.816      252.561      172.918       46.452        0.130        0.024       45.011        5.275        0.014      331.359       -0.676      867.546
11/03/2014  04:05:00      -36.667      -25.669       -6.381       12.990       11.097        8.418      168.743      123.140       70.858        0.120        0.018       44.759        7.419        0.027      331.414       -0.586      867.540
11/03/2014  04:06:00      -35.913      -22.176      -10.632       14.047       15.331       11.711      197.311      235.039      137.155        0.123        0.028       42.208        8.460        0.040      331.544       -0.372      867.530
11/03/2014  04:07:00      -20.832      -19.830       -5.792       12.715       10.049        8.707      161.660      100.979       75.811        0.060        0.017       28.761        7.640        0.071      331.574       -0.324      867.515
11/03/2014  04:08:00       -4.050       -6.066        1.925       10.697        5.620        7.849      114.428       31.587       61.604        0.013        0.010        7.294        5.302        0.528      331.559       -0.346      867.510
11/03/2014  04:09:00      -11.032      -10.373        0.134       13.295        7.336        7.502      176.750       53.810       56.281        0.026        0.014       15.143        8.404        0.308      331.666       -0.171      867.512
11/03/2014  04:10:00      -28.133       -0.945       -4.789        4.045        3.070        3.790       16.365        9.425       14.361        0.043        0.002       28.149        1.575        0.003      331.909        0.229      867.519
11/03/2014  04:11:00      -31.484       -8.419      -10.624        6.951        7.158        6.359       48.322       51.232       40.436        0.066        0.007       32.591        4.302        0.017      331.732       -0.062      867.536
11/03/2014  04:12:00      -44.722      -10.421       -8.362        6.298        9.452        6.378       39.664       89.339       40.682        0.117        0.008       45.920        2.987        0.004      331.666       -0.170      867.544
11/03/2014  04:13:00      -46.535       -9.837       -9.878        7.642        5.367        4.804       58.401       28.809       23.075        0.124        0.006       47.563        2.552        0.003      331.659       -0.182      867.551
11/03/2014  04:14:00      -47.372       -7.250       -8.681        4.915        5.796        5.590       24.154       33.596       31.252        0.123        0.004       47.923        3.113        0.004      331.657       -0.185      867.554
11/03/2014  04:15:00      -38.288      -16.615       -9.063        8.268        6.094        6.785       68.364       37.139       46.038        0.099        0.008       41.738        4.488        0.012      331.652       -0.192      867.562
11/03/2014  04:16:00      -33.626      -13.630       -9.950        5.431        4.805        4.632       29.491       23.090       21.459        0.074        0.004       36.284        1.486        0.002      331.691       -0.127      867.565
11/03/2014  04:17:00      -19.783       -6.113       -5.089        8.202        5.597        5.083       67.272       31.330       25.838        0.029        0.006       20.706        5.377        0.067      331.760       -0.016      867.563
11/03/2014  04:18:00      -11.483       -0.307       -3.472        7.301        4.480        4.434       53.298       20.071       19.657        0.012        0.005       11.487        2.575        0.050      331.744       -0.041      867.550
11/03/2014  04:19:00      -32.898       -0.705       -4.314        9.221        6.423        5.503       85.018       41.256       30.286        0.063        0.008       32.905        3.833        0.014      331.733       -0.059      867.537
11/03/2014  04:20:00      -38.115      -12.904       -4.965       12.300        8.061        5.624      151.281       64.984       31.625        0.095        0.012       40.240        3.279        0.007      331.619       -0.249      867.539
11/03/2014  04:21:00      -53.859      -18.185       -9.497       11.121        9.912        7.745      123.678       98.246       59.989        0.180        0.014       56.846        6.707        0.014      331.605       -0.271      867.548
11/03/2014  04:22:00      -70.607      -18.577      -11.785        9.168       10.443        8.621       84.060      109.058       74.330        0.287        0.013       73.010        5.054        0.005      331.586       -0.304      867.559
11/03/2014  04:23:00      -89.355      -13.440      -12.518       24.951       10.786        9.024      622.573      116.328       81.435        0.457        0.041       90.360        7.973        0.008      331.407       -0.598      867.573
11/03/2014  04:24:00     -119.260      -12.950      -15.293       18.917       13.011        9.986      357.837      169.289       99.718        0.763        0.031      119.961        2.350        0.000      331.285       -0.797      867.584
11/03/2014  04:25:00     -101.691      -29.779       -6.756       22.572       26.440       14.646      509.478      699.080      214.499        0.635        0.071      105.961       13.546        0.016      331.281       -0.803      867.605
11/03/2014  04:26:00     -107.508      -41.596      -13.045       19.370       20.683       10.829      375.211      427.782      117.278        0.719        0.046      115.275        9.031        0.006      331.334       -0.718      867.620
11/03/2014  04:27:00      -88.387      -38.671       -9.362       15.740       20.890       12.480      247.739      436.376      155.762        0.512        0.042       96.477        8.330        0.007      331.383       -0.637      867.628
11/03/2014  04:28:00      -55.294      -39.235       -0.125       34.763       13.419       17.611     1208.447      180.063      310.156        0.315        0.085       67.800       19.091        0.079      331.424       -0.569      867.644
11/03/2014  04:29:00      -14.630      -24.217        6.228       26.033       18.585       11.850      677.725      345.388      140.418        0.100        0.058       28.293       10.005        0.125      331.516       -0.418      867.652
11/03/2014  04:30:00        1.564      -11.962        5.260       22.367       14.349       14.044      500.263      205.903      197.230        0.054        0.045       12.064       11.569        0.920      331.455       -0.520      867.649
11/03/2014  04:31:00      -98.184      -69.784        0.599       33.806       37.263       23.931     1142.877     1388.502      572.701        0.881        0.155      120.457       18.244        0.023      331.528       -0.400      867.645
11/03/2014  04:32:00      -80.810      -45.794        2.896       44.659       38.627       30.695     1994.391     1492.054      942.176        0.653        0.221       92.884       26.523        0.082      331.451       -0.526      867.636
11/03/2014  04:33:00      -79.193      -76.295        5.168       69.887       50.739       32.252     4884.209     2574.448     1040.177        1.031        0.425      109.966       26.267        0.057      331.386       -0.633      867.644
11/03/2014  04:34:00     -128.326     -126.252       -7.921       55.127       48.108       31.195     3038.997     2314.349      973.154        1.940        0.316      180.020       26.940        0.022      331.302       -0.773      867.651
11/03/2014  04:35:00     -129.242     -122.721      -13.696       48.776       40.542       28.648     2379.069     1643.630      820.705        1.840        0.242      178.225       20.806        0.014      331.296       -0.780      867.662
11/03/2014  04:36:00     -109.770     -122.631       -5.647       28.275       27.202       24.276      799.504      739.943      589.307        1.462        0.106      164.584       21.895        0.018      331.294       -0.783      867.675
11/03/2014  04:37:00      -63.416      -68.189        9.568       37.747       41.256       21.905     1424.848     1702.028      479.816        0.618        0.180       93.120       15.010        0.026      331.337       -0.713      867.671
11/03/2014  04:38:00      -83.933      -43.764        2.040       51.430       30.123       23.332     2645.054      907.423      544.368        0.653        0.205       94.657       29.791        0.099      331.429       -0.564      867.666
11/03/2014  04:39:00      -23.851      -28.644       11.680       32.386       17.035       17.793     1048.882      290.183      316.577        0.159        0.083       37.274       17.181        0.212      331.364       -0.668      867.660
11/03/2014  04:40:00      -56.004      -34.769        4.470       46.785       23.094       18.605     2188.860      533.322      346.133        0.372        0.153       65.919       21.796        0.109      331.335       -0.717      867.652
11/03/2014  04:41:00      -80.096      -62.772       -2.478       27.874       28.335       17.587      776.965      802.886      309.287        0.613        0.094      101.763       13.637        0.018      331.326       -0.732      867.651
11/03/2014  04:42:00      -68.038      -48.893        5.496       40.445       22.578       22.027     1635.831      509.760      485.196        0.484        0.132       83.784       17.565        0.044      331.281       -0.805      867.659
11/03/2014  04:43:00     -100.647      -76.038       -4.083       38.443       26.643       22.979     1477.830      709.823      528.050        0.932        0.136      126.141       19.091        0.023      331.262       -0.836      867.685
11/03/2014  04:44:00     -114.066      -75.523       -3.126       35.445       27.252       19.811     1256.383      742.690      392.485        1.056        0.120      136.802       12.804        0.009      331.237       -0.878      867.703
11/03/2014  04:45:00     -108.153      -73.132       -6.085       39.646       28.328       18.818     1571.794      802.453      354.132        0.990        0.136      130.558       20.212        0.024      331.237       -0.876      867.716
11/03/2014  04:46:00     -112.695      -81.447       -5.979       27.305       29.474       19.906      745.586      868.739      396.234        1.069        0.101      139.046       13.043        0.009      331.242       -0.869      867.723
11/03/2014  04:47:00     -131.858      -75.187      -14.851       32.449       26.510       23.418     1052.932      702.805      548.423        1.278        0.115      151.788       14.658        0.009      331.266       -0.828      867.724
11/03/2014  04:48:00     -144.681      -53.399      -15.884       53.966       32.460       24.736     2912.331     1053.676      611.856        1.431        0.229      154.221       20.967        0.018      331.224       -0.898      867.727
11/03/2014  04:49:00     -129.644      -53.826       -6.726       34.954       32.549       20.990     1221.810     1059.410      440.588        1.124        0.136      140.373       13.179        0.009      331.214       -0.916      867.735
11/03/2014  04:50:00     -121.546      -42.863        1.090       39.162       24.592       18.790     1533.633      604.779      353.057        0.955        0.125      128.882       18.991        0.022      331.167       -0.992      867.745
11/03/2014  04:51:00     -117.392      -63.392       -5.861       37.042       26.069       20.449     1372.131      679.606      418.164        1.015        0.123      133.415       20.876        0.024      331.229       -0.889      867.743
11/03/2014  04:52:00     -116.640      -46.605       -5.224       31.642       23.593       17.821     1001.216      556.610      317.606        0.884        0.094      125.607       15.350        0.015      331.173       -0.983      867.734
11/03/2014  04:53:00     -128.753      -34.300       -3.611       40.000       29.939       20.876     1600.005      896.365      435.811        1.035        0.147      133.243       17.078        0.016      331.095       -1.112      867.733
11/03/2014  04:54:00     -171.910      -43.210       -1.977       36.979       31.117       21.294     1367.443      968.258      453.433        1.711        0.139      177.257       21.167        0.014      331.080       -1.137      867.743
11/03/2014  04:55:00     -133.428      -51.909        2.783       59.936       33.957       25.219     3592.384     1153.070      636.022        1.294        0.269      143.170       28.749        0.040      331.153       -1.015      867.749
11/03/2014  04:56:00     -149.705      -57.216       -7.091       41.375       22.176       22.665     1711.857      491.762      513.698        1.423        0.136      160.266       20.781        0.017      331.181       -0.969      867.751
11/03/2014  04:57:00     -124.767      -38.880       -4.429       30.563       38.293       23.667      934.127     1466.355      560.138        1.003        0.148      130.684       18.879        0.021      331.103       -1.098      867.746
11/03/2014  04:58:00     -136.865      -64.791       -2.740       36.433       26.650       22.279     1327.332      710.239      496.363        1.274        0.127      151.426       16.641        0.012      331.164       -0.997      867.751
11/03/2014  04:59:00     -137.875      -47.337       -5.642       18.426       19.892       13.657      339.506      395.706      186.513        1.110        0.046      145.775        7.769        0.003      331.183       -0.967      867.743
11/03/2014  05:00:00     -121.280      -58.559       -5.692       26.538       21.134       15.201      704.284      446.630      231.071        0.978        0.069      134.677       15.083        0.013      331.233       -0.885      867.730
11/03/2014  05:01:00     -102.240      -48.756        5.883       26.560       21.561       15.986      705.434      464.857      255.566        0.715        0.071      113.270       13.580        0.014      331.283       -0.801      867.709
11/03/2014  05:02:00     -114.121      -51.800       -5.571       30.293       27.022       17.514      917.651      730.162      306.726        0.885        0.098      125.327       13.445        0.012      331.398       -0.612      867.705
11/03/2014  05:03:00      -80.600      -39.478        4.402       33.383       23.265       17.805     1114.430      541.257      317.026        0.502        0.099       89.748       16.089        0.032      331.367       -0.663      867.702
11/03/2014  05:04:00      -69.055      -41.549        6.495       35.403       25.923       21.253     1253.358      671.989      451.700        0.446        0.119       80.591       20.925        0.067      331.367       -0.665      867.691
11/03/2014  05:05:00      -72.257      -48.589       -5.057       35.669       19.314       16.183     1272.288      373.030      261.884        0.476        0.095       87.075       15.048        0.030      331.448       -0.531      867.672
11/03/2014  05:06:00      -63.868      -35.099        6.923       35.569       28.101       18.618     1265.138      789.656      346.644        0.388        0.120       72.877       20.130        0.076      331.386       -0.632      867.660
11/03/2014  05:07:00      -67.053      -33.222        4.250       32.768       20.735       18.001     1073.723      429.939      324.042        0.372        0.091       74.832       17.781        0.056      331.396       -0.615      867.643
11/03/2014  05:08:00      -87.674      -36.475       -0.403       26.672       26.798       14.783      711.385      718.106      218.524        0.533        0.082       94.959       10.894        0.013      331.360       -0.675      867.614
11/03/2014  05:09:00      -78.130      -24.572        1.936       29.252       16.531       14.223      855.692      273.260      202.283        0.402        0.067       81.903       14.335        0.031      331.389       -0.629      867.586
11/03/2014  05:10:00      -67.635      -13.332        1.838       25.074       18.050       18.057      628.694      325.786      326.053        0.302        0.064       68.937       11.512        0.028      331.345       -0.699      867.580
11/03/2014  05:11:00      -59.267      -20.246        2.952       29.098       20.782       13.917      846.681      431.905      193.691        0.270        0.074       62.629       11.054        0.031      331.293       -0.785      867.577
11/03/2014  05:12:00      -93.710      -22.156       -5.681       18.071       19.424       12.647      326.569      377.274      159.948        0.508        0.043       96.294       11.237        0.014      331.361       -0.673      867.584
11/03/2014  05:13:00      -87.326      -38.874      -11.125       11.244       14.756        8.259      126.421      217.745       68.215        0.484        0.021       95.587        5.242        0.003      331.399       -0.612      867.587
11/03/2014  05:14:00      -75.219      -31.753      -11.054       10.500       10.457        7.593      110.253      109.359       57.661        0.353        0.014       81.646        3.764        0.002      331.422       -0.574      867.593
11/03/2014  05:15:00      -39.977      -30.718        0.530       24.687       10.782       15.951      609.469      116.245      254.422        0.176        0.049       50.416       14.114        0.078      331.412       -0.590      867.592
11/03/2014  05:16:00      -67.062      -26.645       -7.022       10.028        9.420        7.290      100.554       88.743       53.143        0.275        0.012       72.161        4.434        0.004      331.372       -0.658      867.576
11/03/2014  05:17:00      -74.679      -24.780       -5.772       16.755       13.996        8.196      280.718      195.878       67.170        0.338        0.027       78.683        6.618        0.007      331.311       -0.753      867.552
11/03/2014  05:18:00      -73.801      -20.057       -7.708       12.354       11.613        9.241      152.630      134.856       85.388        0.314        0.019       76.478        6.629        0.008      331.298       -0.776      867.536
11/03/2014  05:19:00      -61.422      -18.379       -3.189       20.428       19.063       10.212      417.298      363.416      104.288        0.250        0.044       64.112       11.958        0.035      331.289       -0.792      867.527
11/03/2014  05:20:00      -45.101      -26.031       -6.676       17.633       12.678       10.606      310.929      160.721      112.496        0.167        0.029       52.074        3.311        0.004      331.339       -0.709      867.525
11/03/2014  05:21:00      -27.304      -20.080       -1.862       26.643       13.819       12.610      709.846      190.961      159.009        0.111        0.053       33.893        6.457        0.036      331.329       -0.725      867.531
11/03/2014  05:22:00      -59.992      -40.020        1.737       22.778       14.325       14.879      518.843      205.192      221.399        0.307        0.047       72.116       14.882        0.043      331.308       -0.762      867.540
11/03/2014  05:23:00      -41.621      -35.086       -0.768       29.053       22.708       17.600      844.065      515.639      309.769        0.232        0.083       54.436        8.495        0.024      331.300       -0.773      867.552
11/03/2014  05:24:00      -38.392      -40.559        4.283       31.949       26.030       22.460     1020.732      677.582      504.463        0.267        0.110       55.848       22.633        0.164      331.362       -0.672      867.552
11/03/2014  05:25:00      -70.472      -43.154       -2.735       39.633       25.403       18.513     1570.805      645.335      342.736        0.470        0.128       82.635       10.223        0.015      331.289       -0.791      867.554
11/03/2014  05:26:00      -61.684      -34.688        5.312       46.163       34.997       19.700     2131.044     1224.825      388.096        0.439        0.187       70.768       22.742        0.103      331.258       -0.842      867.557
11/03/2014  05:27:00      -51.495      -38.754       -1.007       42.132       27.937       22.070     1775.124      780.459      487.096        0.360        0.152       64.449       21.137        0.108      331.282       -0.802      867.547
11/03/2014  05:28:00      -71.906      -42.110       -1.615       49.599       27.977       19.596     2460.047      782.724      384.006        0.529        0.181       83.329       21.540        0.067      331.207       -0.925      867.558
11/03/2014  05:29:00      -75.085      -43.523        4.943       45.053       25.242       19.666     2029.783      637.156      386.744        0.530        0.153       86.787       20.847        0.058      331.223       -0.901      867.565
11/03/2014  05:30:00      -82.731      -53.157       -1.261       35.284       24.712       18.112     1244.987      610.684      328.046        0.593        0.109       98.336       18.050        0.034      331.147       -1.025      867.581
11/03/2014  05:31:00     -105.404      -53.186       -4.012       27.671       32.289       19.887      765.670     1042.612      395.505        0.808        0.110      118.062       14.144        0.014      331.195       -0.946      867.587
11/03/2014  05:32:00     -105.925      -61.186        1.048       44.920       34.744       23.163     2017.828     1207.153      536.532        0.936        0.188      122.327       24.325        0.040      331.160       -1.004      867.581
11/03/2014  05:33:00      -73.231      -60.617        4.503       53.289       37.506       25.511     2839.726     1406.699      650.798        0.698        0.245       95.064       26.192        0.076      331.189       -0.955      867.574
11/03/2014  05:34:00      -97.315      -77.630       -4.342       61.184       46.816       28.026     3743.535     2191.700      785.462        1.112        0.336      124.485       27.406        0.048      331.161       -1.003      867.563
11/03/2014  05:35:00     -101.641      -85.406        1.302       55.568       43.342       30.731     3087.837     1878.558      944.414        1.177        0.296      132.760       27.644        0.043      331.111       -1.084      867.562
11/03/2014  05:36:00      -81.932      -87.717       -8.522       40.465       37.013       26.613     1637.405     1369.927      708.273        0.910        0.186      120.029       21.578        0.032      331.185       -0.963      867.557
11/03/2014  05:37:00     -116.361      -72.702       -7.924       36.792       26.274       27.314     1353.651      690.333      746.058        1.084        0.140      137.205       23.086        0.028      331.136       -1.043      867.555
11/03/2014  05:38:00     -127.284      -69.102       -8.599       38.838       27.945       18.601     1508.390      780.901      345.994        1.184        0.132      144.832       13.772        0.009      331.098       -1.107      867.550
11/03/2014  05:39:00     -128.468      -45.469       -4.744       44.412       38.305       22.955     1972.398     1467.260      526.928        1.128        0.198      136.277       19.180        0.020      331.028       -1.221      867.552
11/03/2014  05:40:00     -102.078      -50.533      -10.249       22.678       28.063       14.954      514.283      787.514      223.627        0.730        0.076      113.901       11.558        0.010      331.037       -1.206      867.567
11/03/2014  05:41:00     -129.492      -66.691       -4.896       23.850       16.727       16.054      568.812      279.788      257.724        1.117        0.055      145.657       11.290        0.006      330.977       -1.304      867.577
11/03/2014  05:42:00      -97.314      -67.067       -4.764       29.478       20.812       17.951      868.926      433.149      322.240        0.781        0.081      118.187       14.699        0.015      330.989       -1.285      867.579
11/03/2014  05:43:00      -74.698      -60.679        0.538       39.873       28.361       23.089     1589.885      804.321      533.098        0.609        0.146       96.238       22.271        0.054      331.061       -1.168      867.580
11/03/2014  05:44:00      -16.096      -17.970       11.218       31.055       19.837       16.606      964.399      393.526      275.744        0.117        0.082       24.125       15.035        0.388      331.068       -1.156      867.569
11/03/2014  05:45:00      -75.898      -42.122       -9.286       36.163       23.745       18.930     1307.793      563.842      358.344        0.493        0.111       86.803       22.091        0.065      331.128       -1.058      867.555
11/03/2014  05:46:00      -53.798      -24.625       -5.641       25.828       33.522       19.121      667.111     1123.721      365.630        0.284        0.108       59.166       20.238        0.117      331.157       -1.007      867.543
11/03/2014  05:47:00      -19.508      -21.562       -5.098       34.539       26.864       15.366     1192.943      721.658      236.106        0.151        0.108       29.077       14.065        0.234      331.194       -0.948      867.549
11/03/2014  05:48:00        2.996      -36.085       -8.888       21.019       19.255       24.014      441.782      370.760      576.693        0.139        0.069       36.209       17.899        0.244      331.168       -0.992      867.567
11/03/2014  05:49:00      -17.765      -40.654       -5.259       25.183       21.099       18.986      634.168      445.187      360.475        0.172        0.072       44.367       12.530        0.080      331.250       -0.856      867.598
11/03/2014  05:50:00      -36.656      -14.503       -5.052       35.807       17.423       18.227     1282.138      303.571      332.234        0.175        0.096       39.421       18.627        0.223      331.214       -0.915      867.619
11/03/2014  05:51:00      -22.461      -17.729       -4.951       25.207       10.207       11.792      635.416      104.193      139.040        0.086        0.044       28.615        9.613        0.113      331.215       -0.913      867.640
11/03/2014  05:52:00      -58.314      -23.780       -7.503       21.800       16.611       16.341      475.220      275.909      267.035        0.252        0.051       62.976       10.433        0.027      331.226       -0.895      867.655
11/03/2014  05:53:00      -38.643      -28.469       -1.357       31.124       15.674       12.992      968.703      245.668      168.798        0.184        0.069       47.997       12.101        0.064      331.208       -0.924      867.666
11/03/2014  05:54:00      -55.270      -15.766       -0.491       32.212       16.487       16.410     1037.601      271.816      269.277        0.244        0.079       57.475       19.996        0.121      331.123       -1.065      867.672
11/03/2014  05:55:00      -53.597      -29.019       -8.686       31.598       13.147       16.716      998.453      172.850      279.418        0.262        0.073       60.948       19.717        0.105      331.142       -1.033      867.672
11/03/2014  05:56:00      -66.728      -51.270       -8.128       29.724       14.309       13.248      883.492      204.760      175.520        0.421        0.063       84.150        5.763        0.005      331.192       -0.953      867.660
11/03/2014  05:57:00      -53.259      -56.211        0.736       26.986       27.726       18.688      728.249      768.751      349.223        0.392        0.092       77.435       16.979        0.048      331.207       -0.927      867.650
11/03/2014  05:58:00      -31.583      -40.984       -1.960       18.328       18.073       10.641      335.904      326.617      113.223        0.173        0.039       51.741        4.825        0.009      331.252       -0.852      867.638
11/03/2014  05:59:00      -54.354      -34.430       -7.072       28.302       16.850       15.503      800.998      283.917      240.328        0.276        0.066       64.341        3.787        0.003      331.267       -0.828      867.627
11/03/2014  06:00:00      -30.082      -47.763       -1.096       22.154       24.626       16.148      490.804      606.457      260.774        0.227        0.068       56.447       14.232        0.064      331.258       -0.842      867.623
11/03/2014  06:01:00      -52.841      -29.134       -1.186       14.524       18.320       12.925      210.950      335.639      167.063        0.218        0.036       60.341        5.963        0.010      331.218       -0.907      867.626
11/03/2014  06:02:00      -21.033      -18.277       -1.362       25.238       13.390       10.070      636.962      179.290      101.402        0.085        0.046       27.865        3.072        0.012      331.149       -1.022      867.630
11/03/2014  06:03:00      -48.730      -18.399       -3.673       16.808       15.619        8.330      282.519      243.950       69.397        0.166        0.030       52.088        4.724        0.008      331.195       -0.948      867.633
11/03/2014  06:04:00      -44.311       -0.848       -7.445       11.128       10.346        6.762      123.834      107.046       45.725        0.115        0.014       44.319        5.077        0.013      331.204       -0.931      867.648
11/03/2014  06:05:00      -67.040       -3.807       -9.178       11.440       11.859        8.214      130.862      140.646       67.465        0.247        0.017       67.148        6.926        0.011      331.240       -0.872      867.657
11/03/2014  06:06:00      -51.693       -3.789       -2.215       19.109       13.218       11.423      365.172      174.712      130.492        0.168        0.034       51.832        9.958        0.037      331.184       -0.966      867.672
11/03/2014  06:07:00      -85.620      -10.489       -4.459       14.892       13.726       10.299      221.782      188.415      106.069        0.399        0.026       86.260        9.222        0.011      331.119       -1.072      867.692
11/03/2014  06:08:00      -67.924      -26.062       -2.484       14.497       20.935       11.087      210.162      438.289      122.916        0.304        0.039       72.752        8.787        0.015      331.104       -1.096      867.696
11/03/2014  06:09:00      -54.751      -22.271       -0.424       19.940       17.142       11.185      397.606      293.846      125.098        0.216        0.041       59.107       10.965        0.034      331.091       -1.117      867.698
11/03/2014  06:10:00      -71.098      -15.193       -2.733       17.129       19.340       11.432      293.397      374.028      130.697        0.305        0.040       72.704        5.924        0.007      331.085       -1.128      867.692
11/03/2014  06:11:00      -85.129       -8.449       -4.323       23.002       13.935       13.647      529.082      194.187      186.242        0.412        0.045       85.547       10.760        0.016      331.034       -1.213      867.687
11/03/2014  06:12:00      -82.934      -18.884       -4.256       19.335       20.878       10.929      373.860      435.904      119.437        0.409        0.046       85.056       10.549        0.015      331.038       -1.205      867.682
11/03/2014  06:13:00      -91.930       -7.584       -7.586       14.516       11.333        8.317      210.710      128.440       69.177        0.449        0.020       92.242        6.303        0.005      331.031       -1.217      867.687
11/03/2014  06:14:00      -78.758      -14.560        0.071       31.299       17.381       15.018      979.657      302.099      225.531        0.396        0.075       80.093       15.083        0.035      331.000       -1.266      867.696
11/03/2014  06:15:00      -81.095      -10.250       -1.118       30.854       16.532       11.550      951.972      273.296      133.408        0.402        0.068       81.740       14.087        0.030      331.012       -1.249      867.724
11/03/2014  06:16:00      -98.984       -2.668       -6.183       16.070       13.787       10.451      258.244      190.071      109.219        0.520        0.028       99.020        8.507        0.007      331.004       -1.262      867.755
11/03/2014  06:17:00      -87.404      -21.695       -2.451       20.406       14.868       13.377      416.386      221.062      178.946        0.447        0.041       90.056       11.316        0.016      331.069       -1.155      867.771
11/03/2014  06:18:00      -61.023      -17.393       -0.018       22.090       22.115       13.149      487.976      489.072      172.898        0.259        0.057       63.453       12.471        0.039      331.075       -1.144      867.782
11/03/2014  06:19:00      -67.703      -24.849       -5.229       24.230       22.409       10.552      587.095      502.146      111.336        0.321        0.060       72.119        8.601        0.014      331.113       -1.081      867.796
11/03/2014  06:20:00      -83.845      -49.732       -7.977       19.722       19.499       12.689      388.969      380.206      161.006        0.525        0.047       97.484       10.110        0.011      331.064       -1.162      867.804
11/03/2014  06:21:00      -78.796      -30.626        0.262       28.863       22.069       16.492      833.078      487.047      271.997        0.437        0.080       84.539       15.929        0.036      331.047       -1.190      867.823
11/03/2014  06:22:00      -48.591      -38.929        6.314       29.624       23.815       16.542      877.565      567.168      273.652        0.282        0.086       62.262       15.369        0.061      331.067       -1.157      867.833
11/03/2014  06:23:00      -47.845      -29.603       -6.248       27.894       20.837       20.571      778.086      434.201      423.180        0.242        0.082       56.263       20.256        0.130      331.050       -1.184      867.839
11/03/2014  06:24:00      -23.435      -14.531        0.377       16.811       18.432       11.109      282.597      339.756      123.418        0.075        0.037       27.574       10.453        0.144      331.105       -1.094      867.847
11/03/2014  06:25:00      -37.502       -9.557       -1.883       14.300       13.629        9.072      204.493      185.739       82.300        0.099        0.024       38.701        7.616        0.039      331.072       -1.150      867.847
11/03/2014  06:26:00      -36.639       -6.210       -2.965       20.130       11.255       10.056      405.232      126.671      101.120        0.101        0.032       37.162       11.246        0.092      331.065       -1.161      867.854
11/03/2014  06:27:00      -54.582      -20.889       -2.589       11.657       13.017        9.351      135.887      169.454       87.451        0.191        0.020       58.442        7.373        0.016      331.140       -1.037      867.848
11/03/2014  06:28:00      -60.427      -20.192       -2.192       16.681       17.836        9.267      278.263      318.106       85.886        0.237        0.034       63.712        6.680        0.011      331.150       -1.021      867.849
11/03/2014  06:29:00      -56.789      -20.831       -5.375       15.628       19.652        9.091      244.240      386.189       82.648        0.220        0.036       60.489        7.672        0.016      331.074       -1.147      867.845
11/03/2014  06:30:00      -36.761      -10.910       -3.861       13.744       14.306        8.162      188.903      204.672       66.612        0.097        0.023       38.345        3.953        0.011      331.044       -1.196      867.850
11/03/2014  06:31:00      -39.894        4.629       -2.885       13.813        8.785        7.523      190.790       77.168       56.603        0.097        0.016       40.162        7.761        0.037      331.115       -1.079      867.864
11/03/2014  06:32:00      -31.085        9.955       -7.714        8.042        5.932        5.739       64.677       35.183       32.938        0.063        0.007       32.640        1.642        0.003      331.123       -1.067      867.880
11/03/2014  06:33:00        3.662        2.190       -1.526       15.131        7.853        7.903      228.932       61.677       62.464        0.019        0.018        4.267        5.121        1.440      331.262       -0.836      867.883
11/03/2014  06:34:00       23.278       17.226        8.269        5.910        8.482        7.788       34.925       71.945       60.660        0.054        0.008       28.959        4.005        0.019      331.272       -0.819      867.893
11/03/2014  06:35:00       24.413       24.004       -1.459        9.231        8.412        7.179       85.220       70.757       51.542        0.069        0.010       34.237        3.063        0.008      331.246       -0.864      867.907
11/03/2014  06:36:00       24.656       25.444       -5.982       10.563       12.887        9.257      111.575      166.080       85.693        0.083        0.018       35.430        6.601        0.035      331.167       -0.993      867.920
11/03/2014  06:37:00       20.671       20.700       -7.313        8.890        9.812        6.659       79.037       96.275       44.341        0.056        0.011       29.254        4.737        0.026      331.206       -0.928      867.940
11/03/2014  06:38:00       15.212       22.918      -12.559        6.628        5.691        4.736       43.932       32.383       22.430        0.051        0.005       27.507        2.024        0.005      331.253       -0.850      867.967
11/03/2014  06:39:00       17.589        7.188       -9.713       16.009       11.413       12.278      256.280      130.255      150.746        0.050        0.027       19.001       10.018        0.278      331.281       -0.805      868.004
11/03/2014  06:40:00       11.779       10.541       10.764        7.347        5.832        5.738       53.981       34.014       32.930        0.024        0.006       15.807        2.798        0.031      331.314       -0.751      868.039
11/03/2014  06:41:00       21.218       13.215        9.988       10.247        7.975        8.574      105.003       63.606       73.508        0.048        0.012       24.997        3.076        0.015      331.338       -0.711      868.054
11/03/2014  06:42:00       40.379       21.102        2.295        9.282        6.979        8.204       86.156       48.701       67.308        0.114        0.010       45.561        3.608        0.006      331.396       -0.614      868.061
11/03/2014  06:43:00       12.640       26.411       19.259        9.056        6.219        7.576       82.013       38.678       57.394        0.070        0.009       29.279        7.023        0.058      331.399       -0.611      868.057
11/03/2014  06:44:00       20.321       21.299       27.484       18.122       12.735        5.991      328.422      162.180       35.892        0.107        0.026       29.438        3.463        0.014      331.465       -0.503      868.048
11/03/2014  06:45:00       -8.990      -12.472       17.755        8.790       15.689        8.914       77.268      246.153       79.463        0.048        0.020       15.374        6.877        0.200      331.536       -0.386      868.048
11/03/2014  06:46:00       14.138        4.842        9.866       14.921       12.425       12.343      222.631      154.379      152.362        0.042        0.026       14.944       10.892        0.531      331.493       -0.457      868.052
11/03/2014  06:47:00       13.939        4.578        4.852        7.577        5.210        7.994       57.410       27.148       63.907        0.019        0.007       14.672        5.417        0.136      331.497       -0.449      868.053
11/03/2014  06:48:00       -5.707        4.269        6.251        8.705        7.341        6.919       75.780       53.890       47.869        0.013        0.009        7.127        5.621        0.622      331.602       -0.276      868.060
11/03/2014  06:49:00      -10.212       -8.211        1.484       11.782        5.520        8.557      138.809       30.468       73.229        0.021        0.012       13.104        7.411        0.320      331.533       -0.391      868.066
11/03/2014  06:50:00      -23.875       -8.657       -5.900       11.460        6.568        6.295      131.322       43.137       39.623        0.045        0.011       25.396        4.132        0.026      331.454       -0.521      868.082
11/03/2014  06:51:00      -15.911       -1.796       -1.686        8.211        2.875        5.843       67.427        8.267       34.140        0.018        0.005       16.012        6.138        0.147      331.564       -0.339      868.105
11/03/2014  06:52:00       24.283       13.459        7.706       15.830       13.107        7.902      250.601      171.802       62.434        0.066        0.024       27.763        2.651        0.009      331.584       -0.306      868.124
11/03/2014  06:53:00       41.731       17.489        7.607       15.619        9.192        9.502      243.938       84.500       90.296        0.126        0.021       45.247        4.472        0.010      331.620       -0.247      868.145
11/03/2014  06:54:00       39.197       32.728       19.345       21.040       12.931       17.182      442.695      167.201      295.236        0.194        0.045       51.064       14.592        0.082      331.593       -0.291      868.160
11/03/2014  06:55:00       33.196       29.685       28.187       19.598       16.096       15.056      384.094      259.067      226.692        0.182        0.043       44.532        9.955        0.050      331.665       -0.173      868.174
11/03/2014  06:56:00       31.248       32.031       38.008       22.850       21.557       16.545      522.121      464.708      273.735        0.235        0.063       44.748       12.857        0.083      331.728       -0.068      868.178
11/03/2014  06:57:00       13.485       15.702       26.852       21.699       16.043       17.888      470.841      257.384      319.980        0.110        0.052       20.698       16.788        0.658      331.722       -0.079      868.178
11/03/2014  06:58:00       11.173       21.560       27.175       13.039       14.125        6.788      170.009      199.529       46.078        0.087        0.021       24.283        2.704        0.012      331.791        0.035      868.185
11/03/2014  06:59:00       15.969        8.348        8.058       12.055        7.250       11.106      145.314       52.565      123.350        0.036        0.016       18.019        7.215        0.160      331.752       -0.029      868.184
11/03/2014  07:00:00       34.239       29.655       15.279       19.884       16.100       10.467      395.364      259.219      109.561        0.152        0.038       45.296        6.121        0.018      331.728       -0.069      868.192
11/03/2014  07:01:00       42.668       26.295        8.007       18.921       13.330       11.582      358.007      177.701      134.135        0.162        0.033       50.120        7.849        0.025      331.702       -0.112      868.208
11/03/2014  07:02:00       27.151       12.505       15.398       26.951       11.402       12.641      726.379      130.012      159.801        0.107        0.051       29.892        7.509        0.063      331.760       -0.017      868.221
11/03/2014  07:03:00       26.066       13.535        3.692       11.440       11.614       13.144      130.871      134.893      172.759        0.066        0.022       29.371        7.060        0.058      331.738       -0.052      868.230
11/03/2014  07:04:00        7.708        4.409        7.814       12.496        9.013        9.204      156.143       81.236       84.721        0.023        0.016        8.880        4.700        0.280      331.920        0.247      868.253
11/03/2014  07:05:00       -2.630        3.366       10.273        8.708        4.048        6.898       75.837       16.389       47.583        0.013        0.007        4.272        4.587        1.153      331.900        0.212      868.269
11/03/2014  07:06:00       -5.605        1.164        4.315       12.545        7.951        9.795      157.383       63.226       95.948        0.018        0.016        5.724        7.865        1.888      331.929        0.260      868.279
11/03/2014  07:07:00      -21.774      -10.087       -5.209       13.271        8.469        5.940      176.118       71.724       35.288        0.044        0.014       23.997        2.906        0.015      331.701       -0.113      868.280
11/03/2014  07:08:00      -18.926       -0.613       -4.713        9.474        7.427        5.044       89.756       55.161       25.442        0.028        0.009       18.936        3.288        0.030      331.664       -0.175      868.280
11/03/2014  07:09:00      -11.654       -9.702        0.023       10.090        7.124        8.784      101.814       50.752       77.159        0.023        0.011       15.164        5.950        0.154      331.781        0.018      868.292
11/03/2014  07:10:00      -37.078      -11.814       -6.530       17.127       12.858        9.256      293.347      165.320       85.673        0.105        0.027       38.915        4.543        0.014      331.729       -0.068      868.296
11/03/2014  07:11:00      -29.850      -27.505        1.892       18.966       23.469       16.347      359.728      550.810      267.237        0.141        0.059       40.590       14.393        0.126      331.716       -0.089      868.302
11/03/2014  07:12:00      -67.200      -59.923       -1.151       25.525       20.360       12.371      651.501      414.520      153.053        0.466        0.061       90.037       12.006        0.018      331.625       -0.238      868.311
11/03/2014  07:13:00      -81.509      -67.447       -7.996       20.243       26.435       16.157      409.788      698.823      261.034        0.631        0.068      105.796        9.619        0.008      331.572       -0.326      868.323
11/03/2014  07:14:00      -79.672      -47.540       -4.838       26.837       23.735       22.310      720.229      563.332      497.756        0.521        0.089       92.778       18.637        0.040      331.559       -0.348      868.344
11/03/2014  07:15:00      -56.575      -28.630       -1.827       27.705       20.558       13.308      767.594      422.612      177.098        0.270        0.068       63.407       11.108        0.031      331.632       -0.228      868.355
11/03/2014  07:16:00      -50.107      -28.018       -6.695       12.182       11.058        8.720      148.404      122.284       76.037        0.184        0.017       57.409        5.437        0.009      331.643       -0.209      868.356
11/03/2014  07:17:00      -54.459      -17.467       -2.829       15.911       12.821       10.056      253.166      164.370      101.132        0.190        0.026       57.192        7.779        0.019      331.640       -0.214      868.348
11/03/2014  07:18:00      -29.675      -22.095       -1.432       19.005       27.027       10.206      361.201      730.445      104.153        0.128        0.060       36.997        8.230        0.049      331.694       -0.124      868.335
11/03/2014  07:19:00      -17.321      -22.292       -3.666       20.507       17.592       12.340      420.547      309.466      152.265        0.085        0.044       28.230        9.210        0.106      331.683       -0.144      868.332
11/03/2014  07:20:00      -40.584      -29.325       -0.890       19.916       16.383       11.604      396.632      268.417      134.657        0.165        0.040       50.071       11.840        0.056      331.689       -0.132      868.330
11/03/2014  07:21:00      -46.811      -23.585       -5.833       22.033       13.879       11.387      485.446      192.637      129.663        0.179        0.040       52.417        9.855        0.035      331.739       -0.051      868.336
11/03/2014  07:22:00      -34.435      -15.601       -2.193       16.959       11.887       11.391      287.603      141.303      129.751        0.100        0.028       37.804       10.847        0.082      331.781        0.017      868.343
11/03/2014  07:23:00      -30.910      -21.224       -2.032       18.600       14.862       10.495      345.974      220.865      110.135        0.104        0.034       37.495        4.312        0.013      331.785        0.024      868.355
11/03/2014  07:24:00      -41.223      -40.218       -1.768       30.005       15.239       11.811      900.309      232.239      139.501        0.230        0.064       57.592        9.595        0.028      331.721       -0.080      868.375
11/03/2014  07:25:00      -47.749      -48.126        1.595       23.905       23.146       15.769      571.432      535.757      248.658        0.298        0.068       67.795       15.446        0.052      331.699       -0.118      868.403
11/03/2014  07:26:00      -70.256      -47.881       -8.702       18.443       16.584        8.617      340.156      275.040       74.251        0.400        0.034       85.020        6.340        0.006      331.750       -0.033      868.427
11/03/2014  07:27:00      -66.275      -68.645      -13.841       29.204       18.126       13.350      852.859      328.563      178.229        0.533        0.068       95.417       10.950        0.013      331.733       -0.059      868.453
11/03/2014  07:28:00      -20.927      -44.672       10.789       37.437       30.150       19.016     1401.505      909.050      361.603        0.261        0.134       49.331       16.641        0.114      331.853        0.136      868.480
11/03/2014  07:29:00      -43.800      -50.342        6.660       35.140       30.394       20.130     1234.855      923.793      405.211        0.353        0.128       66.729       19.724        0.087      331.827        0.093      868.489
11/03/2014  07:30:00      -65.606      -64.745       -0.811       25.578       27.917       18.952      654.239      779.380      359.163        0.514        0.090       92.175       16.926        0.034      331.758       -0.019      868.497
11/03/2014  07:31:00      -75.731      -64.543       -3.871       24.588       18.528       15.758      604.559      343.281      248.327        0.556        0.060       99.504       15.602        0.025      331.807        0.061      868.511
11/03/2014  07:32:00      -67.112      -71.345      -11.377       16.399       18.638        9.982      268.932      347.370       99.639        0.522        0.036       97.950        2.775        0.001      331.807        0.059      868.525
11/03/2014  07:33:00      -56.946      -46.132       -3.075       13.628       13.784       10.626      185.712      189.987      112.922        0.293        0.024       73.287        9.966        0.018      331.831        0.100      868.541
11/03/2014  07:34:00      -49.238      -12.868      -12.517        9.816       14.950        8.946       96.354      223.501       80.027        0.157        0.020       50.892        5.727        0.013      331.886        0.190      868.567
11/03/2014  07:35:00      -59.493      -16.496        1.423        9.793       21.125       10.364       95.906      446.252      107.405        0.223        0.032       61.737        8.942        0.021      331.918        0.244      868.566
11/03/2014  07:36:00      -43.710        0.158       -4.824       16.907        9.934       10.916      285.856       98.691      119.169        0.122        0.025       43.710        7.563        0.030      331.967        0.325      868.581
11/03/2014  07:37:00      -40.197      -15.550       -4.462       12.734       13.548        9.413      162.156      183.542       88.598        0.116        0.022       43.100        4.824        0.013      332.011        0.397      868.597
11/03/2014  07:38:00      -43.457        6.411       -0.192       14.939       13.833        7.220      223.183      191.365       52.132        0.120        0.023       43.927        3.506        0.006      332.014        0.402      868.625
11/03/2014  07:39:00      -42.521        4.030       -4.404        7.877       13.169        8.367       62.050      173.416       69.999        0.107        0.015       42.712        7.777        0.033      332.070        0.493      868.650
11/03/2014  07:40:00      -29.363       12.016        1.095       13.245       12.151       12.757      175.443      147.647      162.743        0.075        0.024       31.727        3.084        0.009      332.200        0.707      868.672
11/03/2014  07:41:00      -33.634        7.180       -2.871       13.787       11.457       11.341      190.091      131.258      128.613        0.082        0.022       34.392        6.570        0.036      332.242        0.776      868.700
11/03/2014  07:42:00      -49.598      -14.172       -5.372       18.484       16.200        6.828      341.640      262.435       46.622        0.167        0.033       51.583        5.637        0.012      332.084        0.517      868.701
11/03/2014  07:43:00      -50.645       -6.833       -1.366       16.318       11.575       11.310      266.285      133.970      127.926        0.157        0.026       51.104        6.533        0.016      332.126        0.585      868.697
11/03/2014  07:44:00      -29.788       14.000        3.211        9.675        9.995       13.572       93.613       99.897      184.199        0.074        0.019       32.914        8.567        0.068      332.224        0.747      868.692
11/03/2014  07:45:00       17.886       17.028       15.465       26.860       18.038       14.817      721.451      325.361      219.534        0.106        0.063       24.695        8.991        0.133      332.685        1.508      868.696
11/03/2014  07:46:00       23.239       23.336       14.227       22.811       21.399       23.918      520.328      457.921      572.090        0.142        0.078       32.934       15.849        0.232      332.673        1.489      868.718
11/03/2014  07:47:00       10.825       16.742       28.351       18.633       23.267       21.258      347.192      541.331      451.923        0.127        0.067       19.937       15.396        0.596      332.865        1.806      868.744
11/03/2014  07:48:00       10.319       29.197       26.810       31.844       22.116       21.581     1014.052      489.117      465.721        0.182        0.098       30.967       19.602        0.401      332.922        1.900      868.762
11/03/2014  07:49:00       54.175       51.322       -1.612       33.784       23.132       22.890     1141.330      535.075      523.930        0.389        0.110       74.625       14.573        0.038      332.509        1.218      868.774
11/03/2014  07:50:00       18.966       42.475       28.658       19.340       26.034       31.995      374.047      677.782     1023.675        0.253        0.104       46.517       18.282        0.154      332.713        1.555      868.778
11/03/2014  07:51:00       72.509       45.861       19.372       28.356       22.573       31.969      804.070      509.555     1022.038        0.504        0.117       85.795       19.296        0.051      332.503        1.208      868.776
11/03/2014  07:52:00       90.870       92.889       50.022       47.912       43.917       45.030     2295.577     1928.723     2027.680        1.282        0.313      129.945       40.222        0.096      332.499        1.202      868.761
11/03/2014  07:53:00       10.167      102.392      113.280       52.516       56.986       38.182     2757.978     3247.369     1457.843        1.544        0.373      102.896       33.594        0.107      332.618        1.397      868.744
11/03/2014  07:54:00       81.538      114.877       87.681       54.205       32.397       42.414     2938.168     1049.594     1798.942        1.666        0.289      140.873       43.517        0.095      332.397        1.032      868.732
11/03/2014  07:55:00      143.318       85.002       22.356       24.695       18.206       19.660      609.839      331.468      386.509        1.480        0.066      166.630       11.685        0.005      332.244        0.782      868.713
11/03/2014  07:56:00       31.853       42.142       52.049       34.321       23.751       30.248     1177.912      564.106      914.935        0.408        0.133       52.826       26.879        0.259      332.579        1.333      868.697
11/03/2014  07:57:00       26.338       30.275       44.541       35.747       20.933       19.817     1277.831      438.199      392.707        0.285        0.105       40.128       12.579        0.098      332.700        1.533      868.710
11/03/2014  07:58:00       53.932       36.643       23.030       33.598       30.293       25.022     1128.817      917.675      626.088        0.373        0.134       65.202       15.978        0.060      332.880        1.830      868.728
11/03/2014  07:59:00      -11.110       16.549       31.520       24.606       20.955       19.240      605.473      439.103      370.168        0.140        0.071       19.933       17.766        0.794      333.181        2.328      868.757
11/03/2014  08:00:00        4.510       22.726       24.151       35.658       27.852       28.008     1271.516      775.718      784.472        0.198        0.142       23.169       13.232        0.326      333.168        2.306      868.793
11/03/2014  08:01:00       79.707       44.805       36.032       36.815       34.737       33.797     1355.317     1206.668     1142.243        0.668        0.185       91.436       24.873        0.074      332.778        1.663      868.825
11/03/2014  08:02:00       18.213       68.068       60.692       33.429       25.222       20.657     1117.495      636.129      426.723        0.541        0.109       70.462       16.749        0.057      332.880        1.831      868.844
11/03/2014  08:03:00       31.074       -3.908       41.821       35.384       37.298       27.074     1251.999     1391.165      732.977        0.305        0.169       31.319       24.586        0.616      332.945        1.938      868.858
11/03/2014  08:04:00       20.421       12.387       33.159       30.934       34.176       26.827      956.886     1168.025      719.667        0.226        0.142       23.884       22.191        0.863      333.087        2.172      868.865
11/03/2014  08:05:00       67.971       52.682       29.360       27.308       26.639       35.949      745.737      709.636     1292.297        0.550        0.137       85.996       29.006        0.114      332.640        1.433      868.864
11/03/2014  08:06:00       16.865       46.170       53.940       35.854       35.161       27.404     1285.538     1236.263      750.963        0.430        0.164       49.154       28.042        0.325      332.890        1.848      868.859
11/03/2014  08:07:00       47.992       69.763       68.353       46.904       35.149       30.480     2199.974     1235.478      929.034        0.810        0.218       84.677       27.782        0.108      332.954        1.954      868.862
11/03/2014  08:08:00       31.113       59.740       74.303       41.582       41.407       25.635     1729.037     1714.498      657.172        0.708        0.205       67.356       27.441        0.166      332.870        1.814      868.882
11/03/2014  08:09:00        8.880       77.401       79.734       36.577       32.161       31.023     1337.902     1034.343      962.446        0.788        0.167       77.909       24.033        0.095      332.869        1.812      868.887
11/03/2014  08:10:00       49.046       74.286       75.418       20.689       22.343       12.987      428.046      499.216      168.670        0.735        0.055       89.016       11.405        0.016      332.813        1.719      868.902
11/03/2014  08:11:00       16.714       29.473       50.906       20.016       21.808       14.007      400.649      475.598      196.205        0.241        0.054       33.883        5.808        0.029      333.030        2.080      868.921
11/03/2014  08:12:00       35.077       27.642       67.584       31.926       26.176       18.386     1019.253      685.179      338.056        0.430        0.102       44.660       17.680        0.157      333.012        2.047      868.931
11/03/2014  08:13:00       43.347       33.953       29.945       16.985       15.554       24.790      288.491      241.924      614.565        0.254        0.057       55.062       14.225        0.067      332.792        1.687      868.938
11/03/2014  08:14:00       36.632       28.844       10.009       24.319       14.466       19.089      591.416      209.277      364.399        0.172        0.058       46.625       15.219        0.107      332.967        1.975      868.935
11/03/2014  08:15:00       18.442       40.246       24.746       30.170       37.516       25.637      910.245     1407.429      657.245        0.277        0.149       44.271       22.162        0.251      333.286        2.501      868.937
11/03/2014  08:16:00       34.920       35.520       56.684       55.253       32.681       31.625     3052.928     1068.065     1000.157        0.541        0.256       49.810       27.730        0.310      333.382        2.660      868.949
11/03/2014  08:17:00       65.697       53.647       -3.058       37.591       21.072       26.841     1413.089      444.046      720.445        0.489        0.129       84.818       12.203        0.021      332.990        2.013      868.958
11/03/2014  08:18:00       38.297       36.689        3.205       29.615       20.742       27.468      877.027      430.211      754.498        0.244        0.103       53.035       13.507        0.065      333.126        2.237      868.965
11/03/2014  08:19:00       17.028        5.073       21.991       29.341       26.575       30.518      860.886      706.237      931.323        0.165        0.125       17.767       18.611        1.097      333.451        2.775      868.976
11/03/2014  08:20:00       38.301       57.078       55.691       27.656       28.391       29.057      764.859      806.074      844.293        0.512        0.121       68.738       20.593        0.090      333.169        2.309      868.976
11/03/2014  08:21:00       12.477       55.218       60.195       44.782       42.574       31.749     2005.422     1812.533     1007.971        0.583        0.241       56.610       29.986        0.281      333.419        2.721      868.975
11/03/2014  08:22:00       42.129       57.035       39.602       43.786       30.424       38.259     1917.170      925.640     1463.750        0.545        0.215       70.907       25.317        0.127      333.367        2.636      868.975
11/03/2014  08:23:00       44.140       54.516       28.444       34.608       29.256       41.577     1197.731      855.896     1728.681        0.476        0.189       70.145       25.992        0.137      333.269        2.472      868.992
11/03/2014  08:24:00       37.716       65.140       72.161       52.491       32.235       32.266     2755.277     1039.081     1041.068        0.785        0.242       75.271       25.267        0.113      333.279        2.489      868.991
11/03/2014  08:25:00       85.366       11.506       42.328       33.337       31.130       41.263     1111.363      969.080     1702.627        0.650        0.189       86.138       27.929        0.105      332.995        2.023      868.999
11/03/2014  08:26:00       65.785       32.211       17.025       54.592       41.390       29.669     2980.331     1713.112      880.269        0.561        0.279       73.248       22.580        0.095      333.126        2.237      869.005
11/03/2014  08:27:00       82.948       57.933       -4.093       44.917       36.838       31.777     2017.514     1357.062     1009.762        0.732        0.219      101.176       13.157        0.017      333.055        2.119      869.020
11/03/2014  08:28:00       14.190       81.457       88.926       38.374       59.168       51.510     1472.541     3500.846     2653.278        1.118        0.381       82.684       48.653        0.346      333.549        2.936      869.026
11/03/2014  08:29:00      117.146       86.694       43.560       40.809       48.801       50.175     1665.344     2381.506     2517.513        1.485        0.328      145.736       39.557        0.074      332.997        2.026      869.035
11/03/2014  08:30:00       61.853       84.948       77.568       55.170       56.506       47.381     3043.738     3192.980     2244.960        1.277        0.424      105.081       46.308        0.194      333.235        2.418      869.034
11/03/2014  08:31:00       68.186      104.367      100.767       63.395       39.303       31.203     4018.909     1544.710      973.611        1.612        0.327      124.667       26.400        0.045      333.182        2.329      869.034
11/03/2014  08:32:00       90.716       80.668       57.201       58.055       36.089       35.398     3370.393     1302.444     1253.021        1.197        0.296      121.395       31.218        0.066      333.208        2.371      869.020
11/03/2014  08:33:00       76.409      102.026       78.753       66.835       54.812       52.581     4466.947     3004.355     2764.803        1.634        0.512      127.466       47.637        0.140      333.273        2.478      869.022
11/03/2014  08:34:00       56.889       85.375       86.986       48.947       51.880       37.468     2395.776     2691.579     1403.861        1.229        0.325      102.592       39.738        0.150      333.321        2.560      869.026
11/03/2014  08:35:00       63.216       43.030       58.333       49.368       36.058       33.959     2437.180     1300.195     1153.187        0.707        0.245       76.472       35.262        0.213      333.347        2.602      869.038
11/03/2014  08:36:00       17.026       63.971      101.980       44.126       66.825       34.905     1947.114     4465.545     1218.375        1.121        0.382       66.198       38.399        0.336      333.715        3.211      869.033
11/03/2014  08:37:00       68.960      119.521       87.830       64.657       38.052       45.957     4180.499     1447.951     2112.062        1.725        0.387      137.988       35.703        0.067      333.241        2.427      869.042
11/03/2014  08:38:00       40.163       60.902       60.614       39.071       35.505       28.445     1526.554     1260.623      809.127        0.630        0.180       72.953       20.218        0.077      333.394        2.680      869.061
11/03/2014  08:39:00       62.134       79.580       69.217       52.009       57.608       49.259     2704.948     3318.696     2426.427        1.172        0.423      100.963       46.888        0.216      333.433        2.744      869.077
11/03/2014  08:40:00      113.160       54.564       42.376       38.624       45.686       38.506     1491.819     2087.180     1482.689        1.132        0.253      125.628       26.278        0.044      333.385        2.664      869.109
11/03/2014  08:41:00       67.475       75.832       26.350       32.793       36.864       51.906     1075.355     1358.960     2694.218        0.806        0.256      101.506       10.937        0.012      333.325        2.566      869.128
11/03/2014  08:42:00      123.897       75.640       28.834       29.652       38.008       37.528      879.245     1444.613     1408.375        1.282        0.187      145.161       17.947        0.015      333.324        2.563      869.141
11/03/2014  08:43:00       34.579       13.001       42.256       52.106       74.862       59.578     2715.022     5604.370     3549.535        0.751        0.593       36.942       61.784        2.797      333.684        3.159      869.143
11/03/2014  08:44:00       53.408       86.257       68.567       63.494       31.805       40.886     4031.456     1011.539     1671.651        1.085        0.336      101.453       40.559        0.160      333.491        2.841      869.153
11/03/2014  08:45:00       62.933       82.103       26.113       59.631       40.353       56.313     3555.837     1628.331     3171.139        0.987        0.418      103.448       45.263        0.191      333.567        2.967      869.147
11/03/2014  08:46:00      122.364       83.375        3.918       46.260       37.954       41.352     2140.022     1440.497     1709.998        1.361        0.265      148.069       19.733        0.018      333.490        2.838      869.141
11/03/2014  08:47:00      107.965       57.593        3.868       55.369       54.945       37.264     3065.725     3018.903     1388.590        1.123        0.374      122.366       20.384        0.028      333.587        2.998      869.130
11/03/2014  08:48:00       60.382       41.322       16.780       28.430       29.456       28.121      808.283      867.646      790.803        0.405        0.123       73.167       14.664        0.040      333.677        3.148      869.109
11/03/2014  08:49:00       15.257       37.208       43.715       30.159       36.549       27.513      909.538     1335.844      756.950        0.326        0.150       40.214       24.271        0.364      334.206        4.026      869.099
11/03/2014  08:50:00      101.832       22.623       37.813       59.619       42.497       42.494     3554.415     1805.978     1805.766        0.974        0.358      104.315       39.163        0.141      333.851        3.436      869.106
11/03/2014  08:51:00       85.447       73.072       35.853       42.863       26.360       27.972     1837.245      694.845      782.426        0.862        0.166      112.431       19.511        0.030      333.521        2.890      869.112
11/03/2014  08:52:00       11.070        3.921       38.639       25.763       49.710       20.552      663.755     2471.037      422.370        0.259        0.178       11.744        7.743        0.435      333.924        3.557      869.114
11/03/2014  08:53:00       42.965       30.730       21.209       32.378       27.414       25.028     1048.326      751.524      626.399        0.283        0.121       52.823        7.732        0.021      334.196        4.010      869.110
11/03/2014  08:54:00        7.176       57.541       64.750       41.072       56.338       50.046     1686.868     3173.957     2504.572        0.746        0.368       57.987       42.072        0.526      334.297        4.176      869.099
11/03/2014  08:55:00       51.855       86.228       86.985       58.648       54.885       51.124     3439.607     3012.310     2613.677        1.338        0.453      100.619       53.968        0.288      333.768        3.300      869.089
11/03/2014  08:56:00       91.806       59.074       35.958       50.409       38.254       38.946     2541.103     1463.338     1516.761        0.937        0.276      109.170       31.367        0.083      333.739        3.253      869.071
11/03/2014  08:57:00       32.557       80.338       85.170       41.733       34.826       20.003     1741.680     1212.816      400.106        0.906        0.168       86.684       17.036        0.039      333.810        3.368      869.057
11/03/2014  08:58:00       96.250       82.178       38.258       29.522       21.634       44.621      871.571      468.018     1991.061        1.041        0.167      126.560       17.435        0.019      333.525        2.895      869.049
11/03/2014  08:59:00       22.710       30.535       15.895       29.266       34.025       17.790      856.505     1157.705      316.484        0.202        0.117       38.055       12.038        0.100      333.937        3.580      869.044
11/03/2014  09:00:00       15.663       20.336       18.116       25.084       21.451       17.943      629.191      460.141      321.951        0.120        0.071       25.669       17.206        0.449      334.273        4.137      869.034
11/03/2014  09:01:00       16.631       58.212       77.116       35.778       48.627       38.205     1280.058     2364.618     1459.598        0.736        0.255       60.541       39.097        0.417      334.124        3.890      869.036
11/03/2014  09:02:00       23.750       79.039       87.078       27.932       28.769       14.997      780.207      827.629      224.906        0.811        0.092       82.530       15.119        0.034      333.952        3.605      869.042
11/03/2014  09:03:00       62.087       35.563       23.598       35.742       35.790       37.139     1277.487     1280.896     1379.280        0.481        0.197       71.550       28.436        0.158      333.890        3.502      869.063
11/03/2014  09:04:00       49.795        8.982       24.911       29.702       28.462       26.299      882.188      810.091      691.661        0.278        0.119       50.598       16.228        0.103      333.976        3.644      869.080
11/03/2014  09:05:00      -10.785        7.973        9.122       14.636       20.881       20.444      214.222      436.034      417.942        0.067        0.053       13.412       15.277        1.298      334.381        4.317      869.085
11/03/2014  09:06:00        0.027      -13.387      -18.252       11.811       23.297       18.376      139.503      542.742      337.689        0.077        0.051       13.387       13.469        1.012      334.135        3.908      869.105
11/03/2014  09:07:00       22.010       69.472       -4.636       31.828       33.830       23.224     1013.012     1144.460      539.344        0.401        0.135       72.875       18.278        0.063      334.114        3.873      869.099
11/03/2014  09:08:00        4.843       58.492        8.086       27.936       38.607       24.413      780.413     1490.533      596.016        0.319        0.143       58.692       20.882        0.127      334.506        4.523      869.090
11/03/2014  09:09:00       39.212       98.926       -5.733       26.065       38.633       27.280      679.373     1492.518      744.187        0.714        0.146      106.414       20.472        0.037      334.572        4.633      869.079
11/03/2014  09:10:00      107.260       71.153       -4.744       44.674       38.531       34.994     1995.750     1484.646     1224.573        1.065        0.235      128.715       12.895        0.010      334.132        3.904      869.068
11/03/2014  09:11:00        5.235       79.104        5.931       32.648       45.515       36.445     1065.868     2071.590     1328.258        0.539        0.223       79.277       34.373        0.188      334.330        4.231      869.056
11/03/2014  09:12:00       46.653       51.833        8.262       61.098       41.729       28.597     3733.006     1741.348      817.809        0.561        0.315       69.737       27.203        0.152      334.258        4.111      869.045
11/03/2014  09:13:00       96.333       90.322      -13.011       46.221       37.846       34.521     2136.364     1432.308     1191.665        1.118        0.238      132.054       23.967        0.033      334.052        3.770      869.030
11/03/2014  09:14:00       43.937       84.606       -8.631       31.517       58.578       31.708      993.315     3431.417     1005.377        0.730        0.272       95.334       34.262        0.129      334.173        3.972      869.035
11/03/2014  09:15:00       35.486       97.853       -5.339       36.213       48.931       34.490     1311.349     2394.265     1189.561        0.788        0.245      104.089       31.247        0.090      334.280        4.149      869.052
11/03/2014  09:16:00        8.900       73.743       -5.906       29.068       59.819       26.096      844.930     3578.257      680.981        0.533        0.255       74.278       25.921        0.122      334.222        4.052      869.056
11/03/2014  09:17:00       -8.583       67.330      -10.889       19.946       27.138       22.825      397.840      736.456      520.961        0.319        0.083       67.875       18.904        0.078      334.366        4.292      869.073
11/03/2014  09:18:00       15.327        4.675       24.642       31.286       14.449       22.760      978.830      208.779      518.031        0.128        0.085       16.024       16.578        1.070      334.916        5.205      869.090
11/03/2014  09:19:00        9.056      -13.202       29.918       30.188       57.104       38.781      911.299     3260.871     1503.934        0.341        0.284       16.010       12.401        0.600      335.008        5.356      869.081
11/03/2014  09:20:00       17.276        3.508       53.329       26.414       42.085       33.742      697.689     1771.113     1138.547        0.338        0.180       17.629       30.955        3.083      334.776        4.971      869.085
11/03/2014  09:21:00       15.588      -68.034      -14.774       22.742       36.131       30.649      517.220     1305.456      939.382        0.393        0.138       69.797       20.380        0.085      334.479        4.478      869.083
11/03/2014  09:22:00        5.040       33.206       19.951       39.062       54.337       54.877     1525.835     2952.493     3011.442        0.451        0.374       33.586       54.206        2.605      334.543        4.585      869.067
11/03/2014  09:23:00       44.843       17.149       45.145       51.714       43.186       30.631     2674.287     1865.003      938.288        0.491        0.274       48.010       23.099        0.231      334.739        4.910      869.060
11/03/2014  09:24:00       50.706      -33.262       23.254       40.070       59.156       35.153     1605.599     3499.405     1235.714        0.528        0.317       60.642       40.219        0.440      334.535        4.573      869.068
11/03/2014  09:25:00       31.797      -32.178       41.667       39.073       56.036       30.829     1526.737     3140.086      950.429        0.470        0.281       45.238       30.272        0.448      335.044        5.416      869.075
11/03/2014  09:26:00       30.868      -55.028       15.149       36.541       49.856       33.401     1335.278     2485.620     1115.623        0.457        0.247       63.095       29.274        0.215      334.819        5.043      869.071
11/03/2014  09:27:00       19.992       22.292       34.279       41.885       40.073       34.112     1754.393     1605.867     1163.634        0.330        0.226       29.944       23.862        0.635      335.220        5.709      869.075
11/03/2014  09:28:00       31.067      -35.177       20.322       49.759       84.557       47.211     2475.957     7149.957     2228.896        0.723        0.593       46.931       56.250        1.437      335.010        5.361      869.074
11/03/2014  09:29:00       69.721      -81.840        1.373       47.940       74.246       50.302     2298.237     5512.474     2530.307        1.095        0.517      107.512       52.238        0.236      334.672        4.800      869.080
11/03/2014  09:30:00       33.094      -36.966       10.193       29.248       45.971       34.704      855.431     2113.329     1204.360        0.337        0.209       49.616       31.495        0.403      334.677        4.808      869.089
11/03/2014  09:31:00       57.547       61.132       60.103       47.102       48.530       40.816     2218.589     2355.199     1665.943        0.845        0.312       83.956       28.863        0.118      334.673        4.801      869.092
11/03/2014  09:32:00       64.957       87.644       36.496       62.959       43.846       65.263     3963.805     1922.512     4259.247        1.169        0.507      109.091       45.058        0.171      334.721        4.880      869.084
11/03/2014  09:33:00       90.705       52.826        5.491       54.226       32.876       32.100     2940.468     1080.855     1030.442        0.805        0.253      104.967        6.204        0.003      334.720        4.879      869.086
11/03/2014  09:34:00       82.380      114.269       94.538       57.743       47.589       44.339     3334.257     2264.700     1965.980        1.817        0.378      140.868       26.700        0.036      334.728        4.892      869.088
11/03/2014  09:35:00       46.399       81.584       91.850       68.504       48.543       28.578     4692.772     2356.414      816.704        1.255        0.393       93.855       28.968        0.095      335.029        5.392      869.085
11/03/2014  09:36:00       15.062       24.931       10.711       45.917       47.210       33.307     2108.363     2228.808     1109.361        0.320        0.272       29.128       21.451        0.542      335.121        5.545      869.092
11/03/2014  09:37:00      -14.735       -3.854        9.971       19.285       23.124       18.863      371.893      534.732      355.821        0.080        0.063       15.230       13.394        0.773      335.283        5.814      869.100
11/03/2014  09:38:00       15.189       59.210       12.758       27.247       49.773       36.343      742.377     2477.358     1320.845        0.422        0.227       61.127       32.117        0.276      335.278        5.808      869.090
11/03/2014  09:39:00       43.636       67.943       88.687       50.641       56.919       38.349     2564.528     3239.794     1470.678        1.083        0.364       80.749       23.983        0.088      335.132        5.564      869.089
11/03/2014  09:40:00      104.352       88.795       44.559       34.729       24.915       39.270     1206.098      620.766     1542.149        1.206        0.168      137.018       22.118        0.026      334.656        4.772      869.104
11/03/2014  09:41:00       77.068       90.955       57.982       65.504       53.077       53.165     4290.748     2817.205     2826.558        1.375        0.497      119.215       39.220        0.108      335.071        5.461      869.101
11/03/2014  09:42:00       59.571       78.119       46.856       52.184       36.721       46.343     2723.173     1348.423     2147.708        0.903        0.311       98.241       35.388        0.130      334.751        4.929      869.117
11/03/2014  09:43:00       46.364       34.085       57.561       32.376       33.559       31.712     1048.236     1126.236     1005.622        0.490        0.159       57.545       16.073        0.078      334.954        5.268      869.124
11/03/2014  09:44:00       81.219       75.489       38.722       68.807       38.984       48.203     4734.392     1519.746     2323.534        1.118        0.429      110.884       46.638        0.177      334.921        5.212      869.123
11/03/2014  09:45:00       83.583       69.170       26.942       42.294       36.503       37.563     1788.764     1332.448     1410.992        0.851        0.227      108.493       28.263        0.068      334.948        5.258      869.126
11/03/2014  09:46:00       17.962      -15.473       10.625       30.542       72.102       52.075      932.785     5198.770     2711.834        0.476        0.442       23.707       52.701        4.942      335.154        5.601      869.123
11/03/2014  09:47:00       27.648       81.520      102.177       49.401       44.272       41.364     2440.425     1960.029     1710.972        1.198        0.306       86.081       39.857        0.214      335.080        5.477      869.123
11/03/2014  09:48:00      133.733      102.022       31.125       55.168       40.781       39.983     3043.543     1663.095     1598.657        1.778        0.315      168.205       34.351        0.042      334.885        5.151      869.112
11/03/2014  09:49:00       43.377       65.246       43.938       53.454       41.663       40.243     2857.366     1735.811     1619.479        0.714        0.311       78.349       19.625        0.063      335.180        5.642      869.105
11/03/2014  09:50:00       66.584       25.735       16.673       67.020       50.286       31.076     4491.714     2528.679      965.721        0.668        0.399       71.385       16.269        0.052      335.117        5.538      869.100
11/03/2014  09:51:00        5.461      -12.667      -11.574       37.158       26.503       21.411     1380.701      702.424      458.423        0.143        0.127       13.794       13.678        0.983      335.354        5.932      869.117
11/03/2014  09:52:00       61.098        3.509       13.533       60.459       48.183       37.204     3655.256     2321.598     1384.120        0.564        0.368       61.198       23.878        0.152      335.505        6.185      869.127
11/03/2014  09:53:00       56.280       61.771        9.789       33.946       29.847       29.341     1152.299      890.836      860.870        0.499        0.145       83.565       15.694        0.035      335.272        5.797      869.135
11/03/2014  09:54:00        3.141        4.447       13.543       21.442       19.833       19.056      459.779      393.340      363.121        0.071        0.061        5.445       16.146        8.793      335.942        6.913      869.143
11/03/2014  09:55:00       -1.571       21.088       53.400       25.187       22.769       17.973      634.400      518.421      323.028        0.239        0.074       21.146       15.714        0.552      335.930        6.891      869.153
11/03/2014  09:56:00       19.009       67.067       74.460       43.955       62.819       33.751     1932.085     3946.228     1139.099        0.871        0.351       69.709       38.342        0.303      335.435        6.067      869.160
11/03/2014  09:57:00       25.012       20.726       33.741       37.601       39.459       31.974     1413.819     1556.987     1022.329        0.309        0.200       32.483       23.427        0.520      335.486        6.153      869.156
11/03/2014  09:58:00       92.935       64.505       50.489       75.972       50.370       59.987     5771.672     2537.172     3598.494        1.362        0.595      113.127       54.638        0.233      335.354        5.933      869.163
11/03/2014  09:59:00      114.822       72.476       22.645       51.522       41.977       41.759     2654.493     1762.027     1743.819        1.255        0.308      135.783       26.211        0.037      335.002        5.347      869.173
11/03/2014  10:00:00       49.406       -4.925       43.927       46.872       48.880       28.216     2196.964     2389.225      796.127        0.489        0.269       49.651       31.259        0.396      335.328        5.891      869.182
11/03/2014  10:01:00      104.055       56.311       19.398       75.617       53.297       46.494     5717.888     2840.593     2161.702        1.255        0.536      118.314       42.341        0.128      335.471        6.127      869.191
11/03/2014  10:02:00      125.067       79.172       -3.881       45.336       58.294       37.851     2055.372     3398.225     1432.677        1.440        0.344      148.020       24.148        0.027      335.381        5.975      869.203
11/03/2014  10:03:00      132.901       97.748        6.273       44.039       34.319       34.962     1939.439     1177.810     1222.329        1.580        0.217      164.977       14.953        0.008      335.045        5.418      869.206
11/03/2014  10:04:00       45.099       50.271       13.381       48.439       28.579       33.112     2346.332      816.750     1096.409        0.450        0.213       67.536       20.011        0.088      335.391        5.994      869.195
11/03/2014  10:05:00       38.969       49.235       15.359       36.747       43.767       30.226     1350.307     1915.543      913.619        0.418        0.209       62.791       19.665        0.098      335.543        6.247      869.193
11/03/2014  10:06:00       -9.469       60.948        6.497       30.961       50.336       27.946      958.612     2533.714      780.973        0.406        0.214       61.679       28.978        0.221      335.595        6.335      869.185
11/03/2014  10:07:00       61.867       52.085       11.170       37.348       27.108       29.054     1394.870      734.819      844.128        0.482        0.149       80.873       21.272        0.069      335.957        6.936      869.195
11/03/2014  10:08:00       81.827       61.224       28.957       51.826       39.074       38.093     2685.929     1526.765     1451.113        0.847        0.283      102.196       24.669        0.058      336.028        7.055      869.191
11/03/2014  10:09:00      107.804       99.298        4.377       46.593       40.956       29.371     2170.879     1677.368      862.655        1.310        0.236      146.567       10.556        0.005      335.335        5.900      869.210
11/03/2014  10:10:00       83.063       89.481       26.858       47.077       32.144       37.603     2216.263     1033.237     1414.003        1.014        0.233      122.091       31.930        0.068      335.194        5.666      869.220
11/03/2014  10:11:00       27.005       46.852       12.508       32.751       20.566       36.422     1072.653      422.976     1326.551        0.295        0.141       54.078       26.370        0.238      335.423        6.047      869.234
11/03/2014  10:12:00       79.752       48.845       17.455       34.364       26.570       33.225     1180.881      705.987     1103.876        0.602        0.150       93.522       12.852        0.019      335.375        5.967      869.239
11/03/2014  10:13:00        1.741       86.037        0.597       28.776       40.652       30.167      828.082     1652.622      910.023        0.540        0.170       86.055       24.411        0.080      335.635        6.400      869.258
11/03/2014  10:14:00      128.506       80.386       26.044       60.193       38.932       44.681     3623.179     1515.664     1996.389        1.539        0.357      151.577       30.954        0.042      335.759        6.606      869.261
11/03/2014  10:15:00       48.776       82.643       80.531       54.870       49.989       48.004     3010.717     2498.938     2304.357        1.175        0.391       95.964       33.387        0.121      335.889        6.823      869.266
11/03/2014  10:16:00      105.944       74.437       32.307       32.525       32.481       43.486     1057.865     1055.030     1891.053        1.091        0.200      129.480       20.414        0.025      335.517        6.203      869.280
11/03/2014  10:17:00       68.478       52.813        6.684       56.240       36.035       33.307     3162.943     1298.526     1109.368        0.655        0.279       86.478       21.698        0.063      335.819        6.707      869.289
11/03/2014  10:18:00      113.593       80.796       27.798       45.093       37.245       35.809     2033.360     1387.184     1282.295        1.245        0.235      139.397       29.714        0.045      335.586        6.320      869.302
11/03/2014  10:19:00       24.515       20.413       29.623       32.339       30.808       20.652     1045.840      949.146      426.514        0.216        0.121       31.901       16.284        0.261      335.749        6.590      869.317
11/03/2014  10:20:00       -9.326       -4.092       41.991       23.237       42.840       21.815      539.956     1835.271      475.891        0.236        0.143       10.184       22.695        4.966      335.997        7.003      869.314
11/03/2014  10:21:00       52.668      -61.819       12.996       49.392       63.767       41.580     2439.592     4066.226     1728.856        0.750        0.412       81.212       42.827        0.278      335.814        6.700      869.307
11/03/2014  10:22:00      -22.153       -2.438       31.374       34.581       45.052       38.865     1195.865     2029.642     1510.506        0.311        0.237       22.287       37.978        2.904      336.075        7.133      869.317
11/03/2014  10:23:00      -15.088       -3.418       35.730       22.135       38.016       40.603      489.972     1445.252     1648.638        0.255        0.179       15.470       28.390        3.368      336.249        7.424      869.324
11/03/2014  10:24:00       17.796      -12.774       35.016       28.651       39.673       26.471      820.902     1573.964      700.699        0.240        0.155       21.906       26.347        1.447      336.269        7.458      869.336
11/03/2014  10:25:00       -5.758        4.237       46.658       37.233       39.316       32.573     1386.315     1545.777     1061.022        0.311        0.200        7.149       31.893       19.901      336.261        7.444      869.328
11/03/2014  10:26:00        5.131       20.894       51.267       22.646       26.967       22.965      512.852      727.195      527.410        0.243        0.088       21.515       19.491        0.821      336.524        7.884      869.328
11/03/2014  10:27:00       13.111       16.674       -3.221       24.554       39.198       14.184      602.887     1536.452      201.173        0.140        0.117       21.211       13.204        0.387      336.123        7.214      869.327
11/03/2014  10:28:00       10.961      -23.339        8.691       27.896       33.002       23.250      778.210     1089.113      540.555        0.157        0.120       25.785       24.358        0.892      336.240        7.410      869.328
11/03/2014  10:29:00      -26.917       35.293       29.067       40.980       28.064       25.729     1679.346      787.601      661.983        0.297        0.156       44.386       26.657        0.361      336.070        7.126      869.322
11/03/2014  10:30:00        4.873       26.916       18.759       30.101       30.559       24.905      906.056      933.844      620.259        0.178        0.123       27.354       12.629        0.213      336.403        7.681      869.328
11/03/2014  10:31:00      -20.971        6.377       17.877       27.914       42.563       24.162      779.192     1811.651      583.823        0.199        0.159       21.919       19.433        0.786      336.225        7.384      869.320
11/03/2014  10:32:00       55.071       36.773       63.748       42.567       36.239       37.102     1811.938     1313.281     1376.584        0.647        0.225       66.220       28.752        0.189      336.130        7.225      869.319
11/03/2014  10:33:00       78.165       67.441       38.566       39.355       34.794       39.017     1548.802     1210.644     1522.350        0.821        0.214      103.238       22.700        0.048      335.670        6.458      869.309
11/03/2014  10:34:00       46.329       30.151       -0.266       34.399       32.127       21.291     1183.278     1032.167      453.313        0.286        0.133       55.277       25.034        0.205      335.490        6.159      869.311
11/03/2014  10:35:00      -36.644        3.617      -10.553       18.871       30.335       11.180      356.109      920.219      124.994        0.143        0.070       36.823        7.447        0.041      335.612        6.363      869.285
11/03/2014  10:36:00       34.234       39.227        4.667       32.118       30.523       27.774     1031.569      931.640      771.370        0.273        0.137       52.065       12.294        0.056      336.017        7.037      869.272
11/03/2014  10:37:00       44.232       51.305       18.400       29.470       38.492       31.377      868.478     1481.600      984.530        0.413        0.167       67.740       13.126        0.038      336.192        7.330      869.249
11/03/2014  10:38:00       -0.356        9.856       23.495       22.333       16.092       12.598      498.768      258.968      158.705        0.078        0.046        9.862        9.708        0.969      336.883        8.484      869.238
11/03/2014  10:39:00       12.554       48.224       76.030       39.514       54.490       38.677     1561.356     2969.173     1495.878        0.714        0.301       49.831       41.504        0.694      336.422        7.713      869.221
11/03/2014  10:40:00       22.040       52.920       78.944       35.983       53.346       39.444     1294.771     2845.755     1555.812        0.761        0.285       57.327       31.912        0.310      336.268        7.457      869.200
11/03/2014  10:41:00       27.020      -48.365       30.809       58.219       92.790       53.262     3389.506     8609.921     2836.848        0.942        0.742       55.401       53.499        0.933      336.554        7.933      869.195
11/03/2014  10:42:00       26.568       27.421       91.697       52.888       46.566       41.497     2797.139     2168.406     1721.973        0.828        0.334       38.180       27.802        0.530      336.475        7.802      869.209
11/03/2014  10:43:00       75.746       -6.674       40.718       77.746       53.290       45.731     6044.438     2839.858     2091.367        0.921        0.549       76.040       43.512        0.327      336.233        7.398      869.222
11/03/2014  10:44:00       46.635       12.952       28.627       74.470       67.084       33.920     5545.792     4500.231     1150.569        0.718        0.560       48.401       27.165        0.315      336.240        7.409      869.215
11/03/2014  10:45:00       97.363      -99.174        7.691       90.589       72.037       59.572     8206.319     5189.379     3548.792        1.816        0.847      138.979       58.712        0.178      336.327        7.553      869.224
11/03/2014  10:46:00       69.966      -66.084       37.918       59.511      104.333       58.069     3541.513    10885.392     3372.013        1.425        0.890       96.241       65.337        0.461      336.574        7.966      869.233
11/03/2014  10:47:00       42.008      -29.254       29.183       57.558      121.107       49.444     3312.936    14666.808     2444.755        1.194        1.021       51.190       69.588        1.848      336.447        7.754      869.240
11/03/2014  10:48:00       63.974      -69.474        6.622       43.542       42.231       36.164     1895.910     1783.416     1307.829        0.697        0.249       94.442       33.701        0.127      336.221        7.377      869.250
11/03/2014  10:49:00       28.967       37.729       69.472       47.627       48.192       37.603     2268.309     2322.473     1414.005        0.655        0.300       47.566       29.975        0.397      336.510        7.860      869.234
11/03/2014  10:50:00      136.961      104.256       52.452       40.833       31.051       36.181     1667.329      964.188     1309.066        1.816        0.197      172.127       18.892        0.012      335.972        6.961      869.241
11/03/2014  10:51:00       48.712       33.936       34.750       53.041       54.737       49.900     2813.323     2996.151     2490.016        0.651        0.415       59.367       34.275        0.333      336.387        7.654      869.249
11/03/2014  10:52:00       36.364       20.294        1.205       35.427       27.497       30.884     1255.089      756.112      953.836        0.235        0.148       41.644       12.015        0.083      336.560        7.945      869.256
11/03/2014  10:53:00       14.937        0.582       21.270       36.336       54.175       26.242     1320.288     2934.984      688.643        0.281        0.247       14.948       16.913        1.280      336.745        8.253      869.240
11/03/2014  10:54:00       59.674       24.032       60.359       68.611      111.840       78.316     4707.402    12508.273     6133.460        1.556        1.167       64.332       79.867        1.541      336.403        7.680      869.216
11/03/2014  10:55:00      109.382       81.833       48.760       42.302       41.750       52.332     1789.444     1743.060     2738.618        1.365        0.314      136.606       34.480        0.064      335.946        6.919      869.203
11/03/2014  10:56:00       80.255       67.417       74.399       52.695       82.483       50.194     2776.731     6803.408     2519.468        1.431        0.605      104.814       55.144        0.277      336.230        7.390      869.167
11/03/2014  10:57:00       52.055       62.383       85.385       64.604       51.685       38.569     4173.632     2671.325     1487.533        1.111        0.417       81.249       34.022        0.175      336.646        8.087      869.149
11/03/2014  10:58:00       40.330       82.720      101.181       49.250       55.215       43.790     2425.546     3048.706     1917.558        1.305        0.370       92.028       41.960        0.208      336.416        7.703      869.138
11/03/2014  10:59:00       40.629      -19.071        1.543       43.222       33.383       41.960     1868.182     1114.456     1760.639        0.338        0.237       44.882       29.170        0.422      336.297        7.503      869.123
11/03/2014  11:00:00       95.352      -90.577       10.575       47.591       78.391       43.058     2264.917     6145.209     1854.018        1.383        0.513      131.516       44.423        0.114      336.208        7.356      869.097
11/03/2014  11:01:00       24.153       45.633       39.089       37.733       43.540       29.861     1423.806     1895.695      891.693        0.420        0.211       51.631       30.346        0.345      336.582        7.980      869.095
11/03/2014  11:02:00       20.696       26.757       21.562       39.790       56.976       26.652     1583.250     3246.228      710.334        0.357        0.277       33.827       13.527        0.160      336.723        8.216      869.055
11/03/2014  11:03:00      -29.022      -11.131       -3.463       22.060       23.232       21.362      486.657      539.732      456.323        0.123        0.074       31.083       11.318        0.133      336.714        8.201      869.051
11/03/2014  11:04:00       51.949      -83.443      -10.419       77.941       91.288       52.655     6074.760     8333.429     2772.498        1.347        0.859       98.293       52.122        0.281      336.607        8.020      869.060
11/03/2014  11:05:00       66.598      -33.832       37.573       97.993       86.144       63.810     9602.581     7420.786     4071.762        1.404        1.055       74.699       73.141        0.959      336.578        7.973      869.049
11/03/2014  11:06:00       41.601      -69.242        4.102       54.364      119.059       35.102     2955.464    14175.141     1232.166        1.245        0.918       80.778       56.086        0.482      336.378        7.639      869.070
11/03/2014  11:07:00       69.591      -99.803       -6.476       53.746       58.617       45.780     2888.652     3435.996     2095.811        1.163        0.421      121.669       40.544        0.111      336.533        7.898      869.070
11/03/2014  11:08:00       36.563     -122.995      -14.941       39.220       70.487       45.832     1538.179     4968.366     2100.580        1.265        0.430      128.314       45.218        0.124      336.620        8.044      869.038
11/03/2014  11:09:00      -28.996      -23.900       -1.118       41.528       43.895       31.516     1724.605     1926.804      993.249        0.303        0.232       37.576       26.363        0.492      336.918        8.541      869.011
11/03/2014  11:10:00       18.971      -23.324       13.810      103.889       68.186       55.150    10793.004     4649.387     3041.482        0.979        0.924       30.065       50.368        2.807      336.798        8.342      868.974
11/03/2014  11:11:00       79.825     -149.660      -10.493       68.735       80.079       46.628     4724.519     6412.709     2174.161        2.109        0.666      169.618       37.570        0.049      336.824        8.382      868.959
11/03/2014  11:12:00       31.950       67.618       27.992       46.332       56.571       52.881     2146.630     3200.305     2796.428        0.726        0.407       74.786       25.634        0.117      337.003        8.683      868.957
11/03/2014  11:13:00       52.867       36.073        1.700       49.028       41.028       27.599     2403.727     1683.270      761.731        0.447        0.242       64.001       21.484        0.113      337.003        8.684      868.952
11/03/2014  11:14:00       19.142       27.475       30.054       26.924       42.461       27.374      724.909     1802.971      749.352        0.265        0.164       33.486       19.172        0.328      337.378        9.311      868.953
11/03/2014  11:15:00        8.867      -26.541       31.801       28.496       50.607       47.524      812.020     2561.093     2258.553        0.371        0.282       27.983       39.698        2.013      337.274        9.136      868.931
11/03/2014  11:16:00      157.554      105.627       36.294       54.450       40.844       52.880     2964.784     1668.242     2796.329        2.236        0.371      189.685       42.102        0.049      336.547        7.921      868.918
11/03/2014  11:17:00       13.942       37.184       38.166       50.447       86.725       53.585     2544.899     7521.236     2871.402        0.798        0.647       39.712       54.926        1.913      336.732        8.230      868.882
11/03/2014  11:18:00       78.687       43.154       17.033       77.116       55.582       35.346     5946.947     3089.406     1249.322        0.931        0.514       89.743       19.663        0.048      336.859        8.443      868.865
11/03/2014  11:19:00       88.360       74.100       13.399       77.120       48.191       49.285     5947.438     2322.388     2429.027        1.209        0.535      115.318       36.690        0.101      336.953        8.599      868.847
11/03/2014  11:20:00      143.039      117.461       31.552       52.295       47.415       54.589     2734.756     2248.136     2979.913        2.161        0.398      185.087       31.712        0.029      336.667        8.120      868.840
11/03/2014  11:21:00       38.186       24.608       44.583       32.505       49.793       27.300     1056.604     2479.339      745.309        0.417        0.214       45.428       24.454        0.290      337.203        9.018      868.846
11/03/2014  11:22:00       10.733       -1.854       29.442       30.155       45.901       35.701      909.306     2106.882     1274.577        0.264        0.215       10.891       40.691       13.958      337.140        8.913      868.825
11/03/2014  11:23:00       32.919       43.306       62.358       46.998       71.968       68.816     2208.791     5179.399     4735.611        0.948        0.606       54.398       61.944        1.297      337.095        8.838      868.804
11/03/2014  11:24:00       12.702       70.631      106.725       63.210       90.704       60.905     3995.484     8227.285     3709.412        1.623        0.797       71.764       61.595        0.737      336.799        8.342      868.784
11/03/2014  11:25:00       85.279       61.780       53.309       62.351       41.627       34.750     3887.675     1732.817     1207.547        1.038        0.341      105.305       25.453        0.058      336.684        8.150      868.772
11/03/2014  11:26:00       89.083       37.352       19.972       62.455       53.867       38.596     3900.582     2901.706     1489.670        0.901        0.415       96.596       32.281        0.112      336.879        8.477      868.768
11/03/2014  11:27:00      180.557      107.370       18.509       60.675       47.732       43.172     3681.480     2278.345     1863.831        2.615        0.391      210.069       26.998        0.017      336.664        8.113      868.763
11/03/2014  11:28:00      117.223      112.643       -6.179       89.141       49.505       45.376     7946.141     2450.742     2058.993        1.946        0.623      162.572       26.963        0.028      336.637        8.071      868.760
11/03/2014  11:29:00       67.286       44.289       23.200       32.961       33.374       31.578     1086.415     1113.804      997.162        0.511        0.160       80.554       24.625        0.093      336.823        8.385      868.758
11/03/2014  11:30:00      115.506      103.318       21.517       60.928       40.487       44.607     3712.177     1639.223     1989.760        1.591        0.367      154.972       16.635        0.012      336.778        8.307      868.739
11/03/2014  11:31:00      126.332       91.452       16.961       71.721       55.450       46.742     5143.899     3074.722     2184.832        1.751        0.520      155.959       26.003        0.028      336.792        8.330      868.731
11/03/2014  11:32:00      110.702       91.815       -1.258       64.830       64.124       33.652     4202.888     4111.881     1132.485        1.507        0.472      143.823       33.783        0.055      336.861        8.446      868.737
11/03/2014  11:33:00      -12.257       31.330        4.416       26.456       35.417       30.613      699.939     1254.381      937.150        0.202        0.145       33.642       16.723        0.247      337.100        8.845      868.741
11/03/2014  11:34:00        5.549       19.316        2.638       20.672       18.857       27.648      427.329      355.583      764.421        0.098        0.077       20.097       17.049        0.720      337.134        8.903      868.734
11/03/2014  11:35:00       -9.611       14.326       -5.306       18.121       21.213       17.716      328.367      449.992      313.862        0.071        0.055       17.251       10.352        0.360      337.076        8.805      868.725
11/03/2014  11:36:00       -0.474        4.234       14.018       10.202       12.956       13.921      104.083      167.856      193.797        0.034        0.023        4.261        7.115        2.789      337.961       10.290      868.709
11/03/2014  11:37:00       -5.808       61.201       -0.344       33.941       52.022       28.678     1152.020     2706.322      822.415        0.423        0.234       61.476       19.756        0.103      336.952        8.600      868.687
11/03/2014  11:38:00      -31.508       53.580      -16.991       20.665       39.222       26.133      427.030     1538.332      682.929        0.340        0.132       62.157       10.526        0.029      336.746        8.255      868.673
11/03/2014  11:39:00       17.490       47.212       22.142       52.501       29.202       39.428     2756.344      852.769     1554.561        0.409        0.258       50.347       36.395        0.523      336.968        8.626      868.659
11/03/2014  11:40:00        5.846      -22.438       41.404       43.835       71.044       31.284     1921.511     5047.217      978.689        0.510        0.397       23.187       33.651        2.106      337.646        9.761      868.660
11/03/2014  11:41:00       49.787       25.899       74.779       80.844      137.014       92.844     6535.713    18772.764     8620.093        2.133        1.696       56.120      112.764        4.037      337.328        9.226      868.647
11/03/2014  11:42:00       57.869       28.576       30.007       52.915       45.523       31.950     2800.008     2072.332     1020.824        0.548        0.295       64.540       11.934        0.034      337.525        9.557      868.648
11/03/2014  11:43:00      148.477      114.010       29.173       69.596       51.235       45.967     4843.649     2625.026     2113.010        2.274        0.479      187.200       30.868        0.027      336.994        8.666      868.635
11/03/2014  11:44:00      113.069      102.007        9.745       60.469       63.344       56.467     3656.485     4012.508     3188.501        1.707        0.543      152.283       38.977        0.066      336.866        8.454      868.634
11/03/2014  11:45:00       25.171       69.806       -1.027       32.604       70.070       32.336     1063.036     4909.861     1045.629        0.626        0.351       74.206       38.330        0.267      337.142        8.916      868.622
11/03/2014  11:46:00       34.992       41.790       16.805       38.098       32.786       26.573     1451.422     1074.944      706.118        0.324        0.162       54.505       18.705        0.118      337.167        8.959      868.598
11/03/2014  11:47:00      170.804      114.397       46.274       84.710       66.437       64.970     7175.795     4413.822     4221.102        3.010        0.791      205.574       39.927        0.038      337.140        8.912      868.562
11/03/2014  11:48:00      164.650      111.237       13.498       58.521       58.903       63.235     3424.708     3469.515     3998.606        2.528        0.545      198.704       28.256        0.020      337.170        8.961      868.544
11/03/2014  11:49:00      149.420       75.253       20.128       70.535       81.959       59.395     4975.206     6717.296     3527.738        2.180        0.761      167.300       34.892        0.043      337.094        8.834      868.548
11/03/2014  11:50:00       84.675       55.606       57.235       70.771       75.731       69.238     5008.564     5735.171     4793.838        1.453        0.777      101.301       56.269        0.309      337.438        9.411      868.533
11/03/2014  11:51:00       74.208       98.220       77.805       81.762       46.722       45.072     6685.104     2182.915     2031.522        1.605        0.545      123.102       35.718        0.084      337.509        9.530      868.548
11/03/2014  11:52:00       93.534      145.164      140.576      123.144       58.075       57.192    15164.418     3372.723     3270.961        3.569        1.090      172.689       61.788        0.128      337.577        9.642      868.553
11/03/2014  11:53:00      162.398      138.181       65.554       93.783       52.386       53.341     8795.178     2744.328     2845.285        3.207        0.719      213.231       38.274        0.032      337.209        9.027      868.562
11/03/2014  11:54:00       54.223       81.648       18.201       45.944       40.359       34.704     2110.855     1628.883     1204.347        0.744        0.247       98.013       28.985        0.087      337.009        8.696      868.570
11/03/2014  11:55:00       95.958       84.820       28.285       71.839       56.058       47.261     5160.782     3142.448     2233.571        1.387        0.527      128.072       41.167        0.103      336.966        8.622      868.544
11/03/2014  11:56:00      165.004       77.004       17.445       55.379       77.119       59.109     3066.778     5947.276     3493.929        2.298        0.625      182.087       33.668        0.034      336.869        8.458      868.530
11/03/2014  11:57:00       87.282      -15.349       15.296       73.452       76.211       44.749     5395.262     5808.058     2002.462        1.064        0.660       88.622       32.219        0.132      337.112        8.866      868.513
11/03/2014  11:58:00       49.023      -21.265       34.783       50.376       79.032       47.550     2537.747     6246.123     2261.029        0.755        0.552       53.437       43.263        0.655      337.488        9.495      868.505
11/03/2014  11:59:00      121.234       68.752       51.518       77.708       57.078       62.581     6038.568     3257.929     3916.349        1.764        0.661      139.372       47.465        0.116      337.455        9.438      868.514
11/03/2014  12:00:00       88.375       72.267       29.121       71.934       62.676       64.959     5174.463     3928.267     4219.703        1.360        0.666      114.161       27.342        0.057      337.418        9.377      868.512
11/03/2014  12:01:00      104.181       95.294       34.216       56.071       54.467       65.544     3143.956     2966.699     4296.075        1.575        0.520      141.191       47.131        0.111      337.200        9.012      868.520
11/03/2014  12:02:00      149.970       80.565        8.704       64.975       52.415       30.686     4221.737     2747.367      941.602        1.848        0.396      170.240       18.658        0.012      336.994        8.670      868.523
11/03/2014  12:03:00       27.733       43.017       19.313       42.329       37.503       33.096     1791.738     1406.442     1095.337        0.364        0.215       51.182       24.471        0.229      337.363        9.287      868.515
11/03/2014  12:04:00       96.753       72.428       -3.711       53.046       44.590       36.570     2813.848     1988.297     1337.379        1.038        0.307      120.859       31.835        0.069      337.147        8.926      868.491
11/03/2014  12:05:00       19.702       43.946        5.735       53.622       38.964       32.556     2875.338     1518.202     1059.865        0.390        0.273       48.161       23.741        0.243      337.218        9.043      868.470
11/03/2014  12:06:00      -18.282       97.333      -16.631       24.719       35.599       18.731      611.051     1267.258      350.847        0.616        0.111       99.035       11.758        0.014      337.063        8.784      868.440
11/03/2014  12:07:00      -22.122      103.267      -15.258       19.542       24.736       20.515      381.873      611.860      420.886        0.640        0.071      105.610       12.881        0.015      337.165        8.955      868.405
11/03/2014  12:08:00        4.385       51.704       -2.917       26.487       36.291       21.432      701.581     1317.048      459.315        0.259        0.124       51.890       11.172        0.046      337.589        9.666      868.382
11/03/2014  12:09:00       30.723       30.805       53.363       39.812       55.253       46.342     1585.028     3052.869     2147.548        0.576        0.339       43.506       29.132        0.448      337.712        9.871      868.365
11/03/2014  12:10:00       38.181       67.446       82.554       76.825       78.659       55.506     5902.032     6187.229     3080.919        1.399        0.759       77.503       54.182        0.489      337.868       10.133      868.329
11/03/2014  12:11:00      116.378       88.107        3.685       83.682       63.207       53.161     7002.661     3995.116     2826.066        1.757        0.691      145.968       38.714        0.070      337.677        9.812      868.325
11/03/2014  12:12:00      155.920       97.021        7.648       59.777       47.285       44.850     3573.316     2235.826     2011.521        2.080        0.391      183.641       25.053        0.019      337.292        9.166      868.300
11/03/2014  12:13:00       77.132       17.541       17.162       60.331       48.095       29.274     3639.816     2313.131      856.989        0.668        0.340       79.101       20.486        0.067      337.733        9.906      868.278
11/03/2014  12:14:00       75.196       59.119       31.439       61.319       46.122       52.958     3759.983     2127.278     2804.559        0.941        0.435       95.653       39.692        0.172      337.764        9.958      868.268
11/03/2014  12:15:00       54.525       56.014       33.751       64.042       40.307       32.361     4101.434     1624.620     1047.226        0.701        0.339       78.170       24.682        0.100      337.655        9.775      868.240
11/03/2014  12:16:00       55.634       12.379        9.363       49.852       46.274       30.823     2485.172     2141.302      950.064        0.446        0.279       56.995       22.195        0.152      337.756        9.945      868.238
11/03/2014  12:17:00      -19.740       16.659       19.108       67.449       54.363       42.318     4549.408     2955.324     1790.808        0.516        0.465       25.830       39.746        2.368      338.186       10.667      868.207
11/03/2014  12:18:00       26.217        9.698       55.443       43.781       77.913       42.855     1916.762     6070.495     1836.558        0.684        0.491       27.954       41.455        2.199      338.340       10.926      868.182
11/03/2014  12:19:00       34.754       -7.763       42.828       57.756       79.919       61.778     3335.808     6387.015     3816.526        0.832        0.677       35.611       68.192        3.667      338.280       10.825      868.184
11/03/2014  12:20:00       91.895     -141.311       -2.608       63.934       85.226       48.896     4087.582     7263.482     2390.798        2.108        0.687      168.563       44.417        0.069      337.900       10.185      868.172
11/03/2014  12:21:00      172.171     -191.465      -29.713       55.063       44.357       29.779     3031.981     1967.559      886.792        3.653        0.294      257.491       29.246        0.013      337.201        9.012      868.166
11/03/2014  12:22:00       76.773     -107.183       -4.899       57.619       48.468       34.973     3319.986     2349.166     1223.112        1.215        0.345      131.842       37.088        0.079      337.495        9.508      868.178
11/03/2014  12:23:00       71.854     -129.303      -17.464       46.414       57.400       34.376     2154.289     3294.807     1181.742        1.441        0.332      147.927       19.427        0.017      337.592        9.670      868.180
11/03/2014  12:24:00      111.610     -169.701      -13.684       86.018       83.075       53.157     7399.043     6901.463     2825.688        2.928        0.856      203.114       54.479        0.072      337.679        9.813      868.163
11/03/2014  12:25:00       44.569       76.340      105.131       72.480       94.827       74.386     5253.364     8992.178     5533.252        1.932        0.989       88.398       84.000        0.903      337.787        9.995      868.152
11/03/2014  12:26:00       82.810      -52.964       23.355       42.557       85.698       59.855     1811.059     7344.066     3582.606        1.147        0.637       98.299       60.135        0.374      337.573        9.637      868.156
11/03/2014  12:27:00      100.355      -74.530       21.819       89.828      102.408       63.709     8069.143    10487.455     4058.871        1.935        1.131      125.004       83.281        0.444      337.822       10.054      868.127
11/03/2014  12:28:00       10.477       37.324       93.657       36.790       71.258       44.308     1353.509     5077.712     1963.197        0.933        0.420       38.767       46.542        1.441      338.007       10.367      868.115
11/03/2014  12:29:00      112.317       70.147       16.917       73.572       57.012       42.382     5412.773     3250.406     1796.234        1.414        0.523      132.422       22.385        0.029      337.684        9.823      868.122
11/03/2014  12:30:00      125.926       88.627       18.550       51.683       51.338       46.663     2671.118     2635.575     2177.466        1.577        0.374      153.987       23.724        0.024      337.585        9.659      868.126
11/03/2014  12:31:00      112.239       82.222       -5.195       32.115       40.928       25.489     1031.357     1675.093      649.703        1.137        0.168      139.133       11.800        0.007      337.356        9.274      868.135
11/03/2014  12:32:00      129.283      121.745       67.512       74.934       66.484       62.871     5615.146     4420.114     3952.705        2.504        0.699      177.584       46.099        0.067      337.739        9.914      868.127
11/03/2014  12:33:00      112.266       95.004       68.921       83.176       82.736       49.463     6918.315     6845.281     2446.598        2.129        0.811      147.070       36.662        0.062      337.553        9.605      868.134
11/03/2014  12:34:00       71.316       -8.342       35.782       60.190       45.615       34.222     3622.799     2080.750     1171.133        0.665        0.344       71.802       25.629        0.127      337.787        9.997      868.133
11/03/2014  12:35:00       23.359     -130.732      -15.717       45.042       43.776       40.511     2028.827     1916.370     1641.161        1.173        0.279      132.803       22.995        0.030      337.925       10.228      868.114
11/03/2014  12:36:00       81.604     -133.485      -14.080       69.610       68.030       44.466     4845.500     4628.129     1977.210        1.806        0.573      156.453       31.061        0.039      338.032       10.407      868.105
11/03/2014  12:37:00       84.129     -130.094      -10.180       56.355       59.102       37.844     3175.855     3493.093     1432.160        1.610        0.405      154.926       18.285        0.014      337.940       10.251      868.090
11/03/2014  12:38:00       89.462       41.028       24.589       80.145       81.148       37.368     6423.160     6585.044     1396.341        1.235        0.720       98.421       27.359        0.077      338.111       10.541      868.075
11/03/2014  12:39:00       86.798       87.253        2.603       40.552       33.757       30.924     1644.428     1139.561      956.306        0.945        0.187      123.073       16.585        0.018      337.677        9.813      868.068
11/03/2014  12:40:00       13.212       61.585       -6.804       35.521       39.753       20.699     1261.710     1580.340      428.454        0.364        0.164       62.986       18.100        0.083      337.693        9.840      868.044
11/03/2014  12:41:00        4.360       36.223       -0.460       17.408       29.923       18.838      303.030      895.369      354.859        0.144        0.078       36.485       15.862        0.189      337.915       10.212      868.028
11/03/2014  12:42:00      105.902       67.877       22.824      115.978       60.643       47.537    13450.902     3677.558     2259.725        1.786        0.969      125.787       42.634        0.115      338.061       10.455      868.004
11/03/2014  12:43:00       66.287       14.125       21.614       78.580       61.845       33.752     6174.773     3824.786     1139.183        0.810        0.557       67.776       34.509        0.259      338.041       10.422      868.005
11/03/2014  12:44:00       82.233       29.802        6.925       41.777       34.144       29.038     1745.311     1165.830      843.199        0.573        0.188       87.467       20.646        0.056      338.020       10.388      868.007
11/03/2014  12:45:00      128.154      -45.701       16.522       78.722      121.008       59.435     6197.131    14642.959     3532.461        2.157        1.219      136.059       74.610        0.301      338.038       10.416      868.007
11/03/2014  12:46:00      117.428     -186.470      -39.236       68.547       91.992       37.945     4698.673     8462.448     1439.843        3.235        0.730      220.364       36.594        0.028      337.986       10.329      867.982
11/03/2014  12:47:00       24.556     -120.923       17.194       70.071       79.037       52.161     4909.976     6246.842     2720.822        1.470        0.694      123.391       46.995        0.145      338.083       10.494      867.964
11/03/2014  12:48:00       90.722     -109.616        1.967       67.936       70.355       49.591     4615.256     4949.880     2459.283        1.613        0.601      142.289       48.391        0.116      338.047       10.432      867.950
11/03/2014  12:49:00       59.878      -41.825        6.350       63.345       48.081       39.828     4012.595     2311.797     1586.268        0.664        0.396       73.039       28.198        0.149      338.364       10.966      867.918
11/03/2014  12:50:00       74.704       43.115       54.982       70.002       74.174       59.782     4900.290     5501.745     3573.865        1.222        0.699       86.254       59.100        0.469      338.268       10.804      867.924
11/03/2014  12:51:00      179.773       53.854       55.486      101.051       66.698       60.364    10211.294     4448.683     3643.786        2.830        0.915      187.666       44.763        0.057      338.030       10.402      867.927
11/03/2014  12:52:00       58.225      101.138      115.362       77.857      102.221       63.006     6061.754    10449.158     3969.757        2.370        1.024      116.701       65.534        0.315      338.356       10.950      867.928
11/03/2014  12:53:00       76.424      105.617      111.026      110.688       74.588       59.841    12251.770     5563.398     3580.990        2.535        1.070      130.367       50.900        0.152      338.308       10.871      867.939
11/03/2014  12:54:00      111.487      103.589       84.915       89.041       65.131       45.182     7928.360     4242.099     2041.409        2.229        0.711      152.184       31.113        0.042      338.048       10.433      867.934
11/03/2014  12:55:00      137.936       47.173       71.764       84.808       77.396       65.698     7192.439     5990.155     4316.225        2.195        0.875      145.779       55.055        0.143      337.970       10.302      867.928
11/03/2014  12:56:00       89.556       40.682       67.885       62.347       58.483       47.343     3887.095     3420.215     2241.345        1.191        0.477       98.363       47.254        0.231      338.028       10.402      867.915
11/03/2014  12:57:00       -9.417      -17.519       -3.939       44.453       38.768       26.264     1976.032     1502.930      689.816        0.229        0.208       19.889       12.918        0.422      337.805       10.027      867.890
11/03/2014  12:58:00       16.946       31.706       -6.103       40.736       14.800       22.192     1659.410      219.028      492.489        0.185        0.119       35.951       23.789        0.438      338.001       10.356      867.866
11/03/2014  12:59:00       20.314      -11.658        5.021       25.760       62.976       29.216      663.564     3966.033      853.550        0.303        0.274       23.421       17.540        0.561      338.266       10.800      867.870
11/03/2014  13:00:00       37.317      -26.227       29.453       52.652       75.401       56.532     2772.189     5685.292     3195.854        0.730        0.583       45.611       37.416        0.673      338.419       11.059      867.865
11/03/2014  13:01:00       90.558      -70.464       22.737       58.283      131.869       78.491     3396.900    17389.347     6160.866        2.031        1.347      114.743       89.669        0.611      338.373       10.978      867.848
11/03/2014  13:02:00       98.335      110.441       94.010       70.903       64.328       50.812     5027.244     4138.118     2581.886        2.122        0.587      147.876       23.376        0.025      338.130       10.571      867.832
11/03/2014  13:03:00       51.807      -25.524       22.275       57.921      110.105       52.747     3354.863    12123.151     2782.218        1.104        0.913       57.754       67.720        1.375      338.382       10.995      867.801
11/03/2014  13:04:00       40.138       59.886       51.942       67.466       58.494       50.020     4551.618     3421.591     2501.994        0.918        0.524       72.093       46.679        0.419      338.660       11.463      867.777
11/03/2014  13:05:00      124.358      114.871       -5.218       59.923       55.487       44.664     3590.707     3078.834     1994.907        1.867        0.433      169.294       38.488        0.052      338.197       10.684      867.783
11/03/2014  13:06:00       83.766       81.727        7.238       72.831       46.339       39.451     5304.286     2147.348     1556.394        1.138        0.450      117.030       31.053        0.070      338.090       10.505      867.778
11/03/2014  13:07:00       72.828       82.975        2.442       47.907       37.902       29.375     2295.065     1436.596      862.885        0.839        0.230      110.403       23.093        0.044      338.411       11.044      867.763
11/03/2014  13:08:00      192.925      139.344       16.579       84.945       68.538       47.449     7215.613     4697.450     2251.435        3.554        0.708      237.985       13.839        0.003      338.191       10.674      867.757
11/03/2014  13:09:00       92.864      123.247       -8.570       77.134       78.522       52.030     5949.731     6165.706     2707.122        1.935        0.741      154.316       39.545        0.066      338.279       10.821      867.757
11/03/2014  13:10:00       41.152      147.309       -8.240       81.942       72.363       47.047     6714.523     5236.445     2213.423        1.881        0.708      152.949       47.169        0.095      337.970       10.302      867.758
11/03/2014  13:11:00       87.912      103.747       -2.109       65.517       42.056       36.117     4292.474     1768.675     1304.453        1.293        0.368      135.985       25.227        0.034      338.097       10.515      867.752
11/03/2014  13:12:00      174.589       95.703       32.296       85.008       63.796       43.600     7226.298     4069.923     1900.961        2.694        0.660      199.099       36.603        0.034      338.229       10.735      867.729
11/03/2014  13:13:00      139.781       84.075       58.151       87.455       72.968       73.298     7648.290     5324.284     5372.617        2.416        0.917      163.118       53.268        0.107      338.444       11.097      867.699
11/03/2014  13:14:00      123.465       48.429       81.126       89.685       83.293       51.984     8043.390     6937.755     2702.354        2.092        0.884      132.624       37.646        0.081      338.476       11.152      867.682
11/03/2014  13:15:00       82.429      -17.658       46.529       90.009      106.956       57.349     8101.642    11439.495     3288.854        1.605        1.141       84.299       57.741        0.469      338.571       11.312      867.659
11/03/2014  13:16:00      123.445       50.634       70.021       80.183      117.695       74.901     6429.307    13852.016     5610.149        2.429        1.295      133.426       73.795        0.306      338.541       11.261      867.653
11/03/2014  13:17:00       75.686      162.605      157.018      101.158       91.230       66.534    10232.942     8322.874     4426.729        3.990        1.149      179.356       59.182        0.109      338.074       10.475      867.635
11/03/2014  13:18:00      152.000      139.397       23.898       98.754       54.348       72.266     9752.291     2953.758     5222.381        3.051        0.896      206.241       53.457        0.067      338.238       10.752      867.619
11/03/2014  13:19:00       69.507       87.833        6.840       68.142       43.184       46.526     4643.377     1864.855     2164.625        1.063        0.434      112.009       32.499        0.084      338.151       10.608      867.582
11/03/2014  13:20:00       10.493       69.104        2.718       36.204       43.892       30.094     1310.709     1926.524      905.632        0.452        0.207       69.896       27.185        0.151      338.336       10.919      867.543
11/03/2014  13:21:00       52.284       15.191      -11.474       41.278       40.269       27.046     1703.866     1621.632      731.502        0.358        0.203       54.446       18.185        0.112      338.357       10.953      867.540
11/03/2014  13:22:00       40.621       41.787       18.525       44.832       40.815       18.716     2009.926     1665.825      350.276        0.388        0.201       58.277       11.246        0.037      338.550       11.278      867.528
11/03/2014  13:23:00      -15.962      -30.165       -5.853       62.879       72.874       53.690     3953.829     5310.597     2882.587        0.667        0.607       34.128       34.388        1.015      338.731       11.582      867.533
11/03/2014  13:24:00       41.812       17.347       40.330       57.843       73.189       59.657     3345.816     5356.640     3558.899        0.797        0.613       45.267       46.347        1.048      338.860       11.797      867.555
11/03/2014  13:25:00      108.951       52.603       67.546       91.780       85.486       64.139     8423.503     7307.824     4113.804        1.952        0.992      120.985       52.631        0.189      338.711       11.546      867.546
11/03/2014  13:26:00      188.817     -231.563        9.290      132.374      240.946      116.804    17522.813    58055.190    13643.172        8.927        4.461      298.786      162.032        0.294      338.329       10.905      867.536
11/03/2014  13:27:00      246.967     -263.359      -51.461       81.909       87.908       67.701     6709.024     7727.867     4583.463        7.601        0.951      361.041       52.373        0.021      338.128       10.565      867.543
11/03/2014  13:28:00       95.257     -109.812       -1.307       71.023       69.911       55.186     5044.267     4887.603     3045.479        1.705        0.649      145.370       44.753        0.095      338.367       10.968      867.560
11/03/2014  13:29:00      -28.641      -39.629       13.381       46.000       40.484       29.943     2115.994     1638.926      896.559        0.361        0.233       48.895       30.281        0.384      338.756       11.623      867.529
11/03/2014  13:30:00       29.235        8.417       10.868       24.830       34.127       31.563      616.510     1164.679      996.195        0.191        0.139       30.423       19.370        0.405      338.859       11.796      867.493
11/03/2014  13:31:00       80.878       81.685       73.447       84.019       56.416       57.162     7059.258     3182.714     3267.510        1.606        0.675      114.951       47.772        0.173      338.571       11.311      867.474
11/03/2014  13:32:00      129.633       91.356       44.337       54.918       43.170       50.506     3016.016     1863.654     2550.850        1.727        0.372      158.589       23.656        0.022      338.285       10.832      867.457
11/03/2014  13:33:00       26.014       39.888       56.378       49.827       59.191       45.309     2482.751     3503.560     2052.898        0.674        0.402       47.622       49.953        1.100      338.675       11.487      867.458
11/03/2014  13:34:00        4.165       53.419       78.551       38.800       43.480       35.956     1505.413     1890.524     1292.798        0.686        0.234       53.582       35.283        0.434      338.809       11.713      867.480
11/03/2014  13:35:00       70.605       42.052       22.957       64.953       39.657       44.107     4218.835     1572.679     1945.401        0.751        0.387       82.180       17.986        0.048      338.774       11.653      867.500
11/03/2014  13:36:00      151.479      104.076       88.543      105.392       88.414       72.512    11107.513     7817.059     5257.930        3.290        1.209      183.787       52.374        0.081      338.789       11.676      867.500
11/03/2014  13:37:00       27.474       77.594       99.957       75.551       70.161       62.811     5707.901     4922.568     3945.184        1.567        0.729       82.314       55.259        0.451      338.949       11.947      867.532
11/03/2014  13:38:00      -10.874       94.805      103.738       59.208       69.522       43.408     3505.584     4833.242     1884.239        1.504        0.511       95.427       37.154        0.152      339.019       12.066      867.545
11/03/2014  13:39:00      162.412       94.022       23.462       77.883       65.429       57.198     6065.776     4280.947     3271.579        2.469        0.681      187.664       30.558        0.027      338.504       11.198      867.556
11/03/2014  13:40:00      145.845       97.622       12.218       49.742       51.449       47.304     2474.266     2646.980     2237.652        1.915        0.368      175.502       25.518        0.021      338.421       11.060      867.549
11/03/2014  13:41:00       25.467       52.336        3.697       60.405       38.789       33.588     3648.749     1504.608     1128.169        0.484        0.314       58.204       32.861        0.319      338.494       11.184      867.519
11/03/2014  13:42:00       93.724       60.028       22.206       63.837       46.238       40.912     4075.193     2137.934     1673.758        1.038        0.394      111.299       26.597        0.057      338.674       11.486      867.507
11/03/2014  13:43:00       88.847       97.036       74.285       79.533       59.029       52.861     6325.446     3484.446     2794.264        1.771        0.630      131.567       24.990        0.036      338.878       11.828      867.499
11/03/2014  13:44:00      170.168      139.585       89.804      119.270       99.390       73.519    14225.231     9878.336     5405.093        4.300        1.475      220.093       69.119        0.099      338.771       11.646      867.492
11/03/2014  13:45:00      182.619      119.823       70.816      102.766       98.650       90.872    10560.826     9731.777     8257.802        4.063        1.428      218.420       81.458        0.139      338.658       11.456      867.502
11/03/2014  13:46:00      198.101      142.140       59.704       80.335       71.852       81.201     6453.749     5162.676     6593.682        4.061        0.911      243.819       32.126        0.017      338.770       11.644      867.510
11/03/2014  13:47:00      218.317      119.139       31.522       84.519       86.100       61.227     7143.464     7413.232     3748.793        4.057        0.915      248.709       33.469        0.018      338.655       11.451      867.514
11/03/2014  13:48:00      201.794      101.363       61.402       97.843       86.904       79.490     9573.268     7552.284     6318.737        3.910        1.172      225.821       66.418        0.087      338.873       11.818      867.506
11/03/2014  13:49:00      176.979      117.805      123.348      121.386       99.120       86.266    14734.675     9824.735     7441.902        4.620        1.600      212.602       81.120        0.146      338.782       11.663      867.500
11/03/2014  13:50:00      154.997      154.555      129.364       94.169       85.968       68.346     8867.751     7390.549     4671.237        4.278        1.046      218.886       58.568        0.072      338.788       11.675      867.503
11/03/2014  13:51:00       24.589      111.709      127.725       59.991       59.735       31.521     3598.894     3568.294      993.594        1.878        0.408      114.383       30.716        0.072      339.058       12.131      867.512
11/03/2014  13:52:00      160.488      103.168       40.554       70.147       58.293       59.737     4920.578     3398.082     3568.557        2.496        0.594      190.788       32.372        0.029      338.831       11.749      867.521
11/03/2014  13:53:00       84.301       63.768      106.103       98.130       83.420       72.140     9629.534     6958.850     5204.200        2.211        1.090      105.703       59.069        0.312      339.043       12.105      867.507
11/03/2014  13:54:00      154.489       30.440       44.505      117.105       69.371       61.147    13713.585     4812.352     3738.984        2.452        1.113      157.460       52.296        0.110      338.841       11.765      867.537
11/03/2014  13:55:00       79.916       55.936       81.263       76.904       71.004       61.518     5914.256     5041.582     3784.513        1.543        0.737       97.547       48.264        0.245      338.994       12.023      867.554
11/03/2014  13:56:00      103.063      -73.591       22.200      115.078       91.192       49.776    13242.942     8315.998     2477.685        2.028        1.202      126.639       57.994        0.210      338.899       11.863      867.569
11/03/2014  13:57:00       76.398       59.884       32.649       52.471       41.479       46.083     2753.159     1720.471     2123.598        0.854        0.330       97.071       24.110        0.062      339.060       12.135      867.591
11/03/2014  13:58:00      126.697       96.327       53.261      146.584       93.436       66.069    21486.969     8730.274     4365.081        3.137        1.729      159.157       63.032        0.157      338.784       11.668      867.595
11/03/2014  13:59:00      138.644       92.560       16.746       97.909       70.139       50.742     9586.159     4919.418     2574.729        2.257        0.854      166.701       30.496        0.033      338.500       11.193      867.610
11/03/2014  14:00:00       29.047      100.868       -6.374       59.080       72.007       48.489     3490.497     5184.938     2351.201        1.104        0.551      104.967       41.177        0.154      338.496       11.186      867.586
11/03/2014  14:01:00       63.157       81.795        2.350       45.721       69.934       44.203     2090.442     4890.807     1953.942        0.981        0.447      103.341       42.884        0.172      338.584       11.334      867.555
11/03/2014  14:02:00       77.699       69.190        2.868       66.205       62.353       47.448     4383.057     3887.872     2251.302        1.068        0.526      104.041       36.405        0.122      338.545       11.268      867.528
11/03/2014  14:03:00      142.602       84.702       34.018       78.530       58.984       59.218     6166.973     3479.122     3506.758        2.091        0.658      165.861       17.923        0.012      338.588       11.340      867.495
11/03/2014  14:04:00       96.644       52.059       60.663       87.376       78.661       61.145     7634.542     6187.511     3738.711        1.664        0.878      109.773       40.389        0.135      338.802       11.700      867.457
11/03/2014  14:05:00      193.720       78.018       47.379       91.366       75.625       67.009     8347.733     5719.193     4490.235        3.220        0.928      208.841       43.980        0.044      338.794       11.685      867.437
11/03/2014  14:06:00       73.678       83.728      113.166      103.927       96.461       73.787    10800.880     9304.805     5444.577        2.539        1.278      111.529       67.141        0.362      338.881       11.832      867.414
11/03/2014  14:07:00       52.431       70.404       66.418       77.293       73.438       61.434     5974.188     5393.166     3774.169        1.363        0.757       87.782       50.389        0.330      338.988       12.013      867.417
11/03/2014  14:08:00      144.640      100.171       56.284       81.137       59.225       56.151     6583.168     3507.579     3152.952        2.368        0.662      175.940       42.919        0.060      338.831       11.747      867.426
11/03/2014  14:09:00       78.108       43.527       48.476       55.241       54.608       48.704     3051.595     2982.051     2372.092        0.937        0.420       89.417       31.727        0.126      338.708       11.543      867.436
11/03/2014  14:10:00      102.491       85.958       21.978       51.897       52.206       50.165     2693.317     2725.475     2516.487        1.315        0.397      133.765       31.373        0.055      338.684       11.503      867.430
11/03/2014  14:11:00       89.338       74.423      103.784       85.201       74.757       56.602     7259.183     5588.613     3203.776        2.017        0.803      116.276       56.942        0.240      338.813       11.719      867.430
11/03/2014  14:12:00       27.471       98.979      107.442       55.048       57.205       55.373     3030.332     3272.423     3066.165        1.573        0.468      102.721       51.014        0.247      338.799       11.694      867.434
11/03/2014  14:13:00       78.074      133.935      110.529      112.116       74.741       70.746    12569.987     5586.206     5005.017        2.970        1.158      155.029       66.595        0.185      338.779       11.659      867.437
11/03/2014  14:14:00      142.989      123.598      113.602       97.482       76.476       69.632     9502.807     5848.543     4848.638        3.441        1.010      189.003       58.684        0.096      338.636       11.420      867.448
11/03/2014  14:15:00      155.567      124.399       89.618      124.586       91.704       99.060    15521.742     8409.600     9812.976        4.072        1.687      199.189       96.042        0.232      338.638       11.423      867.449
11/03/2014  14:16:00      145.399      184.764      145.125       93.534      100.991       71.135     8748.559    10199.143     5060.184        5.017        1.200      235.114       64.236        0.075      338.565       11.299      867.450
11/03/2014  14:17:00      163.405      137.304      113.889      124.612      112.496       86.272    15528.200    12655.407     7442.806        4.707        1.781      213.433       81.422        0.146      338.729       11.575      867.440
11/03/2014  14:18:00       71.383       57.485       77.179       92.975       75.080       71.073     8644.286     5636.992     5051.388        1.684        0.967       91.652       50.286        0.301      338.917       11.893      867.450
11/03/2014  14:19:00       17.896       69.997       92.713       50.640       68.369       49.847     2564.427     4674.370     2484.718        1.177        0.486       72.248       40.060        0.307      338.877       11.827      867.466
11/03/2014  14:20:00       92.209       45.892       23.132       71.424       44.210       42.667     5101.352     1954.548     1820.466        1.001        0.444      102.998       15.998        0.024      338.795       11.689      867.462
11/03/2014  14:21:00      119.623       70.872        5.228       92.760      112.234       51.286     8604.485    12596.583     2630.226        2.159        1.192      139.041       33.586        0.058      338.760       11.630      867.457
11/03/2014  14:22:00       97.534      182.343       -7.948      160.416       78.070       51.948    25733.368     6094.886     2698.582        3.867        1.726      206.789       45.363        0.048      338.652       11.446      867.427
11/03/2014  14:23:00       30.659       97.190       16.934       70.369       85.911       44.791     4951.752     7380.662     2006.233        1.250        0.717      101.911       31.300        0.094      338.812       11.717      867.410
11/03/2014  14:24:00      120.333      100.424       34.510       64.509       42.918       58.161     4161.471     1841.974     3382.660        1.757        0.469      156.733       46.197        0.087      338.989       12.016      867.429
11/03/2014  14:25:00       61.911      133.297      163.858      101.596       88.014       78.912    10321.789     7746.429     6227.100        3.637        1.215      146.973       74.647        0.258      338.984       12.004      867.425
11/03/2014  14:26:00      144.535      143.522      143.787      129.490      105.731       85.373    16767.753    11179.045     7288.480        4.869        1.762      203.688       81.739        0.161      338.876       11.823      867.409
11/03/2014  14:27:00      217.248       69.407       91.433      163.504      105.876       88.703    26733.524    11209.782     7868.302        5.308        2.291      228.066       76.147        0.111      338.826       11.739      867.399
11/03/2014  14:28:00      174.063      197.405      157.265       98.640       95.682       95.025     9729.842     9155.008     9029.675        6.095        1.396      263.186       56.737        0.046      338.732       11.579      867.398
11/03/2014  14:29:00      209.863       62.503       71.641      140.492       96.506       91.522    19738.070     9313.323     8376.260        4.525        1.871      218.973       70.536        0.104      338.875       11.822      867.406
11/03/2014  14:30:00      198.191       95.719       79.776      115.739       81.317       83.654    13395.526     6612.508     6997.931        4.090        1.350      220.095       57.478        0.068      338.675       11.483      867.429
11/03/2014  14:31:00      251.763      150.730       37.727       83.651       52.405       63.748     6997.450     2746.328     4063.775        5.066        0.690      293.436       34.608        0.014      338.651       11.442      867.444
11/03/2014  14:32:00       94.901       46.677       16.221       52.085       39.279       40.161     2712.866     1542.836     1612.940        0.866        0.293      105.759       12.771        0.015      338.682       11.499      867.442
11/03/2014  14:33:00       74.411      129.959       -0.291      104.927       94.963       70.545    11009.586     9017.895     4976.634        2.371        1.250      149.754       64.135        0.183      338.768       11.642      867.443
11/03/2014  14:34:00      119.079       70.791       33.339       91.885       67.579       51.776     8442.789     4566.884     2680.778        1.799        0.785      138.532       29.088        0.044      338.806       11.707      867.450
11/03/2014  14:35:00      212.411      160.561       47.941       98.477       78.784       72.426     9697.772     6206.856     5245.570        4.717        1.058      266.267       57.285        0.046      338.930       11.913      867.461
11/03/2014  14:36:00       71.953       86.172       44.124       63.081       87.939       65.922     3979.231     7733.335     4345.690        1.530        0.803      112.262       26.509        0.056      339.000       12.033      867.487
11/03/2014  14:37:00       70.892       72.947        6.110       64.542       64.297       47.465     4165.665     4134.110     2252.902        1.047        0.528      101.720       40.387        0.158      338.991       12.018      867.504
11/03/2014  14:38:00      177.479      108.115       43.334       98.077       66.524       63.724     9619.119     4425.400     4060.718        3.158        0.905      207.816       48.789        0.055      338.980       11.996      867.503
11/03/2014  14:39:00      158.927       96.265       60.958       76.603       72.150       67.853     5868.062     5205.679     4604.041        2.696        0.784      185.808       30.491        0.027      338.848       11.776      867.500
11/03/2014  14:40:00      221.734      113.892       62.013      115.587       73.915       74.667    13360.464     5463.447     5575.197        4.519        1.220      249.274       54.057        0.047      338.793       11.684      867.499
11/03/2014  14:41:00      247.816      168.321       14.073       95.936       68.165       59.818     9203.640     4646.475     3578.241        5.368        0.871      299.575       26.874        0.008      338.599       11.355      867.517
11/03/2014  14:42:00      146.572       78.596       47.782       74.845       56.580       63.497     5601.781     3201.283     4031.844        2.139        0.642      166.315       34.435        0.043      338.666       11.472      867.534
11/03/2014  14:43:00      199.367      114.705       18.805       84.523       77.537       63.519     7144.123     6011.988     4034.611        3.522        0.860      230.010       35.503        0.024      338.781       11.663      867.547
11/03/2014  14:44:00       77.134      132.277       -3.606      106.383      107.853       65.062    11317.340    11632.304     4233.120        2.532        1.359      153.123       56.015        0.134      338.811       11.714      867.518
11/03/2014  14:45:00      182.043      108.132       35.988      164.709       71.404       69.160    27129.136     5098.563     4783.132        4.156        1.851      211.736       32.325        0.023      339.032       12.084      867.514
11/03/2014  14:46:00      174.305      137.526       20.901      129.091       83.922       74.924    16664.481     7042.970     5613.643        3.952        1.466      222.026       46.256        0.043      338.898       11.859      867.517
11/03/2014  14:47:00      205.848      132.061       27.933       71.586       60.437       47.838     5124.566     3652.608     2288.493        3.583        0.553      244.568       23.740        0.009      338.655       11.451      867.524
11/03/2014  14:48:00      195.627      118.372       28.399       76.208       77.519       56.222     5807.709     6009.125     3160.893        3.403        0.749      228.652       33.558        0.022      338.824       11.734      867.515
11/03/2014  14:49:00      257.755      156.564       60.390      126.924       98.121       73.673    16109.739     9627.746     5427.725        6.287        1.558      301.579       40.493        0.018      338.770       11.645      867.506
11/03/2014  14:50:00      183.338      116.900       57.269      133.651      105.814       71.466    17862.628    11196.676     5107.384        4.236        1.708      217.436       51.047        0.055      338.835       11.755      867.512
11/03/2014  14:51:00      208.230      126.082       98.766      137.144       95.143       82.423    18808.549     9052.253     6793.582        5.183        1.733      243.426       67.427        0.077      338.795       11.686      867.501
11/03/2014  14:52:00      206.120      142.935       97.570      123.719      109.143       93.667    15306.344    11912.126     8773.425        5.421        1.800      250.830       50.994        0.041      338.874       11.820      867.486
11/03/2014  14:53:00      260.929      176.934       58.008      101.331       74.304       69.731    10267.947     5521.136     4862.380        6.170        1.033      315.261       45.836        0.021      338.681       11.494      867.499
11/03/2014  14:54:00      209.334      122.683       30.823       95.044       85.194       65.890     9033.334     7257.958     4341.532        4.022        1.032      242.635       53.760        0.049      338.825       11.738      867.492
11/03/2014  14:55:00      167.353      120.482       63.305      106.755       87.607       87.633    11396.571     7674.960     7679.532        3.664        1.338      206.211       80.000        0.151      338.947       11.943      867.493
11/03/2014  14:56:00      233.993      129.309       84.350      148.454      105.389       96.877    22038.678    11106.857     9385.119        6.055        2.127      267.346       88.815        0.110      338.785       11.670      867.479
11/03/2014  14:57:00      119.213      108.693       59.883       93.951       99.853       96.101     8826.787     9970.610     9235.421        2.882        1.402      161.325       75.680        0.220      338.802       11.698      867.483
11/03/2014  14:58:00      167.701       92.157       23.958      109.370       74.625       58.909    11961.744     5568.826     3470.301        2.909        1.050      191.354       40.723        0.045      338.760       11.627      867.496
11/03/2014  14:59:00      203.673      140.610       19.346      124.643       68.107       61.386    15535.867     4638.558     3768.213        4.278        1.197      247.495       38.234        0.024      338.720       11.562      867.490
11/03/2014  15:00:00      157.295      130.549      104.079      140.942      106.658       80.907    19864.518    11375.979     6545.925        4.519        1.889      204.413       66.814        0.107      338.777       11.657      867.482
11/03/2014  15:01:00      253.937      185.359       57.039      133.440       89.612      100.092    17806.174     8030.297    10018.506        6.897        1.793      314.392       58.110        0.034      338.606       11.367      867.493
11/03/2014  15:02:00      165.099      114.025        7.870       75.520       63.176       55.117     5703.311     3991.187     3037.864        2.652        0.637      200.647       42.312        0.044      338.684       11.501      867.499
11/03/2014  15:03:00      136.089       73.090       22.063       64.748       57.833       36.480     4192.279     3344.612     1330.765        1.661        0.443      154.474       25.491        0.027      338.925       11.907      867.496
11/03/2014  15:04:00      235.661      119.106       60.365      137.869       90.088       71.364    19007.777     8115.853     5092.779        5.278        1.611      264.050       39.108        0.022      338.906       11.874      867.496
11/03/2014  15:05:00      179.605       62.548       59.278      136.760       93.417       88.301    18703.310     8726.666     7797.112        3.745        1.761      190.184       72.461        0.145      338.716       11.555      867.496
11/03/2014  15:06:00      253.973      136.569       55.680      110.087       96.670       63.822    12119.179     9345.101     4073.300        5.589        1.277      288.363       38.480        0.018      338.763       11.632      867.509
11/03/2014  15:07:00      274.619      143.593       49.375      168.941      115.131       87.269    28540.968    13255.211     7615.834        7.393        2.471      309.894       92.847        0.090      338.723       11.566      867.510
11/03/2014  15:08:00      111.480       98.743        3.738      116.419       87.305       61.927    13553.272     7622.217     3834.978        2.360        1.251      148.923       56.057        0.142      338.745       11.604      867.531
11/03/2014  15:09:00      205.515      101.940       26.075       90.097       82.027       59.567     8117.551     6728.482     3548.239        3.585        0.920      229.409       33.676        0.022      338.707       11.539      867.525
11/03/2014  15:10:00       78.528       85.639       68.684      110.650       77.152       81.721    12243.378     5952.407     6678.377        2.154        1.244      116.192       72.318        0.387      338.863       11.803      867.496
11/03/2014  15:11:00      139.878      103.304       37.719      114.516       65.293       52.874    13113.872     4263.161     2795.687        2.591        1.009      173.889       28.928        0.028      338.850       11.780      867.514
11/03/2014  15:12:00      185.911      131.218       45.525      100.986       90.657       62.734    10198.160     8218.663     3935.528        3.810        1.118      227.554       24.911        0.012      338.809       11.712      867.519
11/03/2014  15:13:00      304.093      212.792       36.461      122.681       96.608       68.079    15050.641     9333.117     4634.742        8.404        1.451      371.151       40.118        0.012      338.664       11.466      867.538
11/03/2014  15:14:00      205.143      149.959        8.869      125.942       90.273       76.831    15861.492     8149.131     5903.073        4.728        1.496      254.109       52.745        0.043      338.753       11.616      867.549
11/03/2014  15:15:00      213.425      143.875       33.485       98.526       85.441       67.605     9707.441     7300.144     4570.373        4.447        1.079      257.391       24.928        0.009      338.674       11.484      867.545
11/03/2014  15:16:00      213.859      130.495       38.800      159.719      104.294       69.114    25510.087    10877.282     4776.802        5.271        2.058      250.528       38.448        0.024      338.702       11.532      867.549
11/03/2014  15:17:00      234.995      148.377       23.516      116.319       87.015       79.189    13530.172     7571.617     6270.963        5.258        1.369      277.918       57.345        0.043      338.631       11.410      867.526
11/03/2014  15:18:00      177.218      118.662       25.018      120.540       79.265       70.332    14529.888     6282.937     4946.591        3.593        1.288      213.276       46.975        0.049      338.594       11.350      867.518
11/03/2014  15:19:00      135.245      102.063        9.465       99.243       85.510       54.756     9849.187     7311.887     2998.272        2.447        1.008      169.435       36.478        0.046      338.757       11.623      867.514
11/03/2014  15:20:00      157.949       91.429       -0.165      102.640       74.534       62.754    10535.071     5555.320     3938.072        2.666        1.001      182.503       47.310        0.067      338.765       11.638      867.528
11/03/2014  15:21:00      193.182      151.231       16.176      117.525       78.590       71.319    13812.222     6176.352     5086.383        4.276        1.254      245.337       50.057        0.042      338.685       11.501      867.550
11/03/2014  15:22:00      166.898      131.318       15.389      115.229       83.615       55.601    13277.659     6991.488     3091.419        3.434        1.168      212.366       33.649        0.025      338.718       11.557      867.566
11/03/2014  15:23:00      299.809      202.874       28.461      116.702       96.890       81.152    13619.352     9387.605     6585.587        8.072        1.480      361.999       48.611        0.018      338.635       11.418      867.551
11/03/2014  15:24:00      257.722      153.589       52.488      121.400      104.212       76.654    14738.047    10860.197     5875.822        6.211        1.574      300.017       59.805        0.040      338.642       11.430      867.552
11/03/2014  15:25:00      215.297      139.218       42.329       81.444       70.509       67.543     6633.131     4971.452     4562.053        4.184        0.808      256.387       25.064        0.010      338.626       11.401      867.559
11/03/2014  15:26:00      187.294      144.811       20.923      105.652       74.280       75.034    11162.448     5517.448     5630.168        3.939        1.116      236.747       42.555        0.032      338.622       11.397      867.558
11/03/2014  15:27:00      285.261      206.275       37.931      124.399       84.493       88.013    15475.188     7139.099     7746.317        7.786        1.518      352.028       58.489        0.028      338.593       11.347      867.564
11/03/2014  15:28:00      258.617      169.257       30.298      112.495       92.514       87.545    12655.173     8558.885     7664.167        6.266        1.444      309.080       54.630        0.031      338.610       11.375      867.582
11/03/2014  15:29:00      167.094      115.613       12.075      125.337       82.650       65.677    15709.420     6831.004     4313.479        3.414        1.343      203.191       43.888        0.047      338.704       11.535      867.586
11/03/2014  15:30:00      275.420      170.405       43.325       90.807       81.929       78.816     8245.837     6712.361     6211.990        6.397        1.059      323.874       33.896        0.011      338.586       11.335      867.573
11/03/2014  15:31:00      179.376      108.063       59.471      105.521       85.553       68.373    11134.710     7319.301     4674.810        3.525        1.156      209.412       54.038        0.067      338.640       11.425      867.555
11/03/2014  15:32:00      187.078       96.559       20.232      104.081       77.548       62.851    10832.786     6013.675     3950.187        3.276        1.040      210.528       19.763        0.009      338.665       11.470      867.563
11/03/2014  15:33:00      262.799      170.801       45.239      153.234      101.521       90.733    23480.704    10306.431     8232.460        7.114        2.101      313.427       57.302        0.033      338.548       11.271      867.559
11/03/2014  15:34:00      301.910      202.985       29.219      131.394      116.185       84.570    17264.289    13498.984     7152.032        8.555        1.896      363.803       65.649        0.033      338.522       11.227      867.560
11/03/2014  15:35:00      229.549      176.342       16.809      132.443       87.065       84.003    17541.098     7580.371     7056.445        5.812        1.609      289.464       50.855        0.031      338.552       11.279      867.578
11/03/2014  15:36:00      211.483      153.532       21.490       92.135       72.250       77.119     8488.787     5220.089     5947.327        4.420        0.983      261.337       42.340        0.026      338.621       11.394      867.583
11/03/2014  15:37:00      203.669      152.366       25.507      122.149       72.290       58.926    14920.468     5225.840     3472.315        4.448        1.181      254.355       19.929        0.006      338.559       11.290      867.575
11/03/2014  15:38:00      117.810       82.595       15.391       71.145       55.463       49.124     5061.581     3076.138     2413.162        1.574        0.528      143.878       27.192        0.036      338.619       11.395      867.571
11/03/2014  15:39:00      141.616       92.157        9.182       95.321       81.774       55.000     9086.007     6687.069     3025.002        2.371        0.940      168.962       34.115        0.041      338.560       11.293      867.563
11/03/2014  15:40:00      207.692      125.237       29.580       93.571       58.199       54.317     8755.537     3387.104     2950.322        3.739        0.755      242.529       23.659        0.010      338.548       11.272      867.579
11/03/2014  15:41:00      291.015      217.823       17.705      181.061      104.385       82.041    32782.941    10896.170     6730.644        9.142        2.520      363.506       63.533        0.031      338.436       11.082      867.589
11/03/2014  15:42:00      183.831      173.765       10.143      123.409      108.107       72.624    15229.851    11687.203     5274.273        4.813        1.610      252.959       58.232        0.053      338.449       11.103      867.606
11/03/2014  15:43:00      189.163      122.912       27.020       81.624       69.541       59.365     6662.489     4835.978     3524.186        3.332        0.751      225.588       35.267        0.024      338.458       11.121      867.593
11/03/2014  15:44:00      242.582      181.008       12.962      153.948      112.274       81.027    23700.100    12605.456     6565.428        6.732        2.144      302.671       58.524        0.037      338.446       11.099      867.575
11/03/2014  15:45:00      151.421      150.260        9.744      103.483       86.091       77.389    10708.693     7411.593     5988.990        3.485        1.205      213.322       58.994        0.076      338.444       11.094      867.574
11/03/2014  15:46:00       94.768      125.921        1.593       85.037       93.261       76.382     7231.273     8697.703     5834.254        2.330        1.088      157.598       64.376        0.167      338.449       11.105      867.564
11/03/2014  15:47:00      145.899      109.167        6.707       86.235       73.952       68.441     7436.432     5468.854     4684.148        2.542        0.879      182.220       48.841        0.072      338.509       11.208      867.571
11/03/2014  15:48:00      149.267      114.084       26.156       76.853       61.867       64.116     5906.449     3827.465     4110.855        2.491        0.692      187.871       36.664        0.038      338.522       11.229      867.575
11/03/2014  15:49:00      170.423      129.728       29.183       92.292       74.589       49.230     8517.860     5563.515     2423.557        3.161        0.825      214.181       26.413        0.015      338.583       11.331      867.599
11/03/2014  15:50:00      242.417      158.656       32.349      127.405       93.931       55.241    16232.052     8822.985     3051.580        5.654        1.405      289.720       32.232        0.012      338.546       11.267      867.601
11/03/2014  15:51:00      263.152      162.502       48.766       90.746       73.360       60.239     8234.805     5381.659     3628.726        5.764        0.862      309.283       28.345        0.008      338.479       11.154      867.612
11/03/2014  15:52:00      165.549       98.778       39.164       76.774       63.714       50.813     5894.271     4059.434     2582.004        2.561        0.627      192.779       27.017        0.020      338.510       11.209      867.613
11/03/2014  15:53:00       93.762       76.824       27.286       69.850       46.197       46.340     4878.974     2134.166     2147.392        1.230        0.458      121.216       32.413        0.072      338.492       11.179      867.598
11/03/2014  15:54:00      262.514      162.151       37.138       94.906       74.937       63.606     9007.142     5615.503     4045.718        5.762        0.933      308.555       30.756        0.010      338.470       11.137      867.574
11/03/2014  15:55:00      196.262       98.033       47.995       81.397       81.643       69.325     6625.450     6665.549     4805.924        3.426        0.905      219.384       51.832        0.056      338.495       11.182      867.566
11/03/2014  15:56:00      119.000       62.676       38.969       71.599       42.333       38.252     5126.456     1792.080     1463.238        1.399        0.419      134.497       33.160        0.061      338.527       11.239      867.582
11/03/2014  15:57:00      140.889       96.139       64.524       56.273       54.054       47.214     3166.616     2921.861     2229.200        2.079        0.416      170.565       32.982        0.037      338.543       11.265      867.565
11/03/2014  15:58:00      128.732       91.823       13.666       52.296       48.071       40.729     2734.879     2310.856     1658.878        1.595        0.335      158.124       13.615        0.007      338.535       11.251      867.551
11/03/2014  15:59:00      115.027       68.213       23.391       78.882       61.635       46.719     6222.325     3798.873     2182.683        1.532        0.610      133.732       38.164        0.081      338.554       11.283      867.543
11/03/2014  16:00:00      100.208       69.586       40.222       70.369       58.813       33.857     4951.847     3458.992     1146.267        1.303        0.478      121.999       27.438        0.051      338.618       11.393      867.516
11/03/2014  16:01:00      134.284       76.418       65.188      116.828       87.771       68.761    13648.898     7703.681     4728.133        2.710        1.304      154.505       51.972        0.113      338.538       11.255      867.497
11/03/2014  16:02:00      167.419      147.908       82.559       88.193       72.818       58.543     7778.069     5302.389     3427.235        3.661        0.825      223.396       38.481        0.030      338.449       11.105      867.505
11/03/2014  16:03:00      174.817      101.567       53.103       95.518       74.921       75.897     9123.648     5613.152     5760.425        3.209        1.025      202.180       42.967        0.045      338.413       11.044      867.504
11/03/2014  16:04:00      105.313       43.865       52.936      100.881       71.057       62.945    10176.902     5049.157     3962.061        1.750        0.959      114.083       37.907        0.110      338.426       11.068      867.515
11/03/2014  16:05:00      149.890       93.737        8.151       72.579       62.906       53.231     5267.776     3957.191     2833.546        2.169        0.603      176.787       45.587        0.066      338.411       11.042      867.539
11/03/2014  16:06:00      217.085      137.290       26.796      109.255       81.037       60.505    11936.762     6566.915     3660.808        4.442        1.108      256.855       45.522        0.031      338.353       10.944      867.547
11/03/2014  16:07:00      308.261      184.327       30.814       93.250       73.172       72.362     8695.512     5354.137     5236.276        7.461        0.964      359.168       35.294        0.010      338.279       10.820      867.537
11/03/2014  16:08:00      244.677      166.927       24.498      130.440       97.556       73.301    17014.554     9517.196     5372.970        6.011        1.595      296.195       34.953        0.014      338.262       10.791      867.540
11/03/2014  16:09:00      271.522      172.865       28.312      137.681      111.426       81.580    18956.056    12415.839     6655.253        7.121        1.901      321.880       59.528        0.034      338.233       10.742      867.532
11/03/2014  16:10:00      240.155      195.687       22.507      142.835      105.421       81.682    20401.725    11113.514     6672.018        6.732        1.909      309.787       40.560        0.017      338.217       10.716      867.539
11/03/2014  16:11:00      169.073      152.028       10.691      120.942       98.546       88.333    14626.997     9711.235     7802.719        4.197        1.607      227.372       75.497        0.110      338.215       10.712      867.544
11/03/2014  16:12:00      309.741      191.781       58.789      118.503       81.639       57.463    14043.068     6664.862     3301.972        8.009        1.200      364.307       21.588        0.004      338.233       10.741      867.533
11/03/2014  16:13:00      225.680      159.050       28.535      137.336       96.302       84.301    18861.249     9274.161     7106.661        5.614        1.762      276.094       44.403        0.026      338.205       10.693      867.528
11/03/2014  16:14:00      299.185      154.361       49.911      135.961       98.428       84.078    18485.259     9687.978     7069.062        7.553        1.762      336.659       30.505        0.008      338.212       10.706      867.517
11/03/2014  16:15:00      183.792      131.361        9.119      115.540       87.558       83.164    13349.542     7666.355     6916.250        3.952        1.397      225.910       40.145        0.032      338.209       10.703      867.527
11/03/2014  16:16:00      249.466      160.409       29.558      118.287       82.402       67.967    13991.784     6790.132     4619.505        5.711        1.270      296.587       41.681        0.020      338.202       10.691      867.528
11/03/2014  16:17:00      253.645      155.335       28.084      107.747      104.122       65.491    11609.449    10841.397     4289.036        5.799        1.337      297.430       37.700        0.016      338.178       10.649      867.516
11/03/2014  16:18:00       99.598       70.972       25.354       93.791       64.638       49.677     8796.754     4178.058     2467.784        1.552        0.772      122.298       45.032        0.136      338.190       10.671      867.528
11/03/2014  16:19:00      128.562       88.618       12.526       93.843       62.128       57.209     8806.441     3859.942     3272.905        2.024        0.797      156.146       36.678        0.055      338.195       10.678      867.542
11/03/2014  16:20:00      227.567      103.820       22.495      105.843       95.522       65.046    11202.812     9124.450     4230.951        4.381        1.228      250.131       38.091        0.023      338.168       10.633      867.545
11/03/2014  16:21:00      148.851       89.267       14.087      116.863       73.799       60.190    13657.077     5446.228     3622.873        2.652        1.136      173.567       39.648        0.052      338.174       10.644      867.546
11/03/2014  16:22:00      257.725      119.080       20.469       88.475       76.394       54.108     7827.789     5835.981     2927.681        4.880        0.830      283.905       33.311        0.014      338.159       10.618      867.548
11/03/2014  16:23:00      182.304       91.158       45.353      133.544       93.022       81.724    17834.047     8653.024     6678.736        3.838        1.658      203.825       52.430        0.066      338.114       10.543      867.528
11/03/2014  16:24:00       84.372       70.869       42.056       81.620       64.737       57.082     6661.779     4190.876     3258.308        1.401        0.706      110.186       51.795        0.221      338.124       10.561      867.523
11/03/2014  16:25:00      130.287       97.828       17.523       66.501       49.492       44.476     4422.412     2449.432     1978.081        1.785        0.442      162.927       29.559        0.033      338.105       10.529      867.531
11/03/2014  16:26:00      240.798      121.486       37.585      134.127       98.679       71.963    17989.951     9737.486     5178.729        5.352        1.645      269.709       34.696        0.017      338.094       10.509      867.511
11/03/2014  16:27:00      156.750      107.568       24.744       81.045       66.137       60.132     6568.312     4374.058     3615.916        2.565        0.728      190.109       27.186        0.020      338.071       10.472      867.521
11/03/2014  16:28:00      316.897      196.913       22.111       92.412       67.836       55.769     8540.063     4601.705     3110.217        7.797        0.813      373.093       36.935        0.010      338.041       10.419      867.506
11/03/2014  16:29:00      159.522      147.469       37.985      141.730      107.336      100.715    20087.441    11521.079    10143.602        4.519        2.088      217.243       59.574        0.075      338.003       10.355      867.490
11/03/2014  16:30:00      159.402       90.955       52.425      116.164       76.465       66.606    13494.029     5846.949     4436.358        3.010        1.189      183.526       43.047        0.055      337.975       10.309      867.490
11/03/2014  16:31:00      166.107       80.581       60.365      120.229       80.045       73.119    14455.029     6407.241     5346.316        3.196        1.310      184.620       66.852        0.131      337.977       10.314      867.470
11/03/2014  16:32:00      158.127       67.568       24.999       97.570       75.107       59.379     9519.850     5641.023     3525.819        2.444        0.934      171.958       24.484        0.020      337.941       10.256      867.467
11/03/2014  16:33:00      198.345      150.951       72.442      156.903       97.619       96.026    24618.424     9529.521     9220.939        5.536        2.168      249.253       74.910        0.090      337.942       10.253      867.441
11/03/2014  16:34:00      169.997      115.885       47.667       65.227       58.702       64.107     4254.580     3445.938     4109.714        2.820        0.591      205.738       24.611        0.014      337.930       10.233      867.445
11/03/2014  16:35:00      134.440       91.568       52.442       97.424       59.753       56.287     9491.510     3570.457     3168.203        2.272        0.812      162.662       53.639        0.109      337.888       10.165      867.435
11/03/2014  16:36:00      171.434       94.787       27.811       76.160       64.838       44.187     5800.382     4203.946     1952.481        2.555        0.598      195.893       28.373        0.021      337.885       10.158      867.428
11/03/2014  16:37:00       50.029       70.730       45.328       45.808       34.334       34.189     2098.347     1178.824     1168.866        0.700        0.222       86.635       20.526        0.056      337.830       10.068      867.416
11/03/2014  16:38:00      180.630      125.267       63.973       91.314       59.641       44.582     8338.282     3557.085     1987.513        3.314        0.694      219.816       37.406        0.029      337.853       10.104      867.423
11/03/2014  16:39:00       93.327       77.868       31.468       80.998       61.695       44.373     6560.698     3806.281     1968.982        1.405        0.617      121.546       38.105        0.098      337.823       10.056      867.409
11/03/2014  16:40:00      123.945       73.836       24.196       58.792       48.671       31.023     3456.524     2368.827      962.406        1.409        0.339      144.272       15.006        0.011      337.811       10.036      867.416
11/03/2014  16:41:00      100.315       42.442       13.215       44.901       39.617       30.899     2016.078     1569.524      954.751        0.829        0.227      108.924       10.458        0.009      337.801       10.020      867.428
11/03/2014  16:42:00      144.374       98.568       23.296       69.741       54.096       38.027     4863.822     2926.375     1446.033        2.017        0.462      174.813       24.185        0.019      337.780        9.983      867.449
11/03/2014  16:43:00      115.215      109.308       24.370       47.946       39.686       50.065     2298.779     1575.005     2506.536        1.610        0.319      158.817       24.528        0.024      337.773        9.973      867.464
11/03/2014  16:44:00      197.782      106.675       31.529       60.755       54.018       46.870     3691.157     2917.947     2196.760        3.015        0.440      224.716       18.466        0.007      337.757        9.944      867.476
11/03/2014  16:45:00      147.442       96.448       18.596       43.322       41.809       39.750     1876.838     1747.980     1580.043        1.830        0.260      176.186       25.842        0.022      337.726        9.894      867.495
11/03/2014  16:46:00       89.217       48.768        6.900       81.553       41.090       35.445     6650.842     1688.355     1256.354        0.999        0.480      101.676       28.587        0.079      337.676        9.810      867.507
11/03/2014  16:47:00       82.745       65.800        9.776       40.822       34.400       36.289     1666.413     1183.334     1316.866        0.772        0.208      105.719       23.791        0.051      337.655        9.777      867.512
11/03/2014  16:48:00       90.273       57.844        8.389       66.756       37.229       32.895     4456.335     1386.035     1082.086        0.924        0.346      107.215       19.473        0.033      337.630        9.733      867.516
11/03/2014  16:49:00      131.373       81.242       28.612       70.688       44.423       45.834     4996.809     1973.442     2100.793        1.687        0.454      154.464       27.827        0.032      337.626        9.726      867.520
11/03/2014  16:50:00       72.879       72.643       17.146       70.869       52.997       46.322     5022.354     2808.672     2145.730        1.043        0.499      102.899       31.115        0.091      337.593        9.671      867.517
11/03/2014  16:51:00      117.486       73.456       20.783       50.892       37.904       34.292     2590.026     1436.720     1175.939        1.242        0.260      138.559       20.795        0.023      337.585        9.659      867.536
11/03/2014  16:52:00      131.014       99.535       12.696       53.587       30.453       38.317     2871.549      927.411     1468.190        1.625        0.263      164.536       16.254        0.010      337.567        9.627      867.554
11/03/2014  16:53:00       98.256       95.331       13.177      119.306       63.498       48.093    14234.040     4032.037     2312.940        1.974        1.029      136.902       51.044        0.139      337.575        9.640      867.556
11/03/2014  16:54:00      139.246       89.972       15.570       86.732       61.621       46.371     7522.413     3797.111     2150.297        2.060        0.673      165.784       32.041        0.037      337.603        9.686      867.559
11/03/2014  16:55:00      139.432      103.503       20.152       50.519       42.734       40.465     2552.131     1826.196     1637.407        1.829        0.301      173.650       26.889        0.024      337.530        9.565      867.555
11/03/2014  16:56:00       73.145       81.164        8.141       56.909       63.958       48.909     3238.666     4090.624     2392.108        1.086        0.486      109.261       44.039        0.162      337.525        9.557      867.546
11/03/2014  16:57:00       91.022       78.620       12.000       70.059       55.360       56.025     4908.292     3064.726     3138.826        1.286        0.556      120.275       43.648        0.132      337.519        9.547      867.538
11/03/2014  16:58:00       95.250       66.596        6.297       54.065       44.544       39.031     2922.981     1984.128     1523.432        0.999        0.322      116.222       27.649        0.057      337.471        9.467      867.535
11/03/2014  16:59:00       53.990       60.106       10.953       57.486       48.050       33.109     3304.589     2308.798     1096.187        0.668        0.335       80.794       26.098        0.104      337.463        9.453      867.543
11/03/2014  17:00:00       45.767       69.581        1.214       45.103       44.638       23.168     2034.284     1992.525      536.746        0.575        0.228       83.283       19.714        0.056      337.411        9.368      867.556
11/03/2014  17:01:00       89.868       66.564       10.595       60.044       40.712       40.561     3605.310     1657.496     1645.161        0.976        0.345      111.835       23.821        0.045      337.420        9.382      867.560
11/03/2014  17:02:00       49.267       30.695        9.611       31.604       22.851       22.718      998.844      522.168      516.124        0.275        0.102       58.046       10.514        0.033      337.393        9.335      867.570
11/03/2014  17:03:00       32.781       91.222      -17.591       44.100       51.850       23.802     1944.779     2688.467      566.539        0.745        0.260       96.933       23.615        0.059      337.405        9.357      867.586
11/03/2014  17:04:00       45.147       65.981        4.345       37.661       61.210       32.807     1418.380     3746.650     1076.267        0.632        0.312       79.948       36.908        0.213      337.372        9.301      867.599
11/03/2014  17:05:00       53.994       77.827       -3.166       40.659       52.102       38.565     1653.131     2714.569     1487.283        0.742        0.293       94.723       33.225        0.123      337.385        9.324      867.614
11/03/2014  17:06:00       41.629       77.960       -3.980       46.970       55.968       32.696     2206.188     3132.408     1069.014        0.712        0.320       88.378       37.377        0.179      337.317        9.210      867.633
11/03/2014  17:07:00       80.541       73.720        8.695       71.894       48.638       37.269     5168.680     2365.635     1389.011        1.046        0.446      109.185       34.320        0.099      337.346        9.258      867.641
11/03/2014  17:08:00       73.455      102.920       -3.959       47.726       66.830       40.929     2277.761     4466.267     1675.200        1.221        0.421      126.444       35.650        0.079      337.331        9.232      867.641
11/03/2014  17:09:00      107.082       65.224       21.011       49.915       35.148       50.313     2491.492     1235.393     2531.412        1.121        0.313      125.382       32.648        0.068      337.328        9.229      867.630
11/03/2014  17:10:00       31.180       46.113       14.593       37.566       36.064       29.092     1411.212     1300.636      846.343        0.343        0.178       55.665       19.642        0.125      337.224        9.053      867.630
11/03/2014  17:11:00       59.787       65.892        2.652       38.573       26.459       26.689     1487.869      700.077      712.326        0.541        0.145       88.973       20.055        0.051      337.260        9.114      867.616
11/03/2014  17:12:00      118.372       61.647       21.369       54.043       39.158       25.879     2920.643     1533.325      669.716        1.170        0.256      133.463       13.146        0.010      337.262        9.116      867.606
11/03/2014  17:13:00       59.812       41.115        8.217       32.677       20.506       23.375     1067.765      420.497      546.408        0.368        0.102       72.581       10.909        0.023      337.263        9.120      867.593
11/03/2014  17:14:00       76.075       68.567       -2.548       32.736       37.924       27.223     1071.635     1438.206      741.103        0.687        0.163      102.415       22.611        0.049      337.237        9.077      867.593
11/03/2014  17:15:00       78.932       74.878       -4.984       64.411       45.779       33.558     4148.776     2095.691     1126.161        0.961        0.369      108.798       19.239        0.031      337.206        9.024      867.597
11/03/2014  17:16:00       93.681       78.976        6.618       53.760       40.182       40.688     2890.179     1614.571     1655.503        1.061        0.308      122.528       30.177        0.061      337.203        9.020      867.605
11/03/2014  17:17:00       68.781       86.156       19.140       68.822       42.823       41.232     4736.517     1833.847     1700.063        1.039        0.414      110.244       28.690        0.068      337.236        9.075      867.622
11/03/2014  17:18:00       62.646       69.664        0.245       50.558       49.979       39.291     2556.095     2497.890     1543.791        0.769        0.330       93.689       33.544        0.128      337.201        9.015      867.642
11/03/2014  17:19:00       66.816       53.207       17.109       55.056       38.697       35.005     3031.149     1497.479     1225.345        0.667        0.288       85.413       22.920        0.072      337.161        8.950      867.661
11/03/2014  17:20:00       73.311       73.128       18.294       59.316       37.787       43.916     3518.401     1427.843     1928.615        0.896        0.344      103.548       28.829        0.078      337.184        8.987      867.690
11/03/2014  17:21:00       55.637       64.119        3.401       42.627       43.629       36.066     1817.043     1903.453     1300.753        0.612        0.251       84.892       28.050        0.109      337.178        8.979      867.709
11/03/2014  17:22:00       24.524      161.026      -18.389       43.276       59.220       37.302     1872.852     3507.003     1391.442        1.682        0.339      162.883       34.557        0.045      337.166        8.956      867.738
11/03/2014  17:23:00       20.642       90.495        2.605       35.905       44.484       33.472     1289.163     1978.847     1120.349        0.650        0.219       92.819       26.949        0.084      337.102        8.850      867.753
11/03/2014  17:24:00       59.943       83.861        2.526       49.567       53.258       41.905     2456.929     2836.395     1756.043        0.884        0.352      103.081       37.022        0.129      337.120        8.878      867.766
11/03/2014  17:25:00       37.062       72.618       13.595       54.060       56.222       38.577     2922.529     3160.899     1488.166        0.720        0.379       81.529       32.320        0.157      337.110        8.862      867.785
11/03/2014  17:26:00       49.284       87.513       -5.324       49.120       72.407       34.924     2412.790     5242.761     1219.706        0.949        0.444      100.437       41.523        0.171      337.123        8.884      867.810
11/03/2014  17:27:00       57.544       33.693       18.253       45.515       30.343       42.070     2071.630      920.723     1769.846        0.477        0.238       66.682       22.682        0.116      337.060        8.779      867.839
11/03/2014  17:28:00       81.650       57.633        6.070       43.084       35.452       29.722     1856.215     1256.851      883.421        0.701        0.200       99.942       19.250        0.037      337.035        8.736      867.869
11/03/2014  17:29:00       27.078       56.679        6.866       41.618       33.320       26.024     1732.088     1110.254      677.258        0.376        0.176       62.816       19.383        0.095      337.029        8.727      867.879
11/03/2014  17:30:00       33.859      150.770      -15.974       39.994       69.366       33.628     1599.489     4811.652     1130.859        1.584        0.377      154.525       28.032        0.033      337.066        8.789      867.896
11/03/2014  17:31:00       32.482      125.452       -7.374       43.751       73.595       39.080     1914.132     5416.224     1527.270        1.285        0.443      129.588       40.825        0.099      337.029        8.727      867.913
11/03/2014  17:32:00       41.119       79.212       -0.207       54.337       56.463       41.134     2952.486     3188.044     1692.011        0.790        0.392       89.248       31.555        0.125      336.968        8.625      867.932
11/03/2014  17:33:00       33.376      129.299      -18.195       51.800       61.980       39.034     2683.267     3841.516     1523.643        1.310        0.402      133.538       41.741        0.098      336.983        8.651      867.966
11/03/2014  17:34:00       46.734      111.566       -0.956       39.148       67.894       51.415     1532.540     4609.606     2643.490        1.171        0.439      120.958       45.783        0.143      336.968        8.624      867.994
11/03/2014  17:35:00       38.151      186.828      -29.550       65.492       68.191       39.003     4289.211     4649.956     1521.234        2.384        0.523      190.683       38.824        0.041      337.006        8.686      868.044
11/03/2014  17:36:00       56.032      122.830       16.133       66.289       91.774       65.641     4394.294     8422.454     4308.751        1.780        0.856      135.007       62.422        0.214      337.021        8.712      868.080
11/03/2014  17:37:00       52.137      120.826       -8.192       59.699       72.742       51.389     3563.925     5291.416     2640.856        1.444        0.575      131.595       47.361        0.130      337.001        8.679      868.119
11/03/2014  17:38:00       35.259       86.959        9.378       51.355       55.477       44.499     2637.370     3077.663     1980.202        0.829        0.385       93.835       28.953        0.095      336.972        8.630      868.141
11/03/2014  17:39:00       51.290      102.633        7.163       66.638       78.970       58.145     4440.557     6236.303     3380.825        1.363        0.703      114.735       53.406        0.217      336.982        8.647      868.144
11/03/2014  17:40:00       16.970      151.891       -5.273       59.650       90.188       49.514     3558.083     8133.867     2451.624        1.876        0.707      152.836       51.102        0.112      336.951        8.595      868.130
11/03/2014  17:41:00       54.235      112.177        3.800       58.031       98.275       51.993     3367.547     9657.953     2703.306        1.563        0.786      124.600       60.031        0.232      336.963        8.614      868.113
11/03/2014  17:42:00       80.761       45.549        9.313       45.632       31.370       24.796     2082.319      984.057      614.864        0.618        0.184       92.720       16.793        0.033      336.917        8.539      868.104
11/03/2014  17:43:00       51.517       56.489        5.568       44.416       40.621       32.994     1972.776     1650.073     1088.595        0.529        0.236       76.452       19.438        0.065      336.874        8.468      868.085
11/03/2014  17:44:00       44.529      100.394        0.138       51.060       83.333       50.572     2607.115     6944.381     2557.500        1.208        0.605      109.826       46.223        0.177      336.924        8.551      868.073
11/03/2014  17:45:00       85.813       88.936       13.756       46.906       63.269       35.117     2200.185     4002.967     1233.185        1.145        0.372      123.586       33.907        0.075      336.947        8.589      868.081
11/03/2014  17:46:00       19.892       94.401       -4.348       42.668       75.033       43.889     1820.541     5629.918     1926.228        0.935        0.469       96.474       42.536        0.194      336.877        8.473      868.084
11/03/2014  17:47:00       77.364       73.087       -0.079       48.724       45.873       36.117     2374.058     2104.301     1304.460        0.855        0.289      106.427       18.857        0.031      336.923        8.550      868.100
11/03/2014  17:48:00       75.441       67.727        3.836       57.476       55.897       52.198     3303.482     3124.428     2724.658        0.972        0.458      101.382       39.610        0.153      336.913        8.533      868.112
11/03/2014  17:49:00       39.849      112.452      -14.171       53.647       66.850       43.358     2878.024     4468.901     1879.910        1.183        0.461      119.304       44.578        0.140      336.944        8.583      868.124
11/03/2014  17:50:00       83.560       76.782        1.001       66.514       55.234       52.025     4424.161     3050.770     2706.651        1.153        0.509      113.480       38.902        0.118      336.913        8.533      868.126
11/03/2014  17:51:00       57.090       87.325       -2.057       49.252       61.245       43.468     2425.785     3751.005     1889.470        0.948        0.403      104.331       34.536        0.110      336.880        8.478      868.143
11/03/2014  17:52:00       60.149      114.721        4.757       66.235       67.835       54.523     4387.017     4601.550     2972.810        1.438        0.598      129.533       50.283        0.151      336.887        8.490      868.160
11/03/2014  17:53:00      117.902       89.863        8.130       80.025       46.524       42.982     6404.076     2164.481     1847.489        1.623        0.521      148.244       27.737        0.035      336.897        8.504      868.168
11/03/2014  17:54:00       31.490       74.694        9.450       41.203       45.949       37.611     1697.661     2111.272     1414.551        0.594        0.261       81.061       31.318        0.149      336.829        8.393      868.191
11/03/2014  17:55:00       44.478       92.653        7.991       46.883       56.311       48.507     2197.974     3170.895     2352.886        0.917        0.386      102.776       45.613        0.197      336.841        8.414      868.209
11/03/2014  17:56:00       53.302      184.143      -14.456       97.079       73.140       51.091     9424.274     5349.496     2610.293        2.717        0.869      191.703       51.570        0.072      336.892        8.495      868.232
11/03/2014  17:57:00      104.705      100.828       23.478      106.271       55.168       45.654    11293.450     3043.548     2084.256        1.905        0.821      145.360       44.268        0.093      336.862        8.447      868.246
11/03/2014  17:58:00       55.291       55.377       11.998       63.426       40.912       40.257     4022.918     1673.788     1620.658        0.679        0.366       78.254       26.589        0.115      336.847        8.424      868.255
11/03/2014  17:59:00       32.751      113.508      -12.379       28.202       43.497       27.126      795.367     1891.964      735.819        0.877        0.171      118.139       26.079        0.049      336.839        8.410      868.263
11/03/2014  18:00:00       28.685       80.717       -8.171       37.878       67.981       31.429     1434.769     4621.426      987.755        0.722        0.352       85.663       37.351        0.190      336.827        8.391      868.248
11/03/2014  18:01:00       70.219       88.067        3.082       55.442       62.238       44.221     3073.817     3873.510     1955.481        1.080        0.445      112.635       36.791        0.107      336.888        8.492      868.248
11/03/2014  18:02:00       21.433       94.953      -12.662       38.786       44.420       26.349     1504.344     1973.129      694.261        0.690        0.209       97.342       28.332        0.085      336.871        8.463      868.238
11/03/2014  18:03:00       26.674      192.595      -30.540       36.178       52.026       29.771     1308.845     2706.742      886.321        2.182        0.245      194.434       28.486        0.021      336.910        8.526      868.237
11/03/2014  18:04:00        9.051      169.473      -16.932       39.517       49.752       32.866     1561.567     2475.286     1080.206        1.710        0.256      169.715       32.072        0.036      336.908        8.524      868.224
11/03/2014  18:05:00        1.662      200.456      -28.699       30.627       37.692       19.540      938.043     1420.690      381.798        2.187        0.137      200.463       13.959        0.005      336.925        8.551      868.232
11/03/2014  18:06:00       12.583      190.481      -22.528       50.966       50.932       34.610     2597.486     2594.048     1197.874        2.167        0.319      190.896       32.336        0.029      336.894        8.500      868.237
11/03/2014  18:07:00      -11.543      221.856      -27.277       28.704       50.468       22.199      823.913     2546.974      492.800        2.698        0.193      222.156       21.559        0.009      336.871        8.461      868.240
11/03/2014  18:08:00        7.733      214.212      -26.347       66.793       72.135       34.749     4461.283     5203.469     1207.483        2.875        0.544      214.351       29.280        0.019      336.821        8.377      868.247
11/03/2014  18:09:00       -6.105      212.572      -23.613       41.374       54.753       27.614     1711.778     2997.914      762.521        2.563        0.274      212.659       23.227        0.012      336.832        8.396      868.256
11/03/2014  18:10:00       27.257      182.832      -30.550       36.253       66.688       32.175     1314.286     4447.236     1035.242        2.095        0.340      184.853       35.228        0.036      336.781        8.311      868.261
11/03/2014  18:11:00       27.499      227.200      -38.111       32.262       42.767       21.698     1040.841     1829.000      470.787        2.858        0.167      228.858       18.292        0.006      336.851        8.427      868.261
11/03/2014  18:12:00        8.586      195.323      -21.524       31.861       66.985       32.246     1015.127     4487.008     1039.777        2.261        0.327      195.511       39.654        0.041      336.782        8.313      868.247
11/03/2014  18:13:00       12.864      232.858      -31.622       41.817       39.016       21.881     1748.636     1522.259      478.762        2.957        0.187      233.213       25.555        0.012      336.793        8.329      868.262
11/03/2014  18:14:00       19.608      195.584      -24.989       37.629       69.273       38.690     1415.961     4798.686     1496.948        2.349        0.386      196.564       39.510        0.040      336.727        8.221      868.270
11/03/2014  18:15:00       26.513       71.320       -1.265       31.559       53.380       29.408      995.940     2849.430      864.808        0.525        0.236       76.089       32.461        0.182      336.686        8.154      868.263
11/03/2014  18:16:00       -0.642       87.609       -9.917       39.485       66.991       28.466     1559.081     4487.762      810.294        0.731        0.343       87.611       35.464        0.164      336.654        8.102      868.278
11/03/2014  18:17:00       16.267      184.836      -23.262       43.482       56.657       29.697     1890.727     3210.002      881.889        2.048        0.299      185.551       28.752        0.024      336.657        8.105      868.290
11/03/2014  18:18:00       29.698       95.149        8.674       58.115       62.502       51.230     3377.310     3906.545     2624.516        0.996        0.495       99.676       42.595        0.183      336.603        8.017      868.299
11/03/2014  18:19:00       24.146      223.371      -22.533       58.250       71.469       41.636     3393.048     5107.783     1733.520        3.061        0.512      224.672       34.806        0.024      336.646        8.085      868.320
11/03/2014  18:20:00       35.695      208.165      -26.182       35.349       68.186       32.034     1249.582     4649.283     1026.148        2.611        0.346      211.203       33.877        0.026      336.613        8.030      868.333
11/03/2014  18:21:00       25.375      191.519      -14.777       49.435       62.733       41.096     2443.833     3935.485     1688.898        2.280        0.403      193.193       31.285        0.026      336.576        7.970      868.341
11/03/2014  18:22:00       24.024      143.046        1.464       61.964       84.318       54.214     3839.551     7109.571     2939.181        1.746        0.694      145.049       52.802        0.133      336.549        7.927      868.346
11/03/2014  18:23:00       20.760       70.727        3.605       43.535       56.449       43.890     1895.304     3186.502     1926.348        0.623        0.350       73.711       38.418        0.272      336.535        7.904      868.352
11/03/2014  18:24:00       56.089       89.832        9.728       69.532       67.411       44.184     4834.646     4544.285     1952.214        1.132        0.567      105.905       43.060        0.165      336.554        7.936      868.362
11/03/2014  18:25:00       23.482      123.554       -1.779       47.448       58.006       39.850     2251.357     3364.639     1587.995        1.151        0.360      125.765       38.573        0.094      336.560        7.944      868.364
11/03/2014  18:26:00       26.425       80.572       -1.498       38.644       58.546       36.705     1493.347     3427.676     1347.229        0.673        0.313       84.794       27.700        0.107      336.552        7.932      868.359
11/03/2014  18:27:00       20.198      121.864       -8.576       40.471       42.681       25.787     1637.902     1821.675      664.980        0.973        0.206      123.526       26.474        0.046      336.555        7.936      868.364
11/03/2014  18:28:00       44.928       68.316       -2.833       39.709       45.304       29.982     1576.842     2052.440      898.929        0.561        0.226       81.765       24.949        0.093      336.509        7.859      868.360
11/03/2014  18:29:00       29.360       52.992        2.491       42.048       42.151       31.529     1767.996     1776.689      994.056        0.411        0.227       60.582       28.905        0.228      336.457        7.771      868.341
11/03/2014  18:30:00      118.966       91.462        5.844       71.030       59.505       45.163     5045.265     3540.854     2039.684        1.659        0.531      150.060       39.421        0.069      336.559        7.941      868.345
11/03/2014  18:31:00       75.014       81.502       -1.690       67.429       55.903       34.832     4546.668     3125.186     1213.279        1.058        0.444      110.768       26.153        0.056      336.588        7.990      868.337
11/03/2014  18:32:00       65.598       59.507       17.404       48.685       61.575       50.851     2370.244     3791.433     2585.824        0.845        0.437       88.567       41.835        0.223      336.543        7.916      868.335
11/03/2014  18:33:00       20.677       92.115       -0.520       39.022       59.654       32.121     1522.699     3558.605     1031.728        0.751        0.306       94.408       30.566        0.105      336.508        7.857      868.341
11/03/2014  18:34:00       21.853       90.052       -4.678       26.142       50.273       31.030      683.388     2527.417      962.869        0.639        0.209       92.665       30.669        0.110      336.509        7.858      868.336
11/03/2014  18:35:00       12.944      141.130      -11.644       45.543       60.299       33.617     2074.194     3636.022     1130.088        1.353        0.342      141.723       32.363        0.052      336.502        7.846      868.348
11/03/2014  18:36:00       16.615       63.764       11.118       35.372       68.629       38.670     1251.145     4709.930     1495.383        0.596        0.373       65.893       40.136        0.371      336.443        7.748      868.381
11/03/2014  18:37:00       28.479       74.190        1.848       38.539       53.422       34.130     1485.229     2853.938     1164.854        0.591        0.275       79.469       34.606        0.190      336.444        7.750      868.411
11/03/2014  18:38:00       27.317      114.452      -17.353       24.813       46.598       17.802      615.682     2171.362      316.904        0.862        0.155      117.667       23.708        0.041      336.421        7.710      868.435
11/03/2014  18:39:00        5.285      143.361      -20.094       25.834       38.174       17.747      667.386     1457.231      314.955        1.171        0.122      143.459       14.247        0.010      336.439        7.740      868.471
11/03/2014  18:40:00        0.904      157.618      -21.884       28.178       36.105       18.126      794.027     1303.576      328.547        1.387        0.121      157.620       14.197        0.008      336.476        7.803      868.491
11/03/2014  18:41:00       -0.086      142.849      -21.694       19.077       23.771       11.361      363.933      565.062      129.082        1.097        0.053      142.849       11.739        0.007      336.460        7.776      868.505
11/03/2014  18:42:00       17.266      139.343      -25.875       14.145       18.786       10.884      200.083      352.907      118.453        1.053        0.034      140.409        7.710        0.003      336.427        7.722      868.534
11/03/2014  18:43:00       19.311      143.175      -20.090       25.574       34.486       16.458      654.054     1189.306      270.881        1.169        0.106      144.471       14.844        0.011      336.426        7.719      868.548
11/03/2014  18:44:00       10.199      157.278      -22.616       25.154       25.434       11.981      632.715      646.871      143.548        1.339        0.071      157.608       10.765        0.005      336.444        7.747      868.547
11/03/2014  18:45:00        9.844      122.449      -22.905       38.826       40.868       18.139     1507.435     1670.208      329.037        0.956        0.175      122.844       11.803        0.009      336.433        7.731      868.557
11/03/2014  18:46:00        2.885      148.343      -18.819       25.768       27.441       17.480      663.989      753.017      305.549        1.204        0.086      148.371       16.612        0.013      336.453        7.763      868.563
11/03/2014  18:47:00       13.932      100.322      -18.883       18.838       21.560       15.413      354.868      464.834      237.571        0.584        0.053      101.285       11.414        0.013      336.456        7.769      868.573
11/03/2014  18:48:00      -16.140      103.608      -15.455       20.967       17.610       11.935      439.630      310.115      142.446        0.606        0.045      104.857        4.759        0.002      336.596        8.005      868.579
11/03/2014  18:49:00      -33.034       97.414      -13.950       29.756       32.663       20.687      885.409     1066.865      427.942        0.658        0.119      102.862       14.990        0.021      336.533        7.900      868.607
11/03/2014  18:50:00      -27.139       62.038       -5.788       34.309       35.468       16.315     1177.094     1257.984      266.177        0.366        0.135       67.714       17.547        0.067      336.595        8.004      868.627
11/03/2014  18:51:00        0.268      112.990      -15.234       15.425       19.904       10.905      237.924      396.169      118.928        0.688        0.038      112.991        5.490        0.002      336.547        7.923      868.643
11/03/2014  18:52:00      -18.410      116.575      -22.201       18.257       29.817        8.969      333.305      889.060       80.451        0.786        0.065      118.020        9.309        0.006      336.574        7.967      868.657
11/03/2014  18:53:00       -2.308      125.008      -21.819       12.997       22.521       10.760      168.916      507.180      115.780        0.845        0.040      125.030        8.742        0.005      336.515        7.870      868.694
11/03/2014  18:54:00       -7.444      122.263      -18.606       22.213       18.281       15.505      493.430      334.198      240.412        0.821        0.053      122.490       14.324        0.014      336.499        7.842      868.710
11/03/2014  18:55:00      -14.482      106.615      -19.300       32.321       28.450       13.756     1044.662      809.378      189.220        0.700        0.102      107.594       14.897        0.019      336.555        7.936      868.706
11/03/2014  18:56:00      -12.548       56.314       -4.309       28.132       26.744       13.728      791.420      715.263      188.471        0.252        0.085       57.695       16.383        0.081      336.565        7.953      868.698
11/03/2014  18:57:00       -8.940       93.016      -16.710       29.798       23.589       14.436      887.896      556.434      208.412        0.533        0.083       93.445       14.159        0.023      336.459        7.775      868.690
11/03/2014  18:58:00      -15.849       94.584      -13.559       25.756       22.152       16.948      663.358      490.701      287.245        0.541        0.072       95.903       11.298        0.014      336.551        7.930      868.670
11/03/2014  18:59:00      -23.749       96.233      -16.517       38.550       33.490       21.288     1486.093     1121.569      453.191        0.658        0.153       99.120       18.410        0.034      336.482        7.813      868.656
11/03/2014  19:00:00       -5.196       73.244       -8.156       21.420       34.588       15.069      458.832     1196.347      227.085        0.367        0.094       73.428       16.537        0.051      336.485        7.818      868.658
11/03/2014  19:01:00       -5.926       91.146      -16.890        9.766       14.949        8.098       95.376      223.468       65.573        0.451        0.019       91.338        5.572        0.004      336.463        7.782      868.671
11/03/2014  19:02:00        1.870       87.741      -12.458       13.022       19.508       10.585      169.567      380.564      112.050        0.426        0.033       87.760        9.008        0.011      336.468        7.788      868.680
11/03/2014  19:03:00        3.423       93.707      -12.605       18.176       17.850       10.066      330.375      318.620      101.325        0.485        0.038       93.770        3.619        0.001      336.484        7.817      868.684
11/03/2014  19:04:00       12.373       71.031      -10.860       14.565       32.844       15.514      212.130     1078.747      240.699        0.342        0.077       72.101       17.092        0.056      336.386        7.652      868.692
11/03/2014  19:05:00       13.644       81.685       -7.559       19.863       31.026       17.670      394.550      962.602      312.239        0.429        0.083       82.817       15.016        0.033      336.354        7.600      868.708
11/03/2014  19:06:00       14.685       92.566      -15.497       15.207       25.111       10.243      231.248      630.569      104.920        0.500        0.048       93.723        8.186        0.008      336.392        7.661      868.739
11/03/2014  19:07:00       15.339      157.980      -27.256       18.951       33.264       13.985      359.159     1106.513      195.587        1.380        0.083      158.723       11.802        0.006      336.408        7.688      868.753
11/03/2014  19:08:00      -17.467      206.524      -28.234       27.633       26.120       17.613      763.562      682.239      310.203        2.275        0.088      207.262       11.842        0.003      336.405        7.682      868.757
11/03/2014  19:09:00       28.040      172.605      -23.506       32.591       47.336       26.671     1062.196     2240.669      711.316        1.757        0.201      174.868       25.077        0.021      336.354        7.599      868.767
11/03/2014  19:10:00        7.777      124.012       -9.746       32.530       55.697       25.398     1058.183     3102.112      645.043        1.017        0.240      124.255       23.624        0.036      336.252        7.429      868.789
11/03/2014  19:11:00       25.875      181.559      -25.568       37.426       39.033       30.308     1400.691     1523.590      918.565        1.906        0.192      183.394       22.401        0.015      336.325        7.551      868.793
11/03/2014  19:12:00       29.927      120.014       -8.231       36.428       59.891       36.803     1326.974     3586.872     1354.448        1.082        0.313      123.689       37.733        0.093      336.240        7.408      868.794
11/03/2014  19:13:00       24.865       91.724       -7.883       34.473       52.364       34.139     1188.403     2742.040     1165.504        0.709        0.255       95.035       32.587        0.118      336.248        7.422      868.784
11/03/2014  19:14:00       13.113       76.722       -1.310       33.127       40.184       31.134     1097.371     1614.789      969.334        0.487        0.184       77.834       26.038        0.112      336.168        7.288      868.774
11/03/2014  19:15:00       38.665       64.503       -1.382       30.143       35.844       26.966      908.589     1284.771      727.165        0.429        0.146       75.204       23.660        0.099      336.150        7.258      868.777
11/03/2014  19:16:00       37.399       99.109      -11.191       43.209       62.118       30.184     1867.058     3858.584      911.075        0.899        0.332      105.931       31.935        0.091      336.188        7.321      868.794
11/03/2014  19:17:00       26.614       89.781        1.264       36.323       60.444       41.294     1319.368     3653.476     1705.205        0.772        0.334       93.643       42.923        0.210      336.164        7.282      868.811
11/03/2014  19:18:00       26.316      121.058       -7.387       43.300       43.981       32.797     1874.869     1934.335     1075.627        1.014        0.244      123.886       28.222        0.052      336.181        7.309      868.824
11/03/2014  19:19:00       22.967       84.185       -0.915       39.070       50.949       37.306     1526.439     2595.788     1391.755        0.656        0.276       87.262       32.665        0.140      336.180        7.307      868.833
11/03/2014  19:20:00       35.897       66.663       -1.372       36.193       39.660       27.695     1309.921     1572.955      767.008        0.469        0.182       75.714       25.319        0.112      336.205        7.350      868.847
11/03/2014  19:21:00       65.025       89.550       -1.597       42.808       47.912       46.440     1832.546     2295.599     2156.714        0.927        0.314      110.668       36.056        0.106      336.241        7.410      868.834
11/03/2014  19:22:00       31.918       72.122       -4.321       41.894       55.543       33.466     1755.071     3085.057     1119.988        0.610        0.298       78.870       34.346        0.190      336.212        7.362      868.823
11/03/2014  19:23:00       56.111       63.934        0.172       40.323       30.982       28.764     1625.964      959.900      827.377        0.532        0.171       85.065       23.066        0.074      336.247        7.421      868.818
11/03/2014  19:24:00       47.163       83.034       -0.744       40.033       76.202       34.762     1602.603     5806.749     1208.430        0.887        0.431       95.493       42.432        0.197      336.226        7.385      868.814
11/03/2014  19:25:00       61.608       57.593       16.997       53.033       43.910       36.581     2812.479     1928.067     1338.133        0.674        0.304       84.336       31.753        0.142      336.250        7.425      868.805
11/03/2014  19:26:00       29.998       83.361       -6.043       38.655       49.033       32.067     1494.190     2404.248     1028.315        0.641        0.246       88.594       31.901        0.130      336.180        7.309      868.784
11/03/2014  19:27:00       16.186      141.206      -18.048       32.293       43.254       25.214     1042.832     1870.891      635.753        1.204        0.177      142.130       26.034        0.034      336.166        7.285      868.774
11/03/2014  19:28:00       28.297      109.323      -11.458       31.394       55.211       31.236      985.563     3048.254      975.681        0.895        0.250      112.926       31.042        0.076      336.125        7.216      868.760
11/03/2014  19:29:00       24.473       77.338        2.075       34.391       54.310       30.848     1182.722     2949.545      951.619        0.583        0.254       81.118       32.749        0.163      336.084        7.148      868.752
11/03/2014  19:30:00       23.510      105.427        0.569       37.812       57.719       35.112     1429.760     3331.497     1232.833        0.883        0.300      108.016       34.998        0.105      336.130        7.226      868.742
11/03/2014  19:31:00       25.652      143.518      -22.259       35.069       43.374       24.087     1229.811     1881.303      580.188        1.272        0.185      145.792       26.294        0.033      336.150        7.259      868.747
11/03/2014  19:32:00       14.362      134.302      -17.876       30.886       28.332       26.306      953.948      802.682      691.992        1.051        0.122      135.067       18.362        0.018      336.129        7.224      868.772
11/03/2014  19:33:00       17.925      124.083       -9.234       34.055       66.309       32.036     1159.751     4396.823     1026.293        1.119        0.329      125.371       38.124        0.092      336.119        7.207      868.793
11/03/2014  19:34:00       11.642      131.566      -18.062       19.729       23.081       14.164      389.221      532.746      200.619        0.945        0.056      132.080       10.655        0.007      336.102        7.179      868.812
11/03/2014  19:35:00       13.643      108.946      -13.377       28.023       30.523       20.065      785.261      931.656      402.604        0.718        0.106      109.797       17.515        0.025      336.049        7.089      868.836
11/03/2014  19:36:00       -9.027      112.275      -16.634       18.725       19.019       12.504      350.642      361.717      156.360        0.692        0.043      112.637        9.903        0.008      336.095        7.165      868.865
11/03/2014  19:37:00       -4.900      129.067      -17.477       23.138       29.453       19.130      535.355      867.455      365.952        0.938        0.088      129.160       18.411        0.020      336.158        7.272      868.873
11/03/2014  19:38:00      -34.126      111.387      -12.257       26.264       28.637       16.288      689.786      820.090      265.308        0.775        0.089      116.498        4.933        0.002      336.256        7.436      868.878
11/03/2014  19:39:00       -4.763      112.625      -11.618       24.016       28.000       12.784      576.751      784.004      163.437        0.718        0.076      112.726       10.527        0.009      336.158        7.271      868.880
11/03/2014  19:40:00       -5.145       96.067       -8.987       24.896       44.558       19.639      619.818     1985.390      385.708        0.616        0.150       96.204       22.429        0.054      336.125        7.215      868.883
11/03/2014  19:41:00       -7.223      107.598      -15.337       28.502       34.964       18.027      812.381     1222.485      324.970        0.711        0.118      107.840       18.000        0.028      336.174        7.299      868.881
11/03/2014  19:42:00       16.283      127.138      -25.013       27.468       18.391       16.088      754.508      338.211      258.821        0.920        0.068      128.177       12.852        0.010      336.198        7.338      868.884
11/03/2014  19:43:00       34.065       43.961        3.531       31.027       28.139       23.264      962.650      791.806      541.226        0.270        0.115       55.615       19.696        0.125      336.060        7.107      868.881
11/03/2014  19:44:00       15.403      105.471      -22.599       17.308       15.740       11.871      299.553      247.745      140.911        0.628        0.034      106.590        7.515        0.005      336.149        7.256      868.898
11/03/2014  19:45:00       15.973      104.889      -10.628       28.380       40.246       20.221      805.414     1619.768      408.879        0.710        0.142      106.098       24.594        0.054      336.050        7.091      868.904
11/03/2014  19:46:00       16.530      109.247      -13.564       15.996       24.087       14.549      255.859      580.168      211.662        0.672        0.052      110.491        8.993        0.007      336.082        7.144      868.904
11/03/2014  19:47:00       -2.765      117.449      -18.526       23.564       33.606       13.713      555.265     1129.331      188.056        0.801        0.094      117.481        7.935        0.005      336.150        7.258      868.902
11/03/2014  19:48:00       12.223      115.787       -9.286       28.000       31.401       19.238      783.975      985.998      370.107        0.789        0.107      116.430       19.545        0.028      336.074        7.132      868.901
11/03/2014  19:49:00       -5.196      113.371      -11.834       21.185       36.357       12.436      448.803     1321.865      154.658        0.747        0.096      113.490       12.350        0.012      336.152        7.262      868.916
11/03/2014  19:50:00       31.914      139.227      -18.600       35.168       42.390       19.336     1236.822     1796.934      373.865        1.208        0.170      142.838       17.211        0.015      336.162        7.280      868.924
11/03/2014  19:51:00       -3.296      108.116      -12.294       18.753       22.208       17.755      351.671      493.190      315.236        0.651        0.058      108.166       13.027        0.015      336.094        7.165      868.953
11/03/2014  19:52:00      -27.570       60.943       -2.721       34.082       42.949       16.583     1161.601     1844.596      274.995        0.388        0.164       66.889       17.351        0.067      335.964        6.948      868.979
11/03/2014  19:53:00      -25.912       35.913       -2.125       26.450       32.224       18.259      699.610     1038.382      333.390        0.202        0.104       44.285        8.385        0.036      336.041        7.076      868.999
11/03/2014  19:54:00      -27.644       62.825      -13.278       27.847       23.119       15.445      775.455      534.481      238.560        0.322        0.077       68.638        9.938        0.021      336.145        7.250      869.016
11/03/2014  19:55:00      -33.207       43.479      -12.222       27.459       28.902       15.769      753.985      835.350      248.658        0.249        0.092       54.709       14.862        0.074      336.020        7.040      869.018
11/03/2014  19:56:00      -23.819       15.464        1.760       19.208       20.245       10.612      368.939      409.863      112.623        0.085        0.045       28.399        9.790        0.119      336.007        7.018      869.023
11/03/2014  19:57:00      -42.694       -1.460       -6.115       17.144       11.513        8.101      293.913      132.550       65.629        0.118        0.025       42.718        5.633        0.017      335.848        6.756      869.035
11/03/2014  19:58:00      -20.955       33.337       -8.322       16.444       14.279       13.101      270.400      203.894      171.635        0.113        0.032       39.376        9.194        0.055      336.017        7.037      869.066
11/03/2014  19:59:00      -10.079       66.981      -12.402       25.584       34.100       11.374      654.539     1162.829      129.376        0.334        0.097       67.735       15.994        0.056      335.994        6.999      869.078
11/03/2014  20:00:00       -6.781       56.973       -3.487       25.032       29.963       12.712      626.604      897.767      161.600        0.249        0.084       57.376       13.482        0.055      336.033        7.063      869.090
11/03/2014  20:01:00        1.788      110.287      -14.920       29.183       27.229       13.358      851.674      741.443      178.435        0.708        0.089      110.301        9.213        0.007      336.026        7.051      869.093
11/03/2014  20:02:00        8.484      128.614      -16.563       21.737       21.899       11.396      472.509      479.571      129.872        0.898        0.054      128.894       10.855        0.007      335.986        6.985      869.086
11/03/2014  20:03:00        6.144      137.736      -20.401       25.132       32.139       18.495      631.614     1032.940      342.074        1.072        0.100      137.873       16.884        0.015      335.964        6.948      869.091
11/03/2014  20:04:00        7.137      150.782      -24.203       21.603       21.007       12.847      466.706      441.301      165.048        1.222        0.054      150.950       10.326        0.005      335.998        7.005      869.091
11/03/2014  20:05:00       17.228      113.659      -13.582       23.888       28.533       16.312      570.647      814.116      266.078        0.752        0.083      114.958       12.931        0.013      335.925        6.883      869.084
11/03/2014  20:06:00       19.023      116.625       -8.854       30.115       50.762       23.056      906.890     2576.743      531.579        0.903        0.201      118.166       25.425        0.046      335.875        6.801      869.083
11/03/2014  20:07:00       20.533       72.969        5.344       28.121       44.847       26.946      790.777     2011.225      726.064        0.465        0.176       75.803       25.263        0.111      335.869        6.790      869.090
11/03/2014  20:08:00        9.087      144.215      -24.804       20.501       21.272       13.605      420.293      452.509      185.098        1.128        0.053      144.501        5.292        0.001      335.924        6.881      869.107
11/03/2014  20:09:00        1.700      144.980      -19.706       34.543       27.988       14.167     1193.202      783.310      200.706        1.179        0.109      144.990       11.999        0.007      336.006        7.017      869.108
11/03/2014  20:10:00       -1.221      118.216      -15.449       22.705       46.271       17.426      515.499     2140.966      303.666        0.859        0.148      118.222       18.967        0.026      335.888        6.820      869.103
11/03/2014  20:11:00      -13.450      115.143      -20.708       18.990       25.874       11.149      360.617      669.446      124.311        0.751        0.058      115.926        7.916        0.005      335.908        6.856      869.105
11/03/2014  20:12:00      -38.087      137.827      -20.200       19.214       27.271       14.052      369.186      743.731      197.463        1.108        0.066      142.993        8.648        0.004      335.949        6.922      869.121
11/03/2014  20:13:00      -32.514      112.933      -15.955       23.839       41.245       16.680      568.317     1701.147      278.236        0.831        0.127      117.520       17.984        0.023      335.992        6.994      869.150
11/03/2014  20:14:00      -56.884      102.184      -15.068       37.048       35.772       23.084     1372.554     1279.647      532.891        0.854        0.159      116.950       21.214        0.033      335.895        6.833      869.179
11/03/2014  20:15:00      -57.996       86.331      -24.308       28.671       40.640       16.980      822.027     1651.617      288.329        0.708        0.138      104.003       21.554        0.043      335.854        6.763      869.199
11/03/2014  20:16:00      -67.592       81.573      -22.533       21.466       38.411       14.715      460.810     1475.384      216.522        0.694        0.108      105.938       14.610        0.019      335.843        6.747      869.206
11/03/2014  20:17:00      -64.018       85.936      -28.929       23.925       38.847       14.924      572.408     1509.066      222.736        0.731        0.115      107.160       13.516        0.016      335.842        6.746      869.208
11/03/2014  20:18:00      -44.685       88.369      -14.121       30.655       37.450       17.457      939.721     1402.535      304.737        0.633        0.132       99.024       13.042        0.017      335.903        6.847      869.220
11/03/2014  20:19:00      -39.686       73.360      -15.017       25.117       24.164       18.837      630.848      583.909      354.821        0.438        0.078       83.407       14.711        0.031      335.893        6.829      869.222
11/03/2014  20:20:00      -19.007       81.488       -6.267       24.905       28.494       15.734      620.275      811.880      247.551        0.436        0.084       83.675       11.788        0.020      335.959        6.940      869.225
11/03/2014  20:21:00      -22.471       92.155      -12.717       20.393       48.367       14.507      415.870     2339.341      210.457        0.606        0.148       94.855       14.347        0.023      335.916        6.869      869.219
11/03/2014  20:22:00       -9.625       79.500        0.002       17.270       43.600       13.259      298.256     1900.983      175.799        0.439        0.119       80.080       13.380        0.028      335.768        6.622      869.224
11/03/2014  20:23:00      -36.267      107.557      -22.762       24.912       32.382       18.594      620.616     1048.600      345.753        0.771        0.101      113.507       13.450        0.014      335.923        6.879      869.236
11/03/2014  20:24:00      -13.131      103.660      -14.880       25.048       42.121       21.447      627.427     1774.199      459.980        0.700        0.143      104.489       22.668        0.047      335.894        6.831      869.263
11/03/2014  20:25:00      -28.816       64.068       -7.994       20.726       35.543       11.332      429.556     1263.303      128.411        0.341        0.091       70.250        8.849        0.016      335.822        6.710      869.288
11/03/2014  20:26:00      -25.510       96.883      -10.485       23.116       34.586       18.262      534.372     1196.211      333.489        0.611        0.103      100.185       17.252        0.030      335.895        6.833      869.306
11/03/2014  20:27:00       -9.722      117.197      -14.582       34.618       28.198       22.339     1198.423      795.105      499.034        0.827        0.125      117.599       17.749        0.023      335.864        6.781      869.311
11/03/2014  20:28:00       -0.514      113.238       -9.436       24.606       25.393       14.728      605.431      644.791      216.926        0.719        0.073      113.239       10.349        0.008      335.862        6.778      869.304
11/03/2014  20:29:00       15.907       87.786       -9.497       16.968       28.177       14.744      287.923      793.945      217.385        0.467        0.065       89.216       13.767        0.024      335.781        6.644      869.299
11/03/2014  20:30:00        7.900       96.299      -14.183       22.972       14.876       12.601      527.707      221.294      158.793        0.522        0.045       96.623       11.712        0.015      335.835        6.735      869.292
11/03/2014  20:31:00       -9.210      119.350      -18.943       21.052       21.735       11.559      443.192      472.418      133.599        0.787        0.052      119.704        9.227        0.006      335.833        6.729      869.291
11/03/2014  20:32:00      -26.600      107.912      -15.422       23.684       26.457       20.003      560.917      699.957      400.134        0.713        0.083      111.142       17.779        0.026      335.791        6.661      869.286
11/03/2014  20:33:00       -2.386      129.339      -16.453       29.789       23.554       15.837      887.397      554.769      250.806        0.935        0.085      129.361       13.261        0.011      335.875        6.799      869.308
11/03/2014  20:34:00      -11.000      103.641      -16.341       20.674       23.461       17.310      427.418      550.428      299.653        0.620        0.064      104.223       12.715        0.015      335.884        6.815      869.339
11/03/2014  20:35:00      -23.060       82.803       -7.117       41.679       41.839       19.043     1737.148     1750.465      362.637        0.564        0.193       85.954       16.449        0.037      335.842        6.746      869.351
11/03/2014  20:36:00      -41.810       76.704      -21.472       26.544       22.930       13.433      704.606      525.799      180.435        0.475        0.071       87.359       13.878        0.025      335.898        6.837      869.360
11/03/2014  20:37:00      -38.350       43.056      -12.557       16.108       19.514       11.930      259.460      380.777      142.317        0.213        0.039       57.659       10.172        0.031      335.817        6.703      869.362
11/03/2014  20:38:00      -35.475       57.738       -9.965       27.169       38.787       21.148      738.128     1504.407      447.224        0.369        0.134       67.765       21.971        0.105      335.842        6.745      869.355
11/03/2014  20:39:00       -4.797       96.580      -14.086       42.203       37.361       13.695     1781.056     1395.853      187.540        0.646        0.168       96.699       14.707        0.023      335.714        6.532      869.351
11/03/2014  20:40:00      -54.094       38.953       -6.708       23.054       27.192       16.332      531.487      739.427      266.723        0.301        0.077       66.660       13.102        0.039      335.716        6.537      869.350
11/03/2014  20:41:00      -23.749       37.826       -2.507       21.729       23.246       12.928      472.156      540.361      167.138        0.159        0.059       44.663       12.329        0.076      335.758        6.606      869.354
11/03/2014  20:42:00      -28.528       15.551       -9.291       21.886       21.083        8.961      478.993      444.507       80.300        0.107        0.050       32.491       10.340        0.101      335.784        6.649      869.345
11/03/2014  20:43:00      -49.969       22.576       -5.774       29.488       24.700       15.740      869.525      610.066      247.761        0.238        0.086       54.832       15.921        0.084      335.657        6.435      869.330
11/03/2014  20:44:00      -44.120       85.495      -16.727       21.789       25.037       15.397      474.748      626.850      237.082        0.544        0.067       96.207        9.370        0.009      335.683        6.481      869.307
11/03/2014  20:45:00      -60.647       57.527      -19.415       19.129       32.478       16.855      365.923     1054.814      284.097        0.453        0.085       83.591        8.573        0.011      335.683        6.481      869.299
11/03/2014  20:46:00      -15.579       57.245       -8.367       26.061       35.353       12.634      679.198     1249.809      159.609        0.284        0.104       59.327        6.686        0.013      335.740        6.576      869.293
11/03/2014  20:47:00      -26.222       42.407      -11.986       16.856       19.387       10.813      284.136      375.845      116.931        0.170        0.039       49.859        6.868        0.019      335.756        6.604      869.289
11/03/2014  20:48:00      -21.889       39.600       -9.501       32.592       25.913       10.342     1062.270      671.486      106.961        0.199        0.092       45.247        7.199        0.025      335.727        6.553      869.286
11/03/2014  20:49:00      -39.415       33.461      -11.244       15.029       21.195        9.109      225.856      449.214       82.965        0.178        0.038       51.703        5.539        0.011      335.735        6.566      869.284
11/03/2014  20:50:00      -38.904       11.150       -6.371       23.555       12.338        9.618      554.817      152.222       92.497        0.124        0.040       40.470        8.802        0.047      335.748        6.590      869.284
11/03/2014  20:51:00      -46.430       -5.661       -3.614       17.164       12.433        8.300      294.611      154.569       68.883        0.136        0.026       46.774        6.255        0.018      335.645        6.417      869.272
11/03/2014  20:52:00      -47.220       12.591       -9.969       17.136       14.023       10.920      293.640      196.654      119.238        0.155        0.030       48.870        8.033        0.027      335.685        6.484      869.264
11/03/2014  20:53:00      -36.628       18.859       -6.494       15.448        9.986        8.842      238.655       99.719       78.176        0.108        0.021       41.198        5.390        0.017      335.604        6.349      869.261
11/03/2014  20:54:00      -47.504       36.747       -8.783       21.815       15.277       15.726      475.874      233.382      247.318        0.232        0.048       60.058       14.025        0.055      335.635        6.399      869.261
11/03/2014  20:55:00        4.081       13.606       10.876       25.431       17.426       11.060      646.712      303.656      122.328        0.070        0.054       14.205       10.926        0.592      335.609        6.356      869.260
11/03/2014  20:56:00      -12.926       28.255       -6.286       17.766       14.085       10.190      315.635      198.381      103.833        0.081        0.031       31.071        8.145        0.069      335.746        6.585      869.252
11/03/2014  20:57:00      -28.823       12.890       -2.859       10.007       11.168        7.645      100.149      124.732       58.450        0.064        0.014       31.574        6.633        0.044      335.643        6.413      869.249
11/03/2014  20:58:00       -4.578       32.397       -0.467       28.861       25.252       14.119      832.951      637.658      199.355        0.137        0.083       32.719       12.990        0.158      335.650        6.425      869.255
11/03/2014  20:59:00      -45.386       17.053       -5.899       19.933       18.188       11.015      397.343      330.814      121.325        0.162        0.042       48.484       12.041        0.062      335.561        6.277      869.266
11/03/2014  21:00:00      -53.326       24.038      -10.871       14.601       12.621        9.752      213.175      159.296       95.103        0.200        0.023       58.494        5.881        0.010      335.584        6.314      869.279
11/03/2014  21:01:00      -28.407       43.178      -13.755       19.962       19.586       11.956      398.492      383.624      142.938        0.189        0.046       51.685        5.236        0.010      335.655        6.435      869.292
11/03/2014  21:02:00      -11.566       46.323       -8.041       23.304       24.256       11.879      543.090      588.345      141.109        0.181        0.064       47.745       10.084        0.045      335.735        6.566      869.300
11/03/2014  21:03:00      -26.246       25.862       -1.478       23.643       21.351       12.928      558.992      455.851      167.135        0.127        0.059       36.847       11.279        0.094      335.619        6.375      869.310
11/03/2014  21:04:00      -41.834       24.265       -8.793       15.629       15.492        9.380      244.277      240.007       87.989        0.149        0.029       48.362        6.616        0.019      335.497        6.170      869.328
11/03/2014  21:05:00      -48.529       42.076      -11.192       16.026       30.489       12.898      256.828      929.566      166.360        0.280        0.068       64.230       11.845        0.034      335.489        6.157      869.355
11/03/2014  21:06:00      -31.819       36.552       -1.323       20.994       21.497       16.485      440.761      462.103      271.740        0.176        0.059       48.462       10.951        0.051      335.581        6.309      869.375
11/03/2014  21:07:00      -39.940        3.135       -8.115       18.110       14.545        9.658      327.974      211.556       93.273        0.115        0.032       40.063        7.995        0.040      335.378        5.971      869.395
11/03/2014  21:08:00       -8.381       -2.906       -5.540       21.769        9.572       10.322      473.889       91.617      106.550        0.039        0.034        8.870        6.178        0.485      335.324        5.882      869.424
11/03/2014  21:09:00        3.024       28.774        2.075       12.484       20.962       11.974      155.840      439.394      143.374        0.079        0.037       28.932       11.957        0.171      335.471        6.128      869.432
11/03/2014  21:10:00      -22.902       40.365      -14.082       19.695       42.538        9.747      387.878     1809.490       94.999        0.232        0.115       46.409       14.164        0.093      335.397        6.003      869.419
11/03/2014  21:11:00      -16.256       22.413       -1.126       17.260       16.585        9.198      297.901      275.059       84.604        0.071        0.033       27.687        5.852        0.045      335.404        6.014      869.409
11/03/2014  21:12:00      -15.434       76.781      -11.270       27.721       47.868       14.286      768.449     2291.299      204.087        0.476        0.163       78.317       11.682        0.022      335.542        6.245      869.409
11/03/2014  21:13:00      -36.173       81.105       -9.149       26.155       55.312       22.111      684.090     3059.375      488.912        0.610        0.212       88.807       28.115        0.100      335.473        6.129      869.431
11/03/2014  21:14:00      -33.233       84.608      -11.867       28.324       23.367       18.836      802.255      546.003      354.793        0.505        0.085       90.901       16.393        0.033      335.501        6.177      869.470
11/03/2014  21:15:00       -2.513      116.172      -12.447       32.541       25.508       18.118     1058.889      650.644      328.267        0.785        0.102      116.199       15.778        0.018      335.562        6.276      869.518
11/03/2014  21:16:00      -29.718      140.055      -19.926       28.376       46.034       26.283      805.174     2119.105      690.786        1.225        0.181      143.173       29.843        0.043      335.578        6.305      869.561
11/03/2014  21:17:00      -16.475      143.801      -22.344       17.481       23.543       14.087      305.591      554.282      198.434        1.125        0.053      144.742       13.352        0.009      335.514        6.199      869.592
11/03/2014  21:18:00      -29.243      123.961      -13.024       21.737       23.943       20.602      472.480      573.285      424.442        0.893        0.074      127.364       14.434        0.013      335.639        6.407      869.609
11/03/2014  21:19:00      -19.221      134.964      -20.731       18.678       34.784       16.643      348.870     1209.904      276.976        1.042        0.092      136.326       16.932        0.015      335.552        6.261      869.621
11/03/2014  21:20:00      -25.272      124.540      -16.599       17.803       34.110       16.995      316.959     1163.485      288.834        0.910        0.088      127.078        8.039        0.004      335.549        6.256      869.625
11/03/2014  21:21:00      -38.843       99.842      -19.162       18.549       37.418       16.559      344.065     1400.103      274.215        0.693        0.101      107.132       16.363        0.023      335.507        6.186      869.613
11/03/2014  21:22:00      -22.824      103.675      -18.196       22.972       37.858       18.182      527.719     1433.251      330.593        0.695        0.115      106.157       14.246        0.018      335.587        6.319      869.605
11/03/2014  21:23:00      -19.521       57.168       -6.809       25.284       56.192       19.283      639.287     3157.564      371.838        0.393        0.208       60.409       20.183        0.112      335.498        6.172      869.611
11/03/2014  21:24:00      -25.253        8.777       -6.186       17.442       14.460        8.446      304.219      209.092       71.329        0.067        0.029       26.735        5.770        0.047      335.342        5.911      869.605
11/03/2014  21:25:00      -20.442       15.478       -3.042       18.676       24.283       14.030      348.790      589.681      196.828        0.090        0.057       25.641       12.619        0.242      335.338        5.903      869.585
11/03/2014  21:26:00        1.619       60.885       -5.049       21.703       33.709       15.382      471.007     1136.298      236.610        0.279        0.092       60.906       17.352        0.081      335.354        5.932      869.558
11/03/2014  21:27:00      -32.940       97.683       -9.719       22.037       24.505       17.414      485.618      600.478      303.241        0.606        0.069      103.087       15.721        0.023      335.403        6.014      869.547
11/03/2014  21:28:00      -30.181      103.020      -10.365       18.416       34.613       16.328      339.148     1198.057      266.603        0.672        0.090      107.350       16.402        0.023      335.387        5.986      869.557
11/03/2014  21:29:00      -17.925       94.998      -12.005       21.845       22.459       12.440      477.200      504.414      154.756        0.531        0.057       96.674        8.060        0.007      335.339        5.907      869.562
11/03/2014  21:30:00      -37.561      121.398      -16.084       19.100       25.302       16.860      364.823      640.180      284.245        0.885        0.064      127.076       13.476        0.011      335.399        6.007      869.563
11/03/2014  21:31:00      -45.524      109.624      -15.022       24.104       29.035       18.826      581.005      843.031      354.427        0.805        0.089      118.701       13.542        0.013      335.378        5.970      869.559
11/03/2014  21:32:00      -53.905       54.080       -5.988       27.150       35.261       17.403      737.133     1243.345      302.855        0.407        0.114       76.357       18.218        0.057      335.319        5.873      869.556
11/03/2014  21:33:00      -11.445       84.116      -12.502       29.833       34.494       15.904      890.025     1189.863      252.944        0.485        0.117       84.892       14.904        0.031      335.437        6.070      869.543
11/03/2014  21:34:00       -1.549      115.530      -17.109       15.665       23.216       11.769      245.407      538.988      138.505        0.728        0.046      115.541        6.004        0.003      335.391        5.993      869.519
11/03/2014  21:35:00      -10.814      110.418      -14.581       26.089       27.191       11.244      680.662      739.338      126.427        0.703        0.077      110.947        6.576        0.004      335.363        5.945      869.516
11/03/2014  21:36:00       -7.327       81.157       -6.413       23.715       30.284       20.256      562.416      917.091      410.320        0.429        0.094       81.487       17.294        0.045      335.375        5.966      869.522
11/03/2014  21:37:00       -5.253       92.003      -12.536       22.170       17.804       16.761      491.520      316.974      280.920        0.487        0.054       92.153       12.799        0.019      335.295        5.833      869.532
11/03/2014  21:38:00       12.205       72.482       -9.341       12.776       17.504       10.262      163.229      306.399      105.299        0.303        0.029       73.502        8.664        0.014      335.238        5.738      869.554
11/03/2014  21:39:00        5.988       84.625      -19.056       20.325       14.134       13.003      413.125      199.768      169.084        0.417        0.039       84.837       13.721        0.026      335.250        5.758      869.584
11/03/2014  21:40:00      -25.059       98.392      -15.483       22.337       18.030       14.580      498.923      325.098      212.588        0.579        0.052      101.533       11.193        0.012      335.326        5.885      869.606
11/03/2014  21:41:00       -7.556      104.268      -15.335       17.541       15.897       10.159      307.689      252.713      103.203        0.591        0.033      104.541        3.794        0.001      335.315        5.866      869.608
11/03/2014  21:42:00      -14.303       53.769       -8.166       23.668       42.790       14.788      560.196     1831.009      218.670        0.289        0.130       55.639        9.648        0.030      335.316        5.868      869.612
11/03/2014  21:43:00      -18.551       52.865      -12.644       29.689       41.570       15.817      881.436     1728.035      250.173        0.308        0.143       56.025       21.812        0.152      335.260        5.776      869.630
11/03/2014  21:44:00      -45.820       48.523       -3.898       35.033       33.825       12.503     1227.327     1144.126      156.332        0.350        0.126       66.738       11.746        0.031      335.100        5.510      869.649
11/03/2014  21:45:00      -20.812        8.339        7.034       21.044       11.466       16.006      442.838      131.476      256.185        0.069        0.042       22.421        7.978        0.127      335.110        5.527      869.659
11/03/2014  21:46:00      -49.704       26.556       -9.553       20.464       21.831       14.455      418.763      476.606      208.949        0.219        0.055       56.353       10.476        0.035      335.257        5.770      869.670
11/03/2014  21:47:00      -40.073        7.451       -8.493       10.793       21.637       11.429      116.494      468.171      130.620        0.122        0.036       40.760        6.643        0.027      335.120        5.544      869.690
11/03/2014  21:48:00      -44.673      -21.026       -2.626        9.625       14.852        6.850       92.640      220.579       46.925        0.140        0.018       49.374        3.430        0.005      334.983        5.317      869.702
11/03/2014  21:49:00      -54.117      -31.379       -3.767       10.831       11.195        9.417      117.301      125.331       88.687        0.213        0.017       62.557        7.585        0.015      334.928        5.224      869.700
11/03/2014  21:50:00      -44.946      -22.640       -3.604       21.708       14.129       12.220      471.245      199.615      149.339        0.168        0.041       50.326        8.536        0.029      334.840        5.078      869.693
11/03/2014  21:51:00      -21.343      -28.126       11.175       15.387       12.282       12.798      236.770      150.854      163.792        0.096        0.028       35.307        9.849        0.078      334.817        5.039      869.714
11/03/2014  21:52:00      -43.260      -23.961       -2.790       17.070        7.791       10.393      291.378       60.695      108.017        0.146        0.023       49.452        9.740        0.039      334.817        5.040      869.720
11/03/2014  21:53:00      -58.384      -17.414      -10.217       10.488       10.022        8.268      109.997      100.437       68.360        0.205        0.014       60.926        3.670        0.004      334.812        5.032      869.727
11/03/2014  21:54:00      -59.724      -37.227       -6.621       11.084       13.810        9.261      122.852      190.724       85.766        0.270        0.020       70.376        6.335        0.008      334.840        5.079      869.739
11/03/2014  21:55:00      -28.315      -17.829        3.829       20.035       13.993       11.560      401.397      195.807      133.629        0.093        0.037       33.461        7.288        0.047      334.756        4.939      869.744
11/03/2014  21:56:00      -42.773      -26.916       -2.886       17.666        8.471       11.397      312.071       71.766      129.901        0.154        0.026       50.537       10.963        0.047      334.779        4.978      869.745
11/03/2014  21:57:00      -61.037      -31.703       -4.018       19.050       11.218       12.516      362.911      125.846      156.641        0.270        0.032       68.779       11.372        0.027      334.710        4.863      869.735
11/03/2014  21:58:00      -57.716      -25.673       -8.363        8.253        8.163        7.746       68.120       66.637       60.000        0.213        0.010       63.168        2.056        0.001      334.764        4.953      869.727
11/03/2014  21:59:00      -70.271      -33.263      -10.668        9.129        9.345        6.723       83.330       87.335       45.196        0.319        0.011       77.746        3.083        0.002      334.732        4.901      869.721
11/03/2014  22:00:00      -78.394      -33.769      -14.098        9.803        7.863        6.727       96.101       61.830       45.256        0.384        0.010       85.358        5.222        0.004      334.727        4.891      869.731
11/03/2014  22:01:00      -85.152      -21.241      -13.113       13.738       13.912        7.804      188.746      193.551       60.910        0.416        0.022       87.761        2.650        0.001      334.583        4.651      869.746
11/03/2014  22:02:00      -88.259      -23.663       -8.110       12.471       14.926       12.773      155.536      222.788      163.145        0.448        0.027       91.376        7.926        0.008      334.565        4.620      869.761
11/03/2014  22:03:00      -96.657      -20.740      -12.018       21.907       15.166       11.492      479.916      229.997      132.067        0.538        0.042       98.857       11.129        0.013      334.571        4.631      869.781
11/03/2014  22:04:00      -86.570      -26.427       -7.362       18.236       15.800       13.810      332.535      249.640      190.725        0.451        0.039       90.514        9.892        0.012      334.569        4.628      869.802
11/03/2014  22:05:00      -73.996      -17.518      -11.267       26.639       13.626        9.267      709.650      185.667       85.884        0.345        0.049       76.041        7.887        0.011      334.490        4.496      869.817
11/03/2014  22:06:00      -71.776       -8.601       -8.284       29.917       15.415       14.220      895.004      237.628      202.212        0.331        0.067       72.289       13.416        0.034      334.479        4.479      869.829
11/03/2014  22:07:00      -61.797      -17.237       -8.174       22.420       14.089        9.430      502.644      198.489       88.925        0.249        0.040       64.156        8.005        0.016      334.495        4.505      869.838
11/03/2014  22:08:00      -49.571      -13.992       -6.003       27.379       19.966        9.589      749.614      398.653       91.944        0.196        0.062       51.508        6.214        0.015      334.482        4.483      869.849
11/03/2014  22:09:00      -71.083       -7.147       -7.229       27.649       22.576       13.230      764.440      509.692      175.035        0.330        0.072       71.441        9.714        0.018      334.429        4.397      869.856
11/03/2014  22:10:00      -57.102      -25.685       -7.719       14.285       17.145       11.700      204.058      293.935      136.880        0.231        0.032       62.613        7.112        0.013      334.430        4.398      869.854
11/03/2014  22:11:00      -75.509      -22.482       -9.525       19.651       17.286       13.212      386.169      298.798      174.550        0.358        0.043       78.785       12.453        0.025      334.357        4.276      869.854
11/03/2014  22:12:00      -85.719      -32.270      -10.325       17.716       18.275       10.006      313.858      333.978      100.123        0.462        0.037       91.592        7.785        0.007      334.361        4.284      869.861
11/03/2014  22:13:00      -67.010      -52.543        2.757       18.717       19.601       15.724      350.333      384.185      247.250        0.412        0.049       85.154        8.010        0.009      334.362        4.284      869.875
11/03/2014  22:14:00      -45.642      -37.126       -4.308       28.283       20.215       13.348      799.903      408.630      178.170        0.243        0.069       58.835       11.553        0.039      334.343        4.255      869.889
11/03/2014  22:15:00       -6.424      -26.729       12.314       20.034       13.567       10.306      401.362      184.056      106.219        0.080        0.035       27.490       10.793        0.154      334.311        4.200      869.897
11/03/2014  22:16:00      -53.708       -1.614       -5.480       19.979       12.884       12.103      399.155      166.007      146.478        0.181        0.036       53.732       10.606        0.039      334.341        4.249      869.901
11/03/2014  22:17:00      -79.595       -4.143      -11.893       11.976       11.214        9.302      143.425      125.762       86.534        0.342        0.018       79.702        5.085        0.004      334.362        4.286      869.896
11/03/2014  22:18:00      -34.927       -7.772       -6.473       24.328       15.634        8.694      591.853      244.428       75.580        0.112        0.046       35.782       10.319        0.083      334.425        4.389      869.877
11/03/2014  22:19:00      -18.130      -16.683       -3.001       12.163       10.882        8.912      147.929      118.409       79.432        0.048        0.017       24.638        8.657        0.123      334.407        4.361      869.855
11/03/2014  22:20:00      -19.059      -16.450       -7.026        8.563        7.485        8.814       73.330       56.020       77.685        0.045        0.010       25.176        6.156        0.060      334.418        4.378      869.834
11/03/2014  22:21:00      -22.912      -17.647       -3.444       14.577        6.907        6.358      212.497       47.702       40.421        0.057        0.015       28.920        6.782        0.055      334.494        4.505      869.825
11/03/2014  22:22:00      -36.472       -4.963       -6.681       20.161        9.148        6.730      406.467       83.678       45.295        0.097        0.027       36.808        6.956        0.036      334.422        4.383      869.810
11/03/2014  22:23:00        6.146       19.211        0.355       18.619       13.387       11.968      346.680      179.210      143.234        0.054        0.033       20.170        8.887        0.194      334.749        4.927      869.805
11/03/2014  22:24:00       15.046        0.880        7.915       18.454        8.489        6.396      340.567       72.062       40.912        0.037        0.023       15.071        4.313        0.082      334.732        4.897      869.801
11/03/2014  22:25:00        5.208       20.192       -1.173       11.284        9.475        9.550      127.329       89.785       91.201        0.037        0.015       20.853        6.462        0.096      334.706        4.855      869.796
11/03/2014  22:26:00        9.546        3.117        4.857        8.487        8.900        8.475       72.026       79.201       71.818        0.017        0.011       10.042        7.338        0.534      334.585        4.655      869.773
11/03/2014  22:27:00       13.246      -10.490        9.065       13.434        7.982        9.424      180.471       63.711       88.811        0.035        0.017       16.897        2.393        0.020      334.670        4.795      869.762
11/03/2014  22:28:00       -2.337        6.690       -1.704       13.947       11.182        8.470      194.528      125.039       71.734        0.022        0.020        7.087        6.110        0.743      334.626        4.721      869.752
11/03/2014  22:29:00       12.877       22.244        2.745        9.520       15.641        7.298       90.630      244.648       53.256        0.053        0.019       25.703        7.695        0.090      334.725        4.887      869.741
11/03/2014  22:30:00        2.322       27.701       -5.669       10.988       13.212        8.394      120.729      174.555       70.458        0.059        0.018       27.799        5.080        0.033      334.685        4.820      869.734
11/03/2014  22:31:00        0.950       29.984       -2.799       20.602       19.412       13.065      424.434      376.822      170.690        0.094        0.049       29.999       11.062        0.136      334.731        4.898      869.737
11/03/2014  22:32:00      -17.789        2.597       -0.857       16.442       28.714       10.873      270.326      824.476      118.213        0.077        0.061       17.978        6.817        0.144      334.596        4.673      869.755
11/03/2014  22:33:00      -49.674      -18.956       -8.214       10.411        7.623        5.321      108.394       58.109       28.317        0.154        0.010       53.168        2.760        0.003      334.340        4.250      869.757
11/03/2014  22:34:00      -51.225      -38.312       -6.192       27.401       14.086       13.851      750.826      198.404      191.839        0.264        0.057       63.967        6.878        0.012      334.164        3.957      869.746
11/03/2014  22:35:00      -64.440      -38.937        4.600       25.512       18.442       18.183      650.852      340.100      330.636        0.351        0.066       75.290       14.463        0.037      334.208        4.030      869.738
11/03/2014  22:36:00      -66.061      -48.071       -0.113       31.208       16.820       19.585      973.956      282.912      383.574        0.416        0.082       81.700       14.780        0.033      334.179        3.982      869.735
11/03/2014  22:37:00      -85.954      -34.596       -3.325       34.865       19.760       13.931     1215.558      390.477      194.086        0.520        0.090       92.655       11.872        0.016      334.064        3.791      869.738
11/03/2014  22:38:00     -104.642      -32.950       -8.752       15.190       19.411       12.912      230.741      376.798      166.731        0.644        0.039      109.707       11.312        0.011      334.056        3.777      869.738
11/03/2014  22:39:00      -83.733      -56.226        0.439       36.847       21.868       18.939     1357.737      478.198      358.690        0.618        0.110      100.859       17.121        0.029      333.991        3.670      869.726
11/03/2014  22:40:00     -112.991      -73.418      -13.623       35.341       27.008       20.075     1248.969      729.430      403.020        1.036        0.119      134.748        6.479        0.002      333.946        3.594      869.712
11/03/2014  22:41:00     -102.144      -52.356       -7.722       25.512       41.660       17.967      650.872     1735.568      322.806        0.797        0.135      114.780        7.761        0.005      333.928        3.565      869.694
11/03/2014  22:42:00     -113.309      -31.880       -5.098       21.720       23.132       19.351      471.738      535.096      374.478        0.763        0.069      117.709        5.511        0.002      333.898        3.516      869.692
11/03/2014  22:43:00      -72.313      -31.100        3.108       36.778       24.734       21.348     1352.590      611.787      455.741        0.431        0.121       78.717       22.226        0.080      333.911        3.536      869.698
11/03/2014  22:44:00      -99.724     -101.217       -2.162       28.388       27.391       18.239      805.879      750.275      332.644        1.104        0.094      142.091       18.009        0.016      333.854        3.442      869.702
11/03/2014  22:45:00     -124.611      -97.195       -6.841       32.471       30.591       22.688     1054.385      935.805      514.744        1.376        0.125      158.034       14.330        0.008      333.865        3.460      869.697
11/03/2014  22:46:00      -76.909      -47.195        5.754       56.776       25.806       24.858     3223.474      665.925      617.921        0.634        0.225       90.235       26.198        0.084      333.878        3.482      869.688
11/03/2014  22:47:00      -64.668      -57.315        5.372       42.307       36.427       24.867     1789.884     1326.915      618.351        0.561        0.187       86.411       26.555        0.094      333.859        3.452      869.670
11/03/2014  22:48:00     -101.167      -52.953        0.668       38.379       25.028       21.004     1472.912      626.386      441.155        0.779        0.127      114.187       19.771        0.030      333.815        3.377      869.660
11/03/2014  22:49:00      -59.674      -37.705        3.471       46.235       31.403       20.428     2137.649      986.168      417.300        0.427        0.177       70.588       18.144        0.066      333.856        3.445      869.641
11/03/2014  22:50:00      -52.898      -39.711        7.633       38.269       27.915       22.558     1464.508      779.249      508.844        0.359        0.138       66.145       19.373        0.086      333.843        3.424      869.622
11/03/2014  22:51:00      -51.584      -33.806        5.947       39.236       25.089       24.686     1539.445      629.481      609.407        0.331        0.139       61.674       20.955        0.115      333.849        3.434      869.619
11/03/2014  22:52:00      -41.383      -33.226        6.718       38.025       24.831       20.427     1445.869      616.563      417.257        0.267        0.124       53.071       20.632        0.151      333.905        3.527      869.629
11/03/2014  22:53:00      -87.307      -61.760       -2.343       36.187       24.117       18.132     1309.490      581.635      328.760        0.683        0.111      106.943       17.919        0.028      333.895        3.511      869.645
11/03/2014  22:54:00      -52.317      -41.178        8.674       45.103       32.193       21.092     2034.236     1036.408      444.880        0.401        0.176       66.579       16.625        0.062      333.846        3.428      869.654
11/03/2014  22:55:00      -56.716      -42.226        2.206       42.717       37.560       22.885     1824.725     1410.725      523.705        0.438        0.188       70.709       22.337        0.100      333.814        3.375      869.679
11/03/2014  22:56:00      -77.822      -63.978       -0.319       45.673       28.724       20.943     2086.023      825.040      438.630        0.675        0.167      100.745       16.142        0.026      333.857        3.448      869.685
11/03/2014  22:57:00      -82.410      -68.726        3.419       37.988       33.389       23.443     1443.089     1114.792      549.567        0.732        0.155      107.307       17.235        0.026      333.840        3.418      869.687
11/03/2014  22:58:00     -106.149      -69.722       -3.566       30.788       24.672       17.178      947.887      608.698      295.072        0.900        0.093      126.999       10.235        0.006      333.806        3.363      869.698
11/03/2014  22:59:00     -101.220      -73.350       -7.238       33.946       27.743       20.355     1152.351      769.697      414.309        0.901        0.117      125.003       16.777        0.018      333.764        3.292      869.704
11/03/2014  23:00:00      -92.109      -50.804        4.153       46.262       21.870       21.817     2140.188      478.306      475.969        0.709        0.155      105.190       17.133        0.027      333.718        3.216      869.712
11/03/2014  23:01:00     -100.278      -50.064       -1.957       34.709       31.439       21.060     1204.723      988.384      443.535        0.760        0.132      112.081       20.027        0.032      333.708        3.200      869.719
11/03/2014  23:02:00     -122.721      -78.511       -9.770       26.715       27.975       17.073      713.678      782.596      291.487        1.155        0.089      145.686       13.568        0.009      333.723        3.224      869.727
11/03/2014  23:03:00     -115.600      -59.375      -10.518       18.549       25.175       16.302      344.073      633.799      265.743        0.912        0.062      129.957        5.747        0.002      333.706        3.197      869.734
11/03/2014  23:04:00     -104.476      -19.015       -9.424       27.724       21.092       20.142      768.594      444.857      405.692        0.649        0.081      106.192       13.822        0.017      333.652        3.107      869.751
11/03/2014  23:05:00     -129.059      -33.476       -4.855       39.145       34.424       24.282     1532.323     1184.989      589.621        1.055        0.165      133.330       24.015        0.032      333.667        3.132      869.769
11/03/2014  23:06:00     -133.364      -65.523      -11.213       22.890       27.594       17.158      523.945      761.411      294.390        1.189        0.079      148.590        6.627        0.002      333.694        3.176      869.778
11/03/2014  23:07:00     -105.526      -31.515       -5.232       25.126       28.780       18.698      631.330      828.307      349.615        0.698        0.090      110.131       14.853        0.018      333.654        3.112      869.789
11/03/2014  23:08:00     -116.908      -22.607       -3.863       31.958       23.635       20.563     1021.339      558.633      422.829        0.810        0.100      119.074       19.829        0.028      333.592        3.007      869.796
11/03/2014  23:09:00      -97.461      -36.837       -6.209       19.884       19.485       13.282      395.359      379.652      176.417        0.592        0.048      104.190       10.944        0.011      333.666        3.130      869.781
11/03/2014  23:10:00      -88.153      -28.229       -6.496       13.448       22.095       11.669      180.840      488.200      136.170        0.471        0.040       92.563        7.948        0.007      333.714        3.209      869.761
11/03/2014  23:11:00      -84.012      -32.086       -5.501        9.506       15.716        8.245       90.362      246.996       67.979        0.426        0.020       89.931        6.480        0.005      333.717        3.213      869.754
11/03/2014  23:12:00     -102.233      -54.447      -10.675       13.805       11.197        9.749      190.567      125.376       95.037        0.697        0.021      115.828        4.563        0.002      333.793        3.342      869.747
11/03/2014  23:13:00      -97.025      -59.027      -11.721       21.056       17.263       13.930      443.375      298.008      194.037        0.699        0.047      113.570        8.543        0.006      333.721        3.220      869.746
11/03/2014  23:14:00      -57.647      -46.331        2.629       36.734       24.896       20.535     1349.378      619.827      421.685        0.393        0.120       73.957       14.209        0.037      333.675        3.147      869.753
11/03/2014  23:15:00      -36.640      -45.000        0.056       34.979       29.977       22.694     1223.531      898.615      515.029        0.300        0.132       58.030       16.790        0.084      333.607        3.033      869.762
11/03/2014  23:16:00      -78.577      -52.307        2.202       37.215       23.735       15.970     1384.961      563.353      255.051        0.556        0.110       94.395       13.669        0.021      333.622        3.058      869.768
11/03/2014  23:17:00     -120.867      -53.031       -3.809       15.011       17.173       12.559      225.340      294.928      157.723        0.906        0.034      131.989        5.573        0.002      333.545        2.929      869.767
11/03/2014  23:18:00     -109.332      -53.175      -10.813       12.864       12.848        9.594      165.488      165.083       92.040        0.766        0.021      121.578        6.088        0.003      333.534        2.910      869.784
11/03/2014  23:19:00     -105.649      -59.906       -5.137       23.076       20.655       16.390      532.491      426.649      268.630        0.800        0.061      121.451       14.400        0.014      333.585        2.997      869.791
11/03/2014  23:20:00      -95.663      -59.477       -2.012       20.525       20.057       14.418      421.295      402.295      207.886        0.686        0.052      112.645        8.307        0.005      333.633        3.075      869.797
11/03/2014  23:21:00      -97.163      -45.491      -10.043       17.664       11.820        9.418      312.001      139.716       88.707        0.608        0.027      107.285        3.093        0.001      333.613        3.043      869.800
11/03/2014  23:22:00      -85.154      -18.954       -7.418       19.870       17.862       11.491      394.800      319.039      132.051        0.426        0.042       87.238       10.783        0.015      333.563        2.959      869.804
11/03/2014  23:23:00      -69.909      -13.074       -4.014       30.452       19.988       16.257      927.339      399.528      264.292        0.333        0.080       71.121       18.211        0.066      333.527        2.899      869.808
11/03/2014  23:24:00      -38.940       -6.448        5.986       26.225       18.705       19.544      687.729      349.890      381.975        0.151        0.071       39.471       15.003        0.144      333.535        2.913      869.805
11/03/2014  23:25:00      -98.394      -49.838       -4.395       22.907       24.108       12.122      524.743      581.214      146.941        0.672        0.063      110.296        8.863        0.006      333.597        3.015      869.810
11/03/2014  23:26:00     -124.532      -59.318       -9.136       18.470       21.779       14.355      341.158      474.317      206.079        1.007        0.051      137.938       10.023        0.005      333.569        2.970      869.815
11/03/2014  23:27:00      -82.573      -20.595        4.673       29.832       32.922       20.280      889.949     1083.870      411.270        0.482        0.119       85.103       14.840        0.030      333.593        3.010      869.817
11/03/2014  23:28:00     -107.583      -11.004       -9.084       43.969       24.445       21.620     1933.266      597.570      467.422        0.739        0.150      108.144       24.656        0.052      333.492        2.841      869.836
11/03/2014  23:29:00      -84.497      -18.106       -2.564       47.343       42.596       23.509     2241.339     1814.419      552.696        0.604        0.230       86.416       25.548        0.087      333.436        2.750      869.849
11/03/2014  23:30:00      -76.539      -13.180       -1.553       45.999       26.713       14.330     2115.873      713.577      205.336        0.453        0.152       77.665       18.836        0.059      333.503        2.860      869.851
11/03/2014  23:31:00      -35.714      -31.816        1.890       29.446       19.681       14.986      867.080      387.332      224.584        0.188        0.074       47.830       16.315        0.116      333.531        2.905      869.860
11/03/2014  23:32:00      -69.373      -21.422      -10.834       32.212       22.199       15.749     1037.589      492.795      248.037        0.358        0.089       72.606       15.854        0.048      333.548        2.933      869.883
11/03/2014  23:33:00      -58.220      -33.298       -3.691       19.511       23.956       17.202      380.694      573.904      295.921        0.288        0.063       67.069        9.534        0.020      333.518        2.884      869.898
11/03/2014  23:34:00      -56.573      -28.709       -9.812       28.714       22.568       16.086      824.494      509.298      258.744        0.286        0.080       63.440       11.639        0.034      333.574        2.977      869.905
11/03/2014  23:35:00      -60.236       -9.540       -8.001       25.756       14.359       11.517      663.369      206.190      132.648        0.239        0.050       60.987       11.364        0.035      333.528        2.901      869.916
11/03/2014  23:36:00      -57.550      -19.837       -9.420       28.107       22.237       15.998      790.003      494.462      255.947        0.267        0.077       60.873       13.431        0.049      333.545        2.928      869.924
11/03/2014  23:37:00      -53.217       -7.182       -1.780       26.849       21.375       14.851      720.885      456.894      220.546        0.214        0.070       53.699       13.289        0.061      333.520        2.889      869.923
11/03/2014  23:38:00      -79.859      -26.025       -9.986       15.073       19.506       10.802      227.194      380.491      116.674        0.394        0.036       83.993        7.343        0.008      333.644        3.095      869.924
11/03/2014  23:39:00      -71.584      -28.056      -11.006       18.425       23.232       16.951      339.482      539.706      287.335        0.360        0.058       76.886       12.227        0.025      333.640        3.088      869.928
11/03/2014  23:40:00      -96.958       -1.064      -14.452       24.916       19.545       16.706      620.791      382.019      279.101        0.545        0.064       96.964       11.388        0.014      333.561        2.956      869.932
11/03/2014  23:41:00      -72.362      -34.458      -11.716       28.581       18.546       13.242      816.887      343.965      175.344        0.395        0.067       80.148        5.366        0.004      333.578        2.983      869.935
11/03/2014  23:42:00      -87.420      -15.688      -12.996       22.356       20.206       12.747      499.804      408.272      162.489        0.456        0.054       88.816        7.660        0.007      333.517        2.884      869.936
11/03/2014  23:43:00      -92.300      -26.709      -13.871       25.354       18.594       17.694      642.826      345.731      313.081        0.536        0.065       96.087       15.920        0.027      333.473        2.810      869.944
11/03/2014  23:44:00      -77.977      -25.172      -16.904       17.470       16.936       13.407      305.215      286.843      179.755        0.389        0.039       81.939        8.320        0.010      333.476        2.815      869.967
11/03/2014  23:45:00      -57.163      -33.124       -6.843       17.737       18.409       12.173      314.585      338.877      148.186        0.261        0.040       66.067       10.690        0.026      333.530        2.904      869.982
11/03/2014  23:46:00      -58.308      -41.246       -8.535       16.336       17.248       13.942      266.868      297.503      194.369        0.297        0.038       71.422       11.093        0.024      333.546        2.931      869.985
11/03/2014  23:47:00      -34.762      -46.290      -14.855       24.037       20.393       18.149      577.762      415.863      329.377        0.245        0.066       57.889       12.525        0.047      333.544        2.929      869.992
11/03/2014  23:48:00      -46.392      -50.455      -15.305       23.428       20.316       15.776      548.852      412.744      248.871        0.307        0.061       68.541       12.801        0.035      333.591        3.007      869.998
11/03/2014  23:49:00      -95.401      -35.059      -11.671       21.162       14.136       13.220      447.831      199.817      174.759        0.564        0.041      101.639       10.964        0.012      333.475        2.813      870.020
11/03/2014  23:50:00      -90.484      -27.082       -6.383       11.112       14.809        7.983      123.473      219.313       63.721        0.468        0.020       94.450        6.080        0.004      333.548        2.935      870.029
11/03/2014  23:51:00      -89.203      -33.004       -9.895       13.474        9.163        9.927      181.539       83.952       98.542        0.475        0.018       95.113        4.726        0.002      333.612        3.041      870.014
11/03/2014  23:52:00      -45.775      -34.989       -1.751       30.488       16.787       14.418      929.547      281.791      207.890        0.237        0.071       57.616       14.486        0.063      333.624        3.060      870.001
11/03/2014  23:53:00      -33.040      -26.996        4.789       25.286       14.795       14.988      639.369      218.904      224.651        0.146        0.054       42.666       13.812        0.105      333.572        2.974      869.987
11/03/2014  23:54:00      -27.801      -28.717        7.584       29.104       19.546       17.232      847.021      382.030      296.956        0.159        0.076       39.970       14.781        0.137      333.548        2.935      869.987
11/03/2014  23:55:00      -77.392      -58.017       -5.301       35.343       25.234       17.844     1249.144      636.758      318.419        0.579        0.110       96.724       14.593        0.023      333.534        2.911      869.963
11/03/2014  23:56:00      -86.193      -63.187      -10.675       41.088       16.664       16.062     1688.256      277.675      258.000        0.688        0.111      106.873       10.046        0.009      333.571        2.973      869.940
11/03/2014  23:57:00      -72.855      -57.928      -14.043       19.704       32.501       10.784      388.233     1056.344      116.297        0.521        0.078       93.078        9.782        0.011      333.645        3.095      869.928
11/03/2014  23:58:00      -87.940      -39.441       -8.346       18.242       30.158       15.023      332.775      909.478      225.699        0.541        0.073       96.380       12.589        0.017      333.576        2.981      869.915
11/03/2014  23:59:00      -92.345      -48.949       -4.384       24.915       37.198       20.493      620.742     1383.703      419.976        0.668        0.121      104.517       18.833        0.032      333.509        2.868      869.917
